[[{"header":{"parameterUnit":"m.s-1","parameterCategory":1,"la1":30.6,"la2":28.766,"lo1":-90.7593,"lo2":-88.6598,"dy":0.0162,"dx":0.0183,"nx":116,"ny":114,"refTime":"2024-08-03T12:00:00:Z","depth":0,"parameterNumber":2,"parameterNumberName":"U-component_of_WINDS"},"data":[0.0,0.0,0.0,0.0,0.0,0.0,0.0,0.0,0.0,0.0,0.0,0.0,0.0,0.0,0.0,0.0,0.0,0.0,0.0,0.0,0.0,0.0,0.0,0.0,0.0,0.0,0.0,0.0,0.0,0.0,0.0,0.0,0.0,0.0,0.0,0.0,0.0,0.0,0.0,0.0,0.0,0.0,0.0,0.0,0.0,0.0,0.0,0.0,0.0,0.0,0.0,0.0,0.0,0.0,0.0,0.0,0.0,0.0,0.0,0.0,0.0,0.0,0.0,0.0,0.0,0.0,0.0,0.0,0.0,0.0,0.0,0.0,0.0,0.0,0.0,0.0,0.0,0.0,0.0,0.0,0.0,0.0,0.0,0.0,0.0,0.0,0.0,0.0,0.0,0.0,0.0,0.0,0.0,0.0,0.0,0.0,0.0,0.0,0.0,0.0,0.0,0.0,0.0,0.0,0.0,0.0,0.0,0.0,0.0,0.0,0.0,0.0,0.0,0.0,0.0,0.0,0.0,0.0,0.0,0.0,0.0,0.0,0.0,0.0,0.0,0.0,0.0,0.0,0.0,0.0,0.0,0.0,0.0,0.0,0.0,0.0,0.0,0.0,0.0,0.0,0.0,0.0,0.0,0.0,0.0,0.0,0.0,0.0,0.0,0.0,0.0,0.0,0.0,0.0,0.0,0.0,0.0,0.0,0.0,0.0,0.0,0.0,0.0,0.0,0.0,0.0,0.0,0.0,0.0,0.0,0.0,0.0,0.0,0.0,0.0,0.0,0.0,0.0,0.0,0.0,0.0,0.0,0.0,0.0,0.0,0.0,0.0,0.0,0.0,0.0,0.0,0.0,0.0,0.0,0.0,0.0,0.0,0.0,0.0,0.0,0.0,0.0,0.0,0.0,0.0,0.0,0.0,0.0,0.0,0.0,0.0,0.0,0.0,0.0,0.0,0.0,0.0,0.0,0.0,0.0,0.0,0.0,0.0,0.0,0.0,0.0,0.0,0.0,0.0,0.0,0.0,0.0,0.0,0.0,0.0,0.0,0.0,0.0,0.0,0.0,0.0,0.0,0.0,0.0,0.0,0.0,0.0,0.0,0.0,0.0,0.0,0.0,0.0,0.0,0.0,0.0,0.0,0.0,0.0,0.0,0.0,0.0,0.0,0.0,0.0,0.0,0.0,0.0,0.0,0.0,0.0,0.0,0.0,0.0,0.0,0.0,0.0,0.0,0.0,0.0,0.0,0.0,0.0,0.0,0.0,0.0,0.0,0.0,0.0,0.0,0.0,0.0,0.0,0.0,0.0,0.0,0.0,0.0,0.0,0.0,0.0,0.0,0.0,0.0,0.0,0.0,0.0,0.0,0.0,0.0,0.0,0.0,0.0,0.0,0.0,0.0,0.0,0.0,0.0,0.0,0.0,0.0,0.0,0.0,0.0,0.0,0.0,0.0,0.0,0.0,0.0,0.0,0.0,0.0,0.0,0.0,0.0,0.0,0.0,0.0,0.0,0.0,0.0,0.0,0.0,0.0,0.0,0.0,0.0,0.0,0.0,0.0,0.0,0.0,0.0,0.0,0.0,0.0,0.0,0.0,0.0,0.0,0.0,0.0,0.0,0.0,0.0,0.0,0.0,0.0,0.0,0.0,0.0,0.0,0.0,0.0,0.0,0.0,0.0,0.0,0.0,0.0,0.0,0.0,0.0,0.0,0.0,0.0,0.0,0.0,0.0,0.0,0.0,0.0,0.0,0.0,0.0,0.0,0.0,0.0,0.0,0.0,0.0,0.0,0.0,0.0,0.0,0.0,0.0,0.0,0.0,0.0,0.0,0.0,0.0,0.0,0.0,0.0,0.0,0.0,0.0,0.0,0.0,0.0,0.0,0.0,0.0,0.0,0.0,0.0,0.0,0.0,0.0,0.0,0.0,0.0,0.0,0.0,0.0,0.0,0.0,0.0,0.0,0.0,0.0,0.0,0.0,0.0,0.0,0.0,0.0,0.0,0.0,0.0,0.0,0.0,0.0,0.0,0.0,0.0,0.0,0.0,0.0,0.0,0.0,0.0,0.0,0.0,0.0,0.0,0.0,0.0,0.0,0.0,0.0,0.0,0.0,0.0,0.0,0.0,0.0,0.0,0.0,0.0,0.0,0.0,0.0,0.0,0.0,0.0,0.0,0.0,0.0,0.0,0.0,0.0,0.0,0.0,0.0,0.0,0.0,0.0,0.0,0.0,0.0,0.0,0.0,0.0,0.0,0.0,0.0,0.0,0.0,0.0,0.0,0.0,0.0,0.0,0.0,0.0,0.0,0.0,0.0,0.0,0.0,0.0,0.0,0.0,0.0,0.0,0.0,0.0,0.0,0.0,0.0,0.0,0.0,0.0,0.0,0.0,0.0,0.0,0.0,0.0,0.0,0.0,0.0,0.0,0.0,0.0,0.0,0.0,0.0,0.0,0.0,0.0,0.0,0.0,0.0,0.0,0.0,0.0,0.0,0.0,0.0,0.0,0.0,0.0,0.0,0.0,0.0,0.0,0.0,0.0,0.0,0.0,0.0,0.0,0.0,0.0,0.0,0.0,0.0,0.0,0.0,0.0,0.0,0.0,0.0,0.0,0.0,0.0,0.0,0.0,0.0,0.0,0.0,0.0,0.0,0.0,0.0,0.0,0.0,0.0,0.0,0.0,0.0,0.0,0.0,0.0,0.0,0.0,0.0,0.0,0.0,0.0,0.0,0.0,0.0,0.0,0.0,0.0,0.0,0.0,0.0,0.0,0.0,0.0,0.0,0.0,0.0,0.0,0.0,0.0,0.0,0.0,0.0,0.0,0.0,0.0,0.0,0.0,0.0,0.0,0.0,0.0,0.0,0.0,0.0,0.0,0.0,0.0,0.0,0.0,0.0,0.0,0.0,0.0,0.0,0.0,0.0,0.0,0.0,0.0,0.0,0.0,0.0,0.0,0.0,0.0,0.0,0.0,0.0,0.0,0.0,0.0,0.0,0.0,0.0,0.0,0.0,0.0,0.0,0.0,0.0,0.0,0.0,0.0,0.0,0.0,0.0,0.0,0.0,0.0,0.0,0.0,0.0,0.0,0.0,0.0,0.0,0.0,0.0,0.0,0.0,0.0,0.0,0.0,0.0,0.0,0.0,0.0,0.0,0.0,0.0,0.0,0.0,0.0,0.0,0.0,0.0,0.0,0.0,0.0,0.0,0.0,0.0,0.0,0.0,0.0,0.0,0.0,0.0,0.0,0.0,0.0,0.0,0.0,0.0,0.0,0.0,0.0,0.0,0.0,0.0,0.0,0.0,0.0,0.0,0.0,0.0,0.0,0.0,0.0,0.0,0.0,0.0,0.0,0.0,0.0,0.0,0.0,0.0,0.0,0.0,0.0,0.0,0.0,0.0,0.0,0.0,0.0,0.0,0.0,0.0,0.0,0.0,0.0,0.0,0.0,0.0,0.0,0.0,0.0,0.0,0.0,0.0,0.0,0.0,0.0,0.0,0.0,0.0,0.0,0.0,0.0,0.0,0.0,0.0,0.0,0.0,0.0,0.0,0.0,0.0,0.0,0.0,0.0,0.0,0.0,0.0,0.0,0.0,0.0,0.0,0.0,0.0,0.0,0.0,0.0,0.0,0.0,0.0,0.0,0.0,0.0,0.0,0.0,0.0,0.0,0.0,0.0,0.0,0.0,0.0,0.0,0.0,0.0,0.0,0.0,0.0,0.0,0.0,0.0,0.0,0.0,0.0,0.0,0.0,0.0,0.0,0.0,0.0,0.0,0.0,0.0,0.0,0.0,0.0,0.0,0.0,0.0,0.0,0.0,0.0,0.0,0.0,0.0,0.0,0.0,0.0,0.0,0.0,0.0,0.0,0.0,0.0,0.0,0.0,0.0,0.0,0.0,0.0,0.0,0.0,0.0,0.0,0.0,0.0,0.0,0.0,0.0,0.0,0.0,0.0,0.0,0.0,0.0,0.0,0.0,0.0,0.0,0.0,0.0,0.0,0.0,0.0,0.0,0.0,0.0,0.0,0.0,0.0,0.0,0.0,0.0,0.0,0.0,0.0,0.0,0.0,0.0,0.0,0.0,0.0,0.0,0.0,0.0,0.0,0.0,0.0,0.0,0.0,0.0,0.0,0.0,0.0,0.0,0.0,0.0,0.0,0.0,0.0,0.0,0.0,0.0,0.0,0.0,0.0,0.0,0.0,0.0,0.0,0.0,0.0,0.0,0.0,0.0,0.0,0.0,0.0,0.0,0.0,0.0,0.0,0.0,0.0,0.0,0.0,0.0,0.0,0.0,0.0,0.0,0.0,0.0,0.0,0.0,0.0,0.0,0.0,0.0,0.0,0.0,0.0,0.0,0.0,0.0,0.0,0.0,0.0,0.0,0.0,0.0,0.0,0.0,0.0,0.0,0.0,0.0,0.0,0.0,0.0,0.0,0.0,0.0,0.0,0.0,0.0,0.0,0.0,0.0,0.0,0.0,0.0,0.0,0.0,0.0,0.0,0.0,0.0,0.0,0.0,0.0,0.0,0.0,0.0,0.0,0.0,0.0,0.0,0.0,0.0,0.0,0.0,0.0,0.0,0.0,0.0,0.0,0.0,0.0,0.0,0.0,0.0,0.0,0.0,0.0,0.0,0.0,0.0,0.0,0.0,0.0,0.0,0.0,0.0,0.0,0.0,0.0,0.0,0.0,0.0,0.0,0.0,0.0,0.0,0.0,0.0,0.0,0.0,0.0,0.0,0.0,0.0,0.0,0.0,0.0,0.0,0.0,0.0,0.0,0.0,0.0,0.0,0.0,0.0,0.0,0.0,0.0,0.0,0.0,0.0,0.0,0.0,0.0,0.0,0.0,0.0,0.0,0.0,0.0,0.0,0.0,0.0,0.0,0.0,0.0,0.0,0.0,0.0,0.0,0.0,0.0,0.0,0.0,0.0,0.0,0.0,0.0,0.0,0.0,0.0,0.0,0.0,0.0,0.0,0.0,0.0,0.0,0.0,0.0,0.0,0.0,0.0,0.0,0.0,0.0,0.0,0.0,0.0,0.0,0.0,0.0,0.0,0.0,0.0,0.0,0.0,0.0,0.0,0.0,0.0,0.0,0.0,0.0,0.0,0.0,0.0,0.0,0.0,0.0,0.0,0.0,0.0,0.0,0.0,0.0,0.0,0.0,0.0,0.0,0.0,0.0,0.0,0.0,0.0,0.0,0.0,0.0,0.0,0.0,0.0,0.0,0.0,0.0,0.0,0.0,0.0,0.0,0.0,0.0,0.0,0.0,0.0,0.0,0.0,0.0,0.0,0.0,0.0,0.0,0.0,0.0,0.0,0.0,0.0,0.0,0.0,0.0,0.0,0.0,0.0,0.0,0.0,0.0,0.0,0.0,0.0,0.0,0.0,0.0,0.0,0.0,0.0,0.0,0.0,0.0,0.0,0.0,0.0,0.0,0.0,0.0,0.0,0.0,0.0,0.0,0.0,0.0,0.0,0.0,0.0,0.0,0.0,0.0,0.0,0.0,0.0,0.0,0.0,0.0,0.0,0.0,0.0,0.0,0.0,0.0,0.0,0.0,0.0,0.0,0.0,0.0,0.0,0.0,0.0,0.0,0.0,0.0,0.0,0.0,0.0,0.0,0.0,0.0,0.0,0.0,0.0,0.0,0.0,0.0,0.0,0.0,0.0,0.0,0.0,0.0,0.0,0.0,0.0,0.0,0.0,0.0,0.0,0.0,0.0,0.0,0.0,0.0,0.0,0.0,0.0,0.0,0.0,0.0,0.0,0.0,0.0,0.0,0.0,0.0,0.0,0.0,0.0,0.0,0.0,0.0,0.0,0.0,0.0,0.0,0.0,0.0,0.0,0.0,0.0,0.0,0.0,0.0,0.0,0.0,0.0,0.0,0.0,0.0,0.0,0.0,0.0,0.0,0.0,0.0,0.0,0.0,0.0,0.0,0.0,0.0,0.0,0.0,0.0,0.0,0.0,0.0,0.0,0.0,0.0,0.0,0.0,0.0,0.0,0.0,0.0,0.0,0.0,0.0,0.0,0.0,0.0,0.0,0.0,0.0,0.0,0.0,0.0,0.0,0.0,0.0,0.0,0.0,-0.1544,0.0,0.0,0.0,0.0,0.0,0.0,0.0,0.0,0.0,0.0,0.0,0.0,0.0,0.0,0.0,0.0,0.0,0.0,0.0,0.0,0.0,0.0,0.0,0.0,-0.3051,-0.3126,-0.3294,-0.336,-0.3392,-0.3392,0.0,0.0,0.0,0.0,0.0,-0.3239,-0.3286,-0.3387,-0.3561,-0.3284,-0.3288,-0.361,-0.3544,-0.3377,-0.3023,0.0,0.0,0.0,0.0,0.0,0.0,0.0,0.0,0.0,0.0,0.0,0.0,0.0,0.0,0.0,0.0,0.0,0.0,0.0,0.0,0.0,0.0,0.0,0.0,0.0,0.0,0.0,0.0,0.0,0.0,0.0,0.0,0.0,0.0,0.0,0.0,0.0,0.0,0.0,0.0,0.0,0.0,0.0,0.0,0.0,0.0,0.0,0.0,0.0,0.0,0.0,0.0,0.0,0.0,0.0,0.0,0.0,0.0,0.0,0.0,0.0,0.0,0.0,0.0,0.0,0.0,0.0,0.0,0.0,0.0,0.0,-0.1986,0.0,0.0,0.0,0.0,0.0,0.0,0.0,0.0,0.0,0.0,0.0,0.0,0.0,0.0,0.0,0.0,0.0,0.0,0.0,0.0,0.0,-0.2811,-0.3002,-0.3131,-0.3305,-0.3452,-0.3539,-0.3593,-0.361,0.0,0.0,0.0,0.0,-0.3583,-0.3583,-0.3507,-0.3615,-0.3875,-0.3574,-0.3577,-0.3999,-0.4567,0.0,0.0,-0.3746,0.0,0.0,0.0,0.0,0.0,0.0,0.0,0.0,0.0,0.0,0.0,0.0,0.0,0.0,0.0,0.0,0.0,0.0,0.0,0.0,0.0,0.0,0.0,0.0,0.0,0.0,0.0,0.0,0.0,0.0,0.0,0.0,0.0,0.0,0.0,0.0,0.0,0.0,0.0,0.0,0.0,0.0,0.0,0.0,0.0,0.0,0.0,0.0,0.0,0.0,0.0,0.0,0.0,0.0,0.0,0.0,0.0,0.0,0.0,0.0,0.0,0.0,0.0,-0.361,-0.3327,-0.3403,-0.3413,-0.3443,-0.3472,-0.3136,-0.3064,-0.3201,0.0,0.0,0.0,0.0,0.0,0.0,0.0,0.0,0.0,0.0,0.0,0.0,0.0,0.0,0.0,0.0,0.0,0.0,0.0,0.0,-0.2936,-0.3169,-0.3305,-0.3468,-0.3743,-0.3632,-0.3626,-0.3782,0.0,0.0,0.0,-0.3583,-0.3583,-0.3583,-0.3721,-0.3784,-0.3875,-0.4373,-0.463,-0.487,0.0,0.0,0.0,-0.4259,-0.4082,0.0,0.0,0.0,0.0,0.0,0.0,0.0,0.0,0.0,0.0,0.0,0.0,0.0,0.0,0.0,0.0,0.0,0.0,0.0,0.0,0.0,0.0,0.0,0.0,0.0,0.0,0.0,0.0,0.0,0.0,0.0,0.0,0.0,0.0,0.0,0.0,0.0,0.0,0.0,0.0,0.0,0.0,0.1145,0.1183,0.0,0.0,0.0,0.0,0.0,0.0,0.0,0.0,0.0,0.0,0.0,0.0,0.0,-0.348,-0.3833,-0.4127,-0.4231,-0.4258,-0.4175,-0.3973,-0.3941,-0.3991,-0.415,-0.4155,-0.3986,0.0,-0.3722,-0.336,0.0,0.0,0.0,0.0,0.0,0.0,0.0,0.0,0.0,0.0,0.0,0.0,0.0,0.0,0.0,0.0,0.0,0.0,0.0,0.0,0.0,-0.3528,-0.3697,-0.3936,-0.4034,-0.4142,0.0,0.0,0.0,-0.4311,-0.4353,-0.4187,-0.3965,-0.4164,-0.4204,-0.4187,-0.492,0.0,0.0,0.0,0.0,0.0,0.0,0.0,0.0,0.0,0.0,0.0,0.0,0.0,0.0,0.0,0.0,0.0,0.0,0.0,0.0,0.0,0.0,0.0,0.0,0.0,0.0,0.0,0.0,0.0,0.0,0.0,0.0,0.0,0.0,0.0,0.0,0.0,0.0,0.0,0.0,0.0,0.0,0.0,0.0,0.0,0.0,0.0,0.0,0.1164,0.1279,0.1309,0.1356,0.1351,0.0,0.0,0.0,0.0,0.0,0.0,0.0,0.0,0.0,-0.1782,-0.2996,-0.3826,-0.4105,-0.4223,-0.4316,-0.4251,-0.4327,-0.4352,-0.4327,-0.4354,-0.4365,-0.4365,-0.4365,-0.4292,-0.4153,-0.3687,-0.3503,-0.345,0.0,0.0,0.0,0.0,-0.3466,-0.351,0.0,0.0,0.0,0.0,0.0,0.0,0.0,0.0,0.0,0.0,0.0,0.0,-0.3588,-0.3757,-0.3958,-0.423,0.0,0.0,0.0,0.0,0.0,-0.4925,-0.4886,-0.4698,-0.4287,-0.4651,-0.4833,0.0,0.0,0.0,0.0,0.0,0.0,0.0,0.0,0.0,0.0,0.0,0.0,0.0,0.0,0.0,0.0,0.0,0.0,0.0,0.0,0.0,0.0,0.0,0.0,0.0,0.0,0.0,0.0,0.0,0.0,0.0,0.0,0.0,0.0,0.0,0.0,0.0,0.0,0.0,0.0,0.0,0.0,0.0,0.0,0.0,0.0,0.0,0.0,0.0,0.0,0.1041,0.1046,0.1431,0.1042,0.0859,0.0,0.0,0.0,0.0,0.0,0.0,-0.2074,-0.2608,-0.2945,-0.2819,-0.351,-0.4005,-0.4283,-0.433,-0.4395,-0.4343,-0.4482,-0.4482,-0.4482,-0.4482,-0.4482,-0.4482,-0.4482,-0.4482,-0.4463,-0.3965,-0.3791,-0.3899,-0.3582,-0.3638,-0.3711,-0.3804,-0.3818,-0.3826,0.0,0.0,0.0,0.0,0.0,0.0,0.0,0.0,0.0,0.0,0.0,0.0,0.0,0.0,0.0,0.0,0.0,0.0,0.0,0.0,0.0,-0.4937,-0.489,-0.4804,-0.4558,-0.5248,0.0,0.0,0.0,0.0,0.0,0.0,0.0,0.0,0.0,0.0,0.0,0.0,0.0,0.0,0.0,0.0,0.0,0.0,0.0,0.0,0.0,0.0,0.0,0.0,0.0,0.0,0.0,0.0,0.0,0.0,0.0,0.0,0.0,0.0,0.0,0.0,0.0,0.0,0.0,0.0,0.0,0.0,0.0,0.0,0.0,0.0,0.0,0.0,0.0,0.0,0.0,0.0,0.0,0.1458,-0.0,0.0,0.0,0.0,0.0,-0.2322,-0.1551,-0.1874,-0.3738,-0.3883,-0.3991,-0.4224,-0.4234,-0.4269,-0.4329,-0.4611,-0.4617,-0.4622,-0.4622,-0.4622,-0.4482,-0.4482,-0.4482,-0.4482,-0.4482,-0.4482,-0.4477,-0.4409,-0.4341,-0.4267,-0.415,-0.4065,-0.4014,-0.4019,-0.4057,-0.424,0.0,0.0,0.0,-0.2664,-0.2648,-0.2675,-0.2887,-0.2898,-0.2928,-0.3088,-0.3392,0.0,0.0,0.0,0.0,0.0,0.0,0.0,0.0,0.0,0.0,-0.6719,-0.6546,-0.6277,-0.6108,-0.5699,0.0,0.0,0.0,0.0,0.0,0.0,0.0,0.0,0.0,0.0,0.0,0.0,0.0,0.0,0.0,0.0,0.0,0.0,0.0,0.0,0.0,0.0,0.0,0.0,0.0,0.0,0.0,0.0,0.0,0.0,0.0,0.0,0.0,0.0,0.0,0.0,0.0,0.0,0.0,0.0,0.0,0.0,0.0,0.0,0.0,0.0,0.0,0.0,0.0,0.0,0.0,0.0,0.0,-0.0325,-0.0911,0.0,0.0,-0.1249,-0.1864,-0.2618,-0.2958,-0.3454,-0.4259,-0.4303,-0.4362,-0.445,-0.4452,-0.448,-0.4398,-0.4542,-0.4704,-0.4743,-0.4743,-0.4743,-0.46,-0.46,-0.46,-0.46,-0.46,-0.46,-0.4597,-0.4578,-0.451,-0.4417,-0.4371,-0.4341,-0.4322,-0.4322,-0.4338,-0.4623,0.0,-0.2381,0.0,-0.2593,-0.262,-0.268,-0.2887,-0.2968,-0.3056,-0.3256,0.0,0.0,0.0,0.0,0.0,0.0,0.0,0.0,0.0,0.0,0.0,-0.7605,-0.7481,-0.7345,0.0,0.0,0.0,0.0,0.0,0.0,0.0,0.0,0.0,0.0,0.0,0.0,0.0,0.0,0.0,0.0,0.0,0.0,-0.4621,0.0,0.0,0.0,0.0,0.0,0.0,0.0,0.0,0.0,0.0,0.0,0.0,0.0,0.0,0.0,0.0,0.0,0.0,0.0,0.0,0.0,0.0,0.0,0.0,0.0,0.0,0.0,0.0,0.0,0.0,0.0,0.0,0.0,0.0,0.0,-0.1553,-0.1382,-0.1829,-0.2119,-0.1814,-0.2355,-0.28,-0.3245,-0.3587,-0.3944,-0.4452,-0.4493,-0.4523,-0.4542,-0.4545,-0.4561,-0.4602,-0.4605,-0.4768,-0.4665,-0.4665,-0.4665,-0.4665,-0.4665,-0.4665,-0.4665,-0.4665,-0.4665,-0.481,-0.5244,-0.5476,-0.5247,-0.4803,-0.4794,-0.535,-0.5328,-0.5597,-0.6283,-0.2114,-0.2119,-0.2194,-0.2463,-0.2506,-0.2588,-0.2876,-0.2974,-0.3088,-0.3371,0.0,0.0,0.0,0.0,0.0,0.0,0.0,0.0,0.0,0.0,-0.7877,-0.7477,-0.7668,-0.7966,0.0,0.0,0.0,0.0,0.0,0.0,0.0,0.0,0.0,0.0,0.0,0.0,0.0,0.0,0.0,0.0,0.0,0.0,-0.5317,0.0,0.0,0.0,0.0,0.0,0.0,0.0,0.0,0.0,0.0,0.0,0.0,0.0,0.0,0.0,0.0,0.0,0.0,0.0,0.0,0.0,0.0,0.0,0.0,0.0,0.0,0.0,0.0,0.0,0.0,0.0,0.0,0.0,-0.1521,-0.2188,-0.2435,-0.1533,-0.3032,-0.3786,-0.2921,-0.2796,-0.33,-0.4266,-0.3482,-0.3385,-0.4575,-0.4578,-0.4608,-0.4668,-0.467,-0.467,-0.467,-0.467,-0.467,-0.467,-0.467,-0.467,-0.467,-0.467,-0.467,-0.4816,-0.4816,-0.4816,-0.4959,-0.641,-0.7131,-0.6974,-0.5314,-0.5713,-0.6977,-0.6885,-0.7826,-0.9348,-0.2114,-0.2189,-0.2291,-0.2474,-0.2577,-0.2686,-0.2887,-0.3039,-0.3224,0.0,0.0,0.0,0.0,0.0,0.0,0.0,0.0,0.0,0.0,0.0,-0.777,-0.8512,-0.8734,0.0,0.0,0.0,0.0,0.0,0.0,0.0,0.0,0.0,0.0,0.0,0.0,0.0,0.0,0.0,0.0,0.0,0.0,0.0,-0.5594,0.0,0.0,0.0,0.0,0.0,0.0,0.0,0.0,0.0,0.0,0.0,0.0,0.0,0.0,0.0,0.0,0.0,0.0,0.0,0.0,0.0,0.0,0.0,0.0,0.0,0.0,0.0,0.0,0.0,0.0,0.0,0.0,-0.3508,-0.3167,-0.3445,-0.3616,-0.3493,-0.4003,-0.4216,-0.4088,-0.4006,-0.4198,-0.4523,-0.4256,-0.4307,-0.47,-0.4706,-0.4733,-0.4793,-0.4796,-0.4796,-0.4796,-0.4796,-0.4796,-0.4796,-0.4796,-0.4796,-0.4796,-0.4796,-0.554,-0.6578,-0.6578,-0.7319,-0.8359,-0.8805,-0.8902,-0.8821,-0.8275,-0.8237,-0.8663,-0.8632,-0.9558,-1.0747,-0.2184,-0.2248,-0.235,-0.255,-0.2759,-0.2893,-0.2893,-0.3209,-0.3482,0.0,0.0,0.0,0.0,0.0,0.0,0.0,0.0,0.0,-0.77,-0.7828,0.0,0.0,0.0,0.0,0.0,0.0,0.0,0.0,0.0,0.0,0.0,0.0,0.0,0.0,0.0,0.0,0.0,0.0,0.0,0.0,0.0,0.0,-0.6067,-0.5725,-0.5507,-0.5355,-0.5116,-0.4963,-0.4871,-0.4822,0.0,0.0,0.0,0.0,0.0,0.0,0.0,0.0,0.0,0.0,0.0,0.0,0.0,0.0,0.0,0.0,0.0,0.0,0.0,0.0,0.0,0.0,0.0,0.0,-0.3755,-0.3976,-0.4025,-0.4101,-0.4207,-0.4362,-0.4436,-0.4485,-0.4518,-0.4542,-0.4583,-0.4646,-0.4649,-0.4692,-0.4788,-0.4793,-0.4809,-0.4845,-0.4845,-0.4845,-0.4845,-0.4845,-0.4845,-0.4845,-0.5748,-0.605,-0.5896,-0.7105,-0.7853,0.0,-0.829,-0.8895,-0.9794,-1.0542,-1.0649,0.0,0.0,0.0,0.0,0.0,-1.1681,-1.2321,-0.2346,-0.2427,-0.2549,-0.2771,-0.3066,-0.3207,-0.2981,-0.3446,-0.376,0.0,0.0,0.0,0.0,0.0,0.0,0.0,0.0,0.0,0.0,0.0,0.0,0.0,0.0,0.0,0.0,0.0,0.0,0.0,0.0,0.0,0.0,0.0,0.0,0.0,0.0,0.0,0.0,0.0,0.0,0.0,0.0,0.0,-0.6589,-0.6138,-0.5964,-0.5931,-0.5697,-0.5469,-0.5273,-0.517,0.0,0.0,0.0,0.0,0.0,0.0,0.0,0.0,0.0,0.0,0.0,0.0,0.0,0.0,0.0,0.0,0.0,0.0,0.0,0.0,0.0,0.0,0.0,0.0,-0.4085,-0.4281,-0.4401,-0.4371,-0.4376,-0.448,-0.454,-0.4575,-0.4583,-0.464,-0.4698,-0.4752,-0.476,-0.4793,-0.4853,0.0,0.0,0.0,0.0,-0.4867,-0.4867,-0.5016,-0.5167,-0.5167,-0.728,-0.8031,-0.7725,-1.0306,-1.1058,-1.0133,-1.0133,-1.0283,-1.0433,-1.1788,-1.2387,-1.2203,-1.0712,-1.0869,-1.2043,-1.3491,-1.392,-1.3904,-0.2831,-0.3138,-0.3438,-0.3502,-0.3659,-0.3672,-0.3347,-0.3589,-0.3831,-0.4002,0.0,0.0,0.0,0.0,0.0,0.0,0.0,0.0,0.0,0.0,0.0,0.0,0.0,0.0,0.0,0.0,0.0,0.0,0.0,0.0,0.0,0.0,0.0,0.0,0.0,0.0,0.0,0.0,0.0,0.0,0.0,0.0,-0.6736,-0.6442,-0.6333,-0.6301,-0.6067,-0.5953,-0.5909,-0.5888,-0.5735,-0.5518,-0.5273,0.0,0.0,0.0,0.0,0.0,0.0,0.0,0.0,0.0,0.0,0.0,0.0,0.0,0.0,0.0,0.0,0.0,0.0,0.0,0.0,-0.4038,-0.4237,-0.4403,-0.4523,-0.4529,-0.4531,-0.4553,-0.4567,-0.4594,-0.4643,-0.4703,-0.4744,-0.4755,-0.4801,-0.4856,-0.4916,-0.4918,0.0,-0.4986,-0.4986,-0.4986,-0.4986,-0.6227,-0.6999,-0.6999,0.0,0.0,-0.9464,-1.1029,-1.1805,-1.1932,-1.1932,-1.2706,-1.4091,-1.4244,-1.4318,-1.4184,-1.3698,-1.3529,-1.368,-1.3978,-1.4026,-1.3904,-0.3552,-0.3643,-0.3704,-0.3786,-0.3868,-0.384,-0.3663,-0.392,-0.4171,-0.433,0.0,0.0,0.0,0.0,0.0,0.0,0.0,0.0,0.0,0.0,0.0,0.0,0.0,0.0,0.0,0.0,0.0,0.0,0.0,0.0,0.0,0.0,0.0,0.0,0.0,0.0,0.0,0.0,0.0,0.0,0.0,0.0,-0.6953,-0.6709,-0.6584,-0.6513,-0.6393,-0.6312,-0.6252,-0.6198,-0.6138,-0.6024,-0.5665,-0.5431,-0.5192,0.0,0.0,0.0,0.0,0.0,0.0,0.0,0.0,0.0,0.0,0.0,0.0,0.0,0.0,-0.5013,0.0,0.0,-0.4106,-0.4316,-0.4425,-0.4518,-0.4605,-0.4619,-0.4619,-0.4619,-0.4619,-0.4643,-0.4703,-0.4736,-0.4779,-0.4842,-0.4875,-0.4918,-0.4976,-0.4978,-0.4992,-0.5019,-0.5802,-0.6268,-0.6268,-0.7981,-0.8755,-0.8755,-0.9671,-1.0446,-1.1238,-1.2649,-1.3421,-1.3722,-1.3722,-1.4191,-1.4968,-1.4968,-1.4911,-1.483,-1.4732,-1.4538,-1.4294,-1.4213,-1.4115,-1.4026,-0.4302,-0.4186,-0.3983,-0.4081,-0.4128,-0.4151,-0.4106,-0.4344,-0.4611,-0.4748,-0.5571,-0.594,-0.5523,0.0,0.0,0.0,0.0,0.0,0.0,0.0,0.0,0.0,0.0,0.0,0.0,0.0,0.0,0.0,0.0,0.0,0.0,0.0,0.0,0.0,0.0,0.0,0.0,0.0,0.0,0.0,0.0,0.0,-0.7465,-0.7028,-0.6763,-0.6649,-0.66,-0.6491,-0.6355,-0.6263,-0.6279,-0.6268,-0.5888,-0.5752,-0.5627,-0.5094,-0.492,0.0,0.0,0.0,0.0,0.0,0.0,0.0,0.0,0.0,-0.6492,-0.6842,-0.6304,-0.5847,-0.6023,-0.5202,-0.4485,-0.4542,-0.4583,-0.4608,-0.4657,-0.4665,-0.4665,-0.4665,-0.4665,-0.4687,-0.4749,-0.4766,-0.4818,-0.4929,-0.4946,-0.4973,-0.5019,-0.5033,-0.5195,-0.551,-0.693,-0.7723,-0.8037,-0.975,-1.0531,-1.0531,-1.1778,-1.2562,-1.3042,-1.4446,-1.5065,-1.5065,-1.5033,-1.5017,-1.5017,-1.4976,-1.4968,-1.4968,-1.4968,-1.4789,-1.4513,-1.4343,-1.4261,-1.4205,-0.4871,-0.4865,-0.4874,-0.4893,-0.5042,-0.5024,-0.4738,-0.4956,-0.5207,-0.5276,-0.5678,-0.5876,-0.5669,-0.6318,0.0,0.0,0.0,0.0,0.0,0.0,0.0,0.0,0.0,0.0,0.0,0.0,0.0,0.0,0.0,0.0,0.0,0.0,0.0,0.0,0.0,0.0,0.0,0.0,0.0,0.0,0.0,0.0,-0.8244,-0.7339,-0.6888,-0.6752,-0.6535,-0.6312,-0.6121,-0.6111,-0.604,-0.5953,-0.5899,-0.5817,-0.5676,-0.5393,0.0,-0.5165,-0.5246,-0.554,0.0,-0.6502,-0.6573,-0.6569,0.0,0.0,-0.7443,-0.6752,-0.7053,-0.7018,-0.5858,-0.5573,-0.5392,-0.4712,-0.4619,-0.4657,-0.4662,-0.4665,-0.4665,-0.4665,-0.4665,-0.4687,-0.4749,-0.4804,-0.4864,-0.4932,-0.4984,-0.5014,-0.5022,-0.5071,-0.5893,-0.7481,-0.7709,-0.8554,-1.0158,-1.1758,-1.2715,-1.2715,-1.3995,-1.4797,-1.4971,-1.4963,-1.4963,-1.4955,-1.4955,-1.5039,-1.5031,-1.5033,-1.4968,-1.4968,-1.4968,-1.4944,-1.4887,-1.4716,-1.4546,-1.4375,-0.4884,-0.4806,-0.4718,-0.4946,-0.5015,-0.5005,-0.5097,-0.5237,-0.544,-0.5648,-0.5892,-0.6072,-0.6025,-0.6266,0.0,0.0,0.0,0.0,0.0,0.0,0.0,0.0,0.0,0.0,0.0,0.0,0.0,0.0,0.0,0.0,0.0,0.0,0.0,0.0,0.0,0.0,0.0,0.0,0.0,0.0,0.0,0.0,-0.8472,-0.7895,-0.7599,-0.7291,-0.6597,-0.6241,0.0,0.0,-0.6051,-0.5996,-0.5926,-0.5822,-0.5697,-0.5523,-0.5589,0.0,-0.6453,0.0,0.0,0.0,-0.7491,-0.7573,-0.7811,-0.8038,-0.8253,-0.8048,-0.7927,-0.7599,-0.6524,-0.6023,-0.5493,0.0,-0.4649,-0.4665,-0.4665,-0.4632,-0.461,-0.461,-0.547,-0.5677,-0.4945,-0.5729,-0.5942,-0.4978,-0.5981,-0.649,-0.6652,-0.6723,-0.7565,-0.9327,-1.0329,-1.116,-1.1968,-1.3575,-1.4381,-1.4381,-1.5026,-1.5345,-1.5345,-1.5512,-1.552,-1.5512,-1.5431,-1.5176,-1.5072,-1.4991,-1.5057,-1.4968,-1.4968,-1.4968,-1.4944,-1.4773,-1.4659,-1.457,-0.4902,-0.4762,-0.4675,-0.4946,-0.5015,-0.5085,-0.533,-0.5526,-0.5729,-0.5939,-0.6133,-0.6173,-0.6173,-0.6173,-0.6323,-0.6679,-0.7466,-0.8259,0.0,0.0,0.0,0.0,0.0,0.0,0.0,0.0,0.0,0.0,0.0,0.0,0.0,0.0,0.0,0.0,0.0,0.0,0.0,0.0,0.0,0.0,0.0,0.0,-0.9057,-0.8648,-0.8233,-0.7595,-0.6813,-0.6432,0.0,0.0,-0.6059,-0.5958,-0.5813,-0.5758,-0.59,-0.6034,-0.6368,-0.6776,-0.7249,0.0,0.0,-0.7867,-0.8176,-0.8399,-0.847,-0.8617,-0.8796,-0.9003,-0.8666,-0.8159,-0.7373,-0.6661,0.0,-0.5096,-0.5259,-0.5414,-0.5418,-0.5643,-0.574,-0.5314,-0.6575,-0.6941,-0.555,-0.6462,-0.6831,-0.5761,-0.6934,-0.794,-0.8441,-0.8558,-0.9435,-1.1218,-1.2546,-1.3374,-1.3864,-1.5007,-1.5658,-1.5658,-1.5658,-1.5658,-1.5498,-1.5835,-1.5996,-1.5996,-1.5778,-1.5512,-1.5216,-1.5168,-1.5047,-1.5041,-1.5041,-1.5009,-1.4952,-1.4982,-1.4933,-1.4749,-0.499,-0.499,-0.499,-0.499,-0.533,-0.5594,-0.5604,-0.5901,-0.6164,-0.6164,-0.6173,-0.6173,-0.6173,-0.6173,-0.6257,-0.6463,-0.7116,-0.7834,-0.8666,0.0,0.0,0.0,0.0,0.0,0.0,0.0,0.0,0.0,0.0,0.0,0.0,0.0,0.0,0.0,0.0,0.0,0.0,0.0,0.0,0.0,0.0,0.0,-1.0592,-0.9419,-0.8488,-0.7745,-0.7021,0.0,0.0,0.0,-0.5821,-0.5761,-0.5331,-0.5694,0.0,-0.7211,-0.7885,0.0,0.0,0.0,-0.791,-0.816,-0.8492,-0.8818,-0.9052,-0.9111,-0.915,-0.9269,-0.9209,-0.885,-0.814,-0.7287,-0.6598,-0.5815,-0.6466,-0.7105,-0.6961,-0.8198,-0.8564,-0.7119,-0.8179,-0.8489,0.0,-0.7121,-0.719,-0.737,-0.7623,-0.8494,-1.0172,-1.04,-1.1341,-1.3152,-1.3295,-1.4203,-1.5867,-1.6032,-1.6032,-1.6032,-1.6032,-1.6032,-1.6032,-1.6032,-1.6032,-1.6024,-1.6008,-1.5934,-1.5909,-1.5409,-1.5232,-1.5228,-1.5228,-1.5122,-1.5122,-1.5429,-1.5267,-1.5089,-0.516,-0.5188,-0.5235,-0.5377,-0.5623,-0.5812,-0.5812,-0.6048,-0.6173,-0.6173,-0.6173,0.0,0.0,0.0,0.0,0.0,-0.6974,-0.7617,-0.824,0.0,0.0,0.0,0.0,0.0,0.0,0.0,0.0,0.0,0.0,0.0,0.0,0.0,0.0,0.0,0.0,0.0,0.0,0.0,0.0,0.0,0.0,0.0,-1.069,-1.0117,-0.934,-0.8485,0.0,0.0,0.0,0.0,0.0,0.0,-0.6337,0.0,0.0,-0.8088,0.0,0.0,0.0,0.0,-0.9348,-0.98,-0.9948,-1.0022,-0.9352,-0.9752,-1.01,-1.0058,-1.0493,-1.0639,-0.9721,-0.9365,-0.9043,-0.8183,-0.8489,-0.8905,-0.8624,-0.9383,-0.9635,-0.8902,-1.0345,0.0,0.0,0.0,0.0,-0.9041,-1.0164,-1.1276,-1.2045,-1.2319,-1.3302,-1.4959,-1.5185,-1.5381,-1.6048,-1.6048,-1.6048,-1.6048,-1.6048,-1.6048,-1.6048,-1.6048,-1.6048,-1.604,-1.5983,-1.6049,-1.5942,-1.5876,-1.5745,-1.5573,-1.5293,-1.536,-1.5604,-1.5633,-1.5744,-1.5888,-0.5264,-0.5349,-0.5443,-0.5585,-0.5774,0.0,0.0,0.0,0.0,0.0,0.0,0.0,0.0,0.0,0.0,0.0,0.0,-0.7264,0.0,0.0,0.0,0.0,0.0,0.0,0.0,0.0,0.0,0.0,0.0,0.0,0.0,0.0,0.0,0.0,0.0,0.0,0.0,0.0,0.0,0.0,0.0,0.0,-1.0712,-1.0325,-0.9644,0.0,0.0,0.0,0.0,0.0,0.0,0.0,0.0,0.0,0.0,0.0,0.0,-0.9377,0.0,-1.0721,-1.0293,-1.1234,-1.1482,-1.1322,-1.0513,-1.0838,-1.1101,-1.09,-1.1059,-1.1228,-1.0603,-1.0227,-0.9971,-0.9763,-1.0314,-1.0693,-1.0705,-1.153,-1.1962,-1.1194,-1.2554,-1.2894,0.0,0.0,0.0,-1.066,-1.1934,-1.3151,-1.3887,-1.4201,-1.4878,-1.5883,-1.6048,-1.6048,-1.6048,-1.6048,-1.6048,-1.6048,-1.6048,-1.6048,-1.6048,-1.6048,-1.6048,-1.6048,-1.6048,-1.5983,-1.6041,-1.6041,-1.5934,-1.5762,-1.5638,-1.5706,-1.5945,-1.6069,-1.6309,-1.6454,-0.5311,-0.5481,-0.5632,0.0,0.0,0.0,0.0,0.0,0.0,0.0,0.0,0.0,0.0,0.0,0.0,0.0,0.0,0.0,0.0,0.0,0.0,0.0,0.0,0.0,0.0,0.0,0.0,0.0,0.0,0.0,0.0,0.0,0.0,0.0,0.0,0.0,0.0,0.0,0.0,0.0,0.0,0.0,-1.0518,-1.019,0.0,0.0,0.0,0.0,0.0,0.0,0.0,0.0,0.0,0.0,0.0,0.0,0.0,-1.1019,-1.1595,-1.1156,-1.0846,-1.2395,-1.2768,-1.2693,-1.2381,-1.2212,-1.1991,-1.1659,-1.1202,-1.0863,0.0,0.0,-0.966,-1.0611,-1.1833,-1.2656,-1.3133,-1.4728,-1.5197,0.0,0.0,0.0,0.0,0.0,0.0,-1.255,0.0,-1.3902,-1.5369,-1.5853,-1.6048,-1.6048,-1.6048,-1.6048,-1.6048,-1.6048,-1.6048,-1.6048,-1.6048,-1.6048,-1.6048,-1.6048,-1.6048,-1.6048,-1.6048,-1.6048,-1.6048,-1.6048,-1.5951,-1.612,-1.6266,-1.6317,-1.629,-1.6895,-1.7134,-1.7098,0.0,0.0,0.0,0.0,0.0,0.0,0.0,0.0,0.0,0.0,0.0,0.0,0.0,0.0,0.0,0.0,0.0,0.0,0.0,0.0,0.0,0.0,0.0,0.0,0.0,0.0,0.0,0.0,0.0,0.0,0.0,0.0,0.0,0.0,0.0,0.0,0.0,0.0,0.0,0.0,0.0,0.0,-1.0319,0.0,0.0,0.0,0.0,0.0,0.0,0.0,0.0,0.0,0.0,0.0,-1.1846,0.0,0.0,-1.2689,-1.3962,-1.3814,-1.3351,-1.3891,-1.3899,-1.3504,-1.2497,-1.2404,-1.2491,-1.2001,-1.2183,-1.2347,-1.1801,0.0,0.0,-1.2733,-1.3823,0.0,-1.477,-1.5896,0.0,0.0,0.0,-1.6536,-1.5972,-1.6277,0.0,0.0,-1.5168,-1.5089,-1.5699,-1.5918,-1.6048,-1.6048,-1.6048,-1.6048,-1.6048,-1.6048,-1.6048,-1.6048,-1.6048,-1.6048,-1.6048,-1.6048,-1.6048,-1.6048,-1.6048,-1.6048,-1.6048,-1.6048,-1.618,-1.645,-1.6478,-1.6716,-1.7297,-1.725,-1.7493,-1.7779,0.0,0.0,0.0,0.0,0.0,0.0,0.0,0.0,0.0,0.0,0.0,0.0,0.0,0.0,0.0,0.0,0.0,0.0,0.0,0.0,0.0,0.0,0.0,0.0,0.0,0.0,0.0,0.0,0.0,0.0,0.0,0.0,0.0,0.0,0.0,0.0,0.0,0.0,0.0,0.0,0.0,0.0,0.0,0.0,0.0,0.0,0.0,0.0,0.0,0.0,0.0,-0.9578,-1.0634,-1.1422,-1.219,-1.3695,0.0,-1.3652,-1.5264,-1.4988,-1.4497,-1.5248,-1.5026,-1.4525,-1.3486,-1.3242,-1.2996,-1.224,-1.2292,0.0,-1.1822,0.0,0.0,0.0,0.0,0.0,-1.584,-1.6756,-1.7334,0.0,-1.7446,0.0,-1.7217,-1.7331,-1.7146,0.0,-1.6334,-1.6079,-1.6096,-1.5951,-1.6048,-1.6048,-1.6048,-1.6048,-1.6048,-1.6048,-1.6048,-1.6048,-1.6048,-1.6048,-1.6048,-1.6048,-1.6048,-1.6048,0.0,-1.6213,-1.655,-1.6542,-1.6706,-1.7191,-1.7077,-1.7359,-1.7818,-1.7778,-1.8023,-1.8154,0.0,0.0,0.0,0.0,0.0,0.0,0.0,0.0,0.0,0.0,0.0,0.0,0.0,0.0,0.0,0.0,0.0,0.0,0.0,0.0,0.0,0.0,0.0,0.0,0.0,0.0,0.0,0.0,0.0,0.0,0.0,0.0,0.0,0.0,0.0,0.0,0.0,0.0,0.0,0.0,0.0,0.0,0.0,0.0,0.0,0.0,0.0,0.0,0.0,0.0,-0.8568,-0.8712,-1.0902,-1.163,-1.2051,-1.4207,-1.4539,-1.4492,-1.5839,-1.5506,-1.5096,-1.6118,-1.598,-1.5347,-1.4695,-1.4043,-1.3277,-1.2266,0.0,-1.1567,-1.1151,0.0,-1.2361,-1.3173,0.0,-1.546,-1.6358,-1.718,-1.7709,-1.7766,-1.8135,-1.8238,-1.7916,-1.791,-1.801,-1.7527,-1.7191,-1.6785,-1.647,-1.6286,-1.604,-1.604,-1.6048,-1.6048,-1.604,-1.6048,-1.6048,-1.6048,-1.6048,-1.6048,-1.6048,-1.6048,-1.6048,-1.6048,-1.6048,0.0,-1.7217,-1.7035,-1.7363,-1.7873,-1.801,-1.801,-1.8155,-1.8304,-1.8399,-1.8371,0.0,0.0,0.0,0.0,0.0,0.0,0.0,0.0,0.0,0.0,0.0,0.0,0.0,0.0,0.0,0.0,0.0,0.0,0.0,0.0,0.0,0.0,0.0,0.0,0.0,0.0,0.0,0.0,0.0,0.0,0.0,0.0,0.0,0.0,0.0,0.0,0.0,0.0,0.0,0.0,0.0,0.0,0.0,0.0,0.0,0.0,0.0,0.0,0.0,0.0,-0.9639,-1.0441,-1.1441,-1.2473,-1.3553,-1.5264,-1.5821,-1.6044,-1.6405,-1.628,-1.6109,-1.6264,-1.5753,-1.5082,-1.4298,-1.3504,0.0,0.0,0.0,-1.0924,-1.0508,-1.1227,0.0,-1.2767,0.0,0.0,0.0,0.0,-1.7605,0.0,0.0,0.0,0.0,0.0,0.0,0.0,0.0,-1.7665,-1.7311,-1.6845,-1.6534,-1.6534,-1.6205,-1.6205,-1.6534,-1.6205,-1.6048,-1.6048,-1.6048,-1.6048,-1.6048,-1.6048,-1.6048,-1.6048,-1.6369,0.0,-1.6862,-1.7199,-1.7527,-1.801,-1.801,-1.8174,-1.851,-1.8636,-1.8617,-1.8588,0.0,0.0,0.0,0.0,0.0,0.0,0.0,0.0,0.0,0.0,0.0,0.0,0.0,0.0,0.0,0.0,0.0,0.0,0.0,0.0,0.0,0.0,0.0,0.0,0.0,0.0,0.0,0.0,0.0,0.0,0.0,0.0,0.0,0.0,0.0,0.0,0.0,0.0,0.0,0.0,0.0,0.0,0.0,0.0,0.0,0.0,0.0,0.0,0.0,0.0,-0.9551,-1.0215,-1.1449,-1.1881,-1.2465,-1.5064,-1.5505,-1.5497,-1.628,-1.6405,-1.6301,-1.6207,-1.5536,-1.4666,-1.3731,0.0,0.0,0.0,0.0,-1.0603,-1.0178,0.0,0.0,0.0,0.0,0.0,0.0,0.0,0.0,0.0,0.0,0.0,0.0,0.0,0.0,0.0,0.0,-1.8174,-1.7682,-1.7355,-1.7026,-1.7026,-1.6871,-1.6871,-1.7026,-1.6871,-1.6706,-1.6706,-1.6617,-1.6493,-1.6493,-1.6076,-1.6292,-1.6643,-1.6977,0.0,-1.7645,-1.7879,-1.8165,-1.8486,-1.8383,-1.851,-1.8673,-1.8673,-1.8673,-1.8664,0.0,0.0,0.0,0.0,0.0,0.0,0.0,0.0,0.0,0.0,0.0,0.0,0.0,0.0,0.0,0.0,0.0,0.0,0.0,0.0,0.0,0.0,0.0,0.0,0.0,0.0,0.0,0.0,0.0,0.0,0.0,0.0,0.0,0.0,0.0,0.0,0.0,0.0,0.0,0.0,0.0,0.0,0.0,0.0,0.0,0.0,0.0,0.0,0.0,0.0,-0.923,-0.9537,-1.0974,-1.1106,-1.1171,-1.4423,-1.4882,-1.4684,-1.6025,-1.633,-1.6226,-1.6131,-1.5356,-1.4336,-1.3249,-1.2351,0.0,0.0,0.0,-1.0338,-1.0095,0.0,0.0,0.0,0.0,0.0,0.0,0.0,0.0,0.0,0.0,0.0,0.0,0.0,0.0,0.0,0.0,0.0,-1.8074,-1.779,-1.7652,-1.7652,-1.7607,-1.759,-1.759,-1.759,-1.7425,-1.7425,-1.7093,-1.7002,-1.7002,-1.6623,-1.6866,-1.7409,-1.757,0.0,0.0,-1.8615,-1.8708,-1.9023,-1.8825,-1.8739,-1.8739,-1.8692,-1.8673,-1.8673,0.0,0.0,0.0,0.0,0.0,0.0,0.0,0.0,0.0,0.0,0.0,0.0,0.0,0.0,0.0,0.0,0.0,0.0,0.0,0.0,0.0,0.0,0.0,0.0,0.0,0.0,0.0,0.0,0.0,0.0,0.0,0.0,0.0,0.0,0.0,0.0,0.0,0.0,0.0,0.0,0.0,0.0,0.0,0.0,0.0,0.0,0.0,0.0,0.0,0.0,0.0,-0.9059,-0.9991,-1.0609,-1.1393,-1.3726,0.0,0.0,-1.5858,-1.633,-1.6358,-1.598,-1.5252,-1.4307,-1.3079,0.0,0.0,0.0,-1.013,-1.0086,-1.0047,0.0,0.0,0.0,0.0,0.0,0.0,0.0,0.0,0.0,0.0,0.0,0.0,0.0,0.0,0.0,0.0,0.0,-1.8302,-1.8457,-1.8548,-1.8548,-1.8041,-1.7785,-1.8293,-1.7785,-1.7618,-1.7618,-1.7457,-1.7205,-1.7205,-1.7578,-1.7935,-1.7935,-1.8264,0.0,0.0,-1.91,-1.9269,-1.925,-1.9032,-1.8947,-1.8928,-1.8739,-1.8673,-1.8673,0.0,0.0,0.0,0.0,0.0,0.0,0.0,0.0,0.0,0.0,0.0,0.0,0.0,0.0,0.0,0.0,0.0,0.0,0.0,0.0,0.0,0.0,0.0,0.0,0.0,0.0,0.0,0.0,0.0,0.0,0.0,0.0,0.0,0.0,0.0,0.0,0.0,0.0,0.0,0.0,0.0,0.0,0.0,0.0,0.0,0.0,0.0,0.0,0.0,0.0,0.0,0.0,-0.9589,-0.987,0.0,0.0,-1.3546,-1.3725,-1.5375,-1.5952,-1.6037,-1.5753,-1.5054,-1.4109,-1.2852,0.0,0.0,-1.0253,-1.0095,-1.0038,-1.0038,-1.013,-1.0423,0.0,-1.1264,0.0,0.0,0.0,0.0,0.0,0.0,0.0,0.0,0.0,0.0,0.0,0.0,0.0,-1.9015,-1.8978,-1.895,-1.895,-1.8707,-1.8661,-1.8838,-1.8661,-1.8661,-1.867,-1.8685,-1.8605,-1.8614,-1.8913,-1.9149,-1.9149,-1.9321,0.0,0.0,-1.9533,-1.9477,-1.9458,-1.925,-1.9089,-1.8966,-1.8881,-1.8777,-1.8673,0.0,0.0,0.0,0.0,0.0,0.0,0.0,0.0,0.0,0.0,0.0,0.0,0.0,0.0,0.0,0.0,0.0,0.0,0.0,0.0,0.0,0.0,0.0,0.0,0.0,0.0,0.0,0.0,0.0,0.0,0.0,0.0,0.0,0.0,0.0,0.0,0.0,0.0,0.0,0.0,0.0,0.0,0.0,0.0,0.0,0.0,0.0,0.0,0.0,0.0,0.0,0.0,0.0,0.0,0.0,0.0,-1.2687,-1.2815,-1.4716,-1.5432,-1.563,-1.5422,-1.4742,-1.3816,0.0,0.0,-1.0886,-1.0112,-1.0038,-1.0038,-1.0038,-1.013,-1.0338,0.0,-1.0858,-1.152,-1.2776,0.0,0.0,0.0,0.0,0.0,0.0,0.0,0.0,0.0,0.0,0.0,0.0,-1.9562,-1.9486,-1.9486,-1.942,-1.9382,-1.9382,-1.9382,-1.9382,-1.9392,-1.959,-1.9684,-1.9694,-1.9845,-1.9921,-1.9921,-1.9921,0.0,0.0,-1.976,-1.9694,-1.9675,-1.9467,-1.9297,-1.9146,-1.9023,-1.8881,-1.8758,0.0,0.0,0.0,0.0,0.0,0.0,0.0,0.0,0.0,0.0,0.0,0.0,0.0,0.0,0.0,0.0,0.0,0.0,0.0,0.0,0.0,0.0,0.0,0.0,0.0,0.0,0.0,0.0,0.0,0.0,0.0,0.0,0.0,0.0,0.0,0.0,0.0,0.0,0.0,0.0,0.0,0.0,0.0,0.0,0.0,0.0,0.0,0.0,0.0,0.0,0.0,0.0,0.0,0.0,0.0,0.0,-1.1755,-1.2319,-1.3899,-1.477,-1.5186,-1.4988,-1.4317,-1.3419,0.0,-1.1501,-1.0716,-1.0083,-1.0038,-1.0038,-1.0038,-1.013,-1.0338,-1.0537,-1.1104,-1.1954,-1.3211,0.0,0.0,0.0,0.0,0.0,0.0,0.0,0.0,0.0,0.0,0.0,0.0,-1.9911,-1.9911,-1.9911,-1.9703,-1.9599,-1.9599,-1.9599,-1.9599,-1.9599,-1.9817,-1.9921,-1.9921,-1.9921,-1.9921,0.0,0.0,0.0,0.0,-1.9921,-1.9921,-1.9892,-1.9675,-1.959,-1.9543,-1.9127,-1.8976,-1.8947,0.0,0.0,0.0,0.0,0.0,0.0,0.0,0.0,0.0,0.0,0.0,0.0,0.0,0.0,0.0,0.0,0.0,0.0,0.0,0.0,0.0,0.0,0.0,0.0,0.0,0.0,0.0,0.0,0.0,0.0,0.0,0.0,0.0,0.0,0.0,0.0,0.0,0.0,0.0,0.0,0.0,0.0,0.0,0.0,0.0,0.0,0.0,0.0,0.0,0.0,0.0,0.0,0.0,0.0,0.0,-0.9943,0.0,0.0,-1.2749,-1.3381,-1.3703,-1.3504,-1.3145,-1.2597,-1.1699,-1.1189,-1.0716,-1.0083,-1.0038,-1.0038,-1.0038,-1.013,-1.048,-1.1113,0.0,0.0,0.0,0.0,0.0,0.0,0.0,0.0,0.0,0.0,0.0,0.0,0.0,0.0,0.0,-1.9921,-1.9921,-1.9921,-1.9855,-1.9817,-1.9817,-1.9817,-1.9817,-1.9817,-1.9892,-1.9921,-1.9921,-1.9921,0.0,0.0,0.0,0.0,0.0,-1.9921,-1.9921,-1.9911,-1.9845,-1.9722,-1.9581,-1.9448,-1.9221,-1.8966,0.0,0.0,0.0,0.0,0.0,0.0,0.0,0.0,0.0,0.0,0.0,0.0,0.0,0.0,0.0,0.0,0.0,0.0,0.0,0.0,0.0,0.0,0.0,0.0,0.0,0.0,0.0,0.0,0.0,0.0,0.0,0.0,0.0,0.0,0.0,0.0,0.0,0.0,0.0,0.0,0.0,0.0,-1.0229,0.0,0.0,0.0,0.0,0.0,0.0,0.0,0.0,0.0,0.0,0.0,0.0,0.0,-1.0086,-1.1067,0.0,-1.2332,-1.2682,-1.2559,-1.2313,-1.1917,-1.1236,-1.0868,-1.0527,-1.0045,-1.0038,-1.0067,-1.0055,-1.0244,-1.0584,-1.1189,0.0,0.0,0.0,0.0,0.0,0.0,0.0,0.0,0.0,0.0,0.0,0.0,0.0,0.0,0.0,-1.9921,-1.9921,-1.9921,-1.9921,-1.9921,-1.9921,-1.9921,-1.9921,-1.9921,-1.9921,-1.9921,-1.9921,-1.9921,0.0,0.0,0.0,0.0,0.0,-1.9921,-1.9921,-1.9921,-1.9921,-1.9836,-1.9713,-1.9628,-1.9382,-1.9089,0.0,0.0,0.0,0.0,0.0,0.0,0.0,0.0,0.0,0.0,0.0,0.0,0.0,0.0,0.0,0.0,0.0,0.0,0.0,0.0,0.0,0.0,0.0,0.0,0.0,0.0,0.0,0.0,-1.2373,-1.2783,0.0,0.0,0.0,0.0,0.0,0.0,0.0,0.0,0.0,0.0,0.0,-1.0669,0.0,0.0,0.0,0.0,0.0,0.0,0.0,0.0,0.0,0.0,0.0,0.0,0.0,0.0,0.0,0.0,0.0,-1.151,-1.1983,-1.1964,-1.169,-1.1321,-1.0924,-1.0537,0.0,-1.0086,-1.0038,-1.0027,-1.0291,-1.0471,-1.0679,-1.1,0.0,0.0,0.0,0.0,0.0,0.0,0.0,0.0,0.0,0.0,0.0,0.0,0.0,0.0,0.0,-1.9921,-1.9921,-1.9921,-1.9921,-1.9921,-1.9921,-1.9921,-1.9921,-1.9921,-1.9921,-1.9921,-1.9921,-1.9921,0.0,0.0,0.0,0.0,0.0,-1.9921,-1.9921,-1.9921,-1.9921,-1.9921,-1.9892,-1.9694,-1.9495,-1.9288,0.0,0.0,0.0,0.0,0.0,0.0,0.0,0.0,0.0,0.0,0.0,0.0,0.0,0.0,0.0,0.0,0.0,0.0,0.0,0.0,0.0,0.0,0.0,0.0,0.0,0.0,0.0,0.0,-1.2928,-1.3326,-1.3519,-1.3459,0.0,0.0,0.0,0.0,0.0,0.0,0.0,0.0,-1.1031,-1.0968,0.0,0.0,0.0,0.0,-1.0148,-1.0289,0.0,0.0,0.0,0.0,0.0,0.0,0.0,0.0,-0.8921,-0.9195,-0.9048,0.0,-1.0423,-1.0272,-1.0405,-1.0499,0.0,-1.0225,-1.0216,0.0,0.0,0.0,0.0,0.0,0.0,0.0,0.0,0.0,0.0,0.0,0.0,0.0,0.0,0.0,0.0,0.0,0.0,0.0,0.0,0.0,0.0,-1.9921,-1.9921,-1.9921,-1.9921,-1.9921,-1.9921,-1.9921,-1.9921,-1.9921,-1.9921,-1.9921,-1.9921,-1.9921,0.0,0.0,0.0,0.0,-1.9921,-1.9921,-1.9921,-1.9921,-1.9921,-1.9921,-1.9911,-1.9864,-1.9713,-1.9524,0.0,0.0,0.0,0.0,0.0,0.0,0.0,0.0,0.0,0.0,0.0,0.0,0.0,0.0,0.0,0.0,0.0,0.0,0.0,0.0,0.0,0.0,0.0,0.0,0.0,0.0,0.0,0.0,0.0,-1.3519,0.0,0.0,0.0,0.0,0.0,0.0,0.0,0.0,0.0,0.0,-1.1105,0.0,0.0,0.0,0.0,0.0,-1.037,-1.0452,0.0,-1.1139,-1.0697,-1.0014,0.0,0.0,0.0,0.0,-0.8693,-0.8677,-0.8328,-0.9271,-1.0234,-1.0225,-1.0395,-1.0527,-1.0414,0.0,0.0,0.0,0.0,0.0,0.0,0.0,0.0,0.0,0.0,0.0,0.0,0.0,0.0,0.0,0.0,0.0,0.0,0.0,0.0,0.0,0.0,0.0,0.0,-1.9921,-1.9921,-1.9921,-1.9921,-1.9921,-1.9921,-1.9921,-1.9921,-1.9921,-1.9921,-1.9921,-1.9921,-1.9921,-1.9921,0.0,0.0,0.0,-1.9921,-1.9921,-1.9921,-1.9921,-1.9921,-1.9921,-1.9921,-1.9921,-1.9779,-1.9599,0.0,0.0,0.0,0.0,0.0,0.0,0.0,0.0,0.0,0.0,0.0,0.0,0.0,0.0,0.0,0.0,0.0,0.0,0.0,0.0,0.0,0.0,0.0,0.0,0.0,0.0,0.0,0.0,0.0,0.0,0.0,0.0,0.0,0.0,0.0,0.0,0.0,0.0,0.0,0.0,0.0,0.0,0.0,0.0,0.0,0.0,0.0,0.0,0.0,-1.1099,-1.0537,-0.9926,-1.0947,0.0,0.0,0.0,0.0,0.0,-0.815,-0.9331,-1.0529,-1.0745,-1.0849,-1.0924,0.0,0.0,0.0,0.0,0.0,0.0,0.0,0.0,0.0,0.0,0.0,0.0,0.0,0.0,0.0,0.0,0.0,0.0,0.0,0.0,0.0,0.0,0.0,0.0,0.0,-1.9921,-1.9921,-1.9921,-1.9921,-1.9921,-1.9921,-1.9921,-1.9921,-1.9921,-1.9921,-1.9921,-1.9921,-1.9921,-1.9921,-1.9921,0.0,0.0,-1.9921,-1.9921,-1.9921,-1.9921,-1.9921,-1.9921,-1.9921,-1.9921,-1.9807,-1.9637,0.0,0.0,0.0,0.0,0.0,0.0,0.0,0.0,0.0,0.0,0.0,0.0,0.0,0.0,0.0,0.0,0.0,0.0,0.0,0.0,0.0,0.0,0.0,0.0,0.0,0.0,0.0,0.0,0.0,0.0,0.0,0.0,0.0,0.0,0.0,0.0,0.0,0.0,0.0,0.0,0.0,0.0,0.0,0.0,0.0,0.0,0.0,0.0,0.0,-1.0003,-0.9442,-0.9165,-0.9948,0.0,0.0,0.0,0.0,0.0,-0.8344,-0.9194,-1.0075,-1.0129,-1.0631,-1.1057,0.0,0.0,0.0,0.0,0.0,0.0,0.0,0.0,0.0,0.0,0.0,0.0,0.0,0.0,0.0,0.0,0.0,0.0,0.0,0.0,0.0,0.0,0.0,0.0,0.0,0.0,-1.9921,-1.9921,-1.9921,-1.9921,-1.9921,-1.9921,-1.9921,-1.9921,-1.9921,-1.9921,-1.9921,-1.9921,-1.9921,-1.9921,0.0,-1.9921,-1.9921,-1.9921,-1.9921,-1.9921,-1.9921,-1.9921,-1.9921,-1.9921,-1.9902,-1.9845,0.0,0.0,0.0,0.0,0.0,0.0,0.0,0.0,0.0,0.0,0.0,0.0,0.0,0.0,0.0,0.0,0.0,0.0,0.0,0.0,0.0,0.0,0.0,0.0,0.0,0.0,0.0,0.0,0.0,0.0,0.0,0.0,0.0,-1.2674,0.0,0.0,0.0,0.0,0.0,0.0,0.0,0.0,0.0,0.0,0.0,0.0,0.0,0.0,0.0,0.0,-0.9862,-0.952,-0.9797,0.0,0.0,0.0,0.0,0.0,-0.7705,-0.8261,-0.8832,-0.9681,-1.0773,-1.1315,0.0,0.0,0.0,0.0,0.0,0.0,0.0,0.0,0.0,0.0,0.0,0.0,0.0,0.0,0.0,0.0,0.0,0.0,0.0,0.0,0.0,0.0,0.0,0.0,0.0,0.0,-1.9921,-1.9921,-1.9921,-1.9921,-1.9921,-1.9921,-1.9921,-1.9921,-1.9921,-1.9921,-1.9921,-1.9921,-1.9921,-1.9921,0.0,-1.9921,-1.9921,-1.9921,-1.9921,-1.9921,-1.9921,-1.9921,-1.9921,-1.9921,-1.9921,-1.9902,0.0,0.0,0.0,0.0,0.0,0.0,0.0,0.0,0.0,0.0,0.0,0.0,0.0,0.0,0.0,0.0,0.0,0.0,0.0,0.0,0.0,0.0,0.0,0.0,0.0,0.0,0.0,0.0,0.0,0.0,0.0,0.0,0.0,0.0,0.0,0.0,0.0,0.0,0.0,-1.0368,0.0,0.0,0.0,0.0,0.0,0.0,0.0,0.0,0.0,0.0,0.0,0.0,0.0,0.0,0.0,-0.711,-0.6507,-0.6185,-0.7202,-0.7437,-0.7753,0.0,0.0,0.0,0.0,0.0,0.0,0.0,0.0,0.0,0.0,0.0,0.0,0.0,0.0,0.0,0.0,0.0,0.0,0.0,0.0,0.0,0.0,0.0,0.0,0.0,0.0,0.0,0.0,0.0,-1.9921,-1.9921,-1.9921,-1.9921,-1.9921,-1.9921,-1.9921,-1.9921,-1.9921,-1.9921,-1.9921,-1.9921,-1.9921,-1.9921,-1.9921,-1.9921,-1.9921,-1.9921,-1.9921,-1.9921,-1.9921,-1.9921,-1.9921,-1.9921,-1.9921,-1.9921,0.0,0.0,0.0,0.0,0.0,0.0,0.0,0.0,0.0,0.0,0.0,0.0,0.0,0.0,0.0,0.0,0.0,0.0,0.0,0.0,0.0,0.0,0.0,0.0,0.0,0.0,0.0,0.0,0.0,0.0,0.0,0.0,0.0,0.0,0.0,0.0,0.0,0.0,0.0,0.0,-0.9916,0.0,0.0,0.0,0.0,0.0,0.0,0.0,0.0,0.0,0.0,0.0,0.0,0.0,-0.7422,-0.7081,-0.6577,-0.6351,-0.7285,-0.7367,-0.7445,-0.8309,0.0,0.0,0.0,0.0,0.0,0.0,0.0,0.0,0.0,0.0,0.0,0.0,0.0,0.0,0.0,0.0,0.0,0.0,0.0,0.0,0.0,0.0,0.0,0.0,0.0,0.0,0.0,0.0,0.0,-1.9921,-1.9921,-1.9921,-1.9921,-1.9921,-1.9921,-1.9921,-1.9921,-1.9921,-1.9921,-1.9921,-1.9921,-1.9921,-1.9921,-1.9921,-1.9921,-1.9921,-1.9921,-1.9921,-1.9921,-1.9921,-1.9921,-1.9921,-1.9921,-1.9921,0.0,0.0,0.0,0.0,0.0,0.0,0.0,0.0,0.0,0.0,0.0,0.0,0.0,0.0,0.0,0.0,0.0,0.0,0.0,0.0,0.0,0.0,0.0,0.0,0.0,0.0,0.0,0.0,0.0,0.0,0.0,0.0,0.0,0.0,0.0,0.0,0.0,0.0,0.0,0.0,-0.9601,-0.9723,0.0,0.0,0.0,0.0,0.0,0.0,0.0,0.0,-0.8725,0.0,0.0,0.0,0.0,0.0,-0.5827,-0.5653,-0.6544,-0.6771,-0.6854,0.0,0.0,0.0,0.0,0.0,0.0,0.0,0.0,0.0,0.0,0.0,0.0,0.0,0.0,0.0,0.0,0.0,0.0,0.0,0.0,0.0,0.0,0.0,0.0,0.0,0.0,0.0,0.0,0.0,0.0,-1.9911,-1.9921,-1.9921,-1.9921,-1.9921,-1.9921,-1.9921,-1.9921,-1.9921,-1.9921,-1.9921,-1.9921,-1.9921,-1.9921,-1.9921,-1.9921,-1.9921,-1.9921,-1.9921,-1.9921,-1.9921,-1.9921,-1.9921,-1.9921,-1.9921,0.0,0.0,0.0,0.0,0.0,0.0,0.0,0.0,0.0,0.0,0.0,0.0,0.0,0.0,0.0,0.0,0.0,0.0,0.0,0.0,0.0,0.0,0.0,0.0,0.0,0.0,0.0,0.0,0.0,0.0,0.0,0.0,0.0,0.0,0.0,0.0,0.0,0.0,0.0,0.0,-0.9143,-0.9329,0.0,0.0,0.0,0.0,0.0,0.0,0.0,0.0,-0.8195,0.0,0.0,0.0,0.0,0.0,0.0,-0.5317,-0.6063,-0.6288,-0.6509,0.0,0.0,0.0,0.0,0.0,0.0,0.0,0.0,0.0,0.0,0.0,0.0,0.0,0.0,0.0,0.0,0.0,0.0,0.0,0.0,0.0,0.0,0.0,0.0,0.0,0.0,0.0,0.0,0.0,0.0,0.0,-1.9921,-1.9921,-1.9921,-1.9921,-1.9921,-1.9921,-1.9921,-1.9921,-1.9921,-1.9921,-1.9921,-1.9921,-1.9921,-1.9921,-1.9921,-1.9921,-1.9921,-1.9921,-1.9921,-1.9921,-1.9921,-1.9921,-1.9921,-1.9921,0.0,0.0,0.0,0.0,0.0,0.0,0.0,0.0,0.0,0.0,0.0,0.0,0.0,0.0,0.0,0.0,0.0,0.0,0.0,0.0,0.0,0.0,0.0,0.0,0.0,0.0,0.0,0.0,0.0,0.0,0.0,0.0,0.0,0.0,0.0,0.0,0.0,0.0,0.0,0.0,0.0,-0.8796,-0.8802,0.0,0.0,0.0,0.0,0.0,0.0,0.0,-0.7407,-0.696,0.0,0.0,0.0,0.0,-0.5527,-0.5605,-0.5839,-0.6165,0.0,0.0,0.0,0.0,0.0,0.0,0.0,0.0,0.0,0.0,0.0,0.0,0.0,0.0,0.0,0.0,0.0,0.0,0.0,0.0,0.0,0.0,0.0,0.0,0.0,0.0,0.0,0.0,0.0,0.0,0.0,0.0,-1.9911,-1.9921,-1.9921,-1.9921,-1.9921,-1.9921,-1.9921,-1.9921,-1.9921,-1.9921,-1.9921,-1.9921,-1.9921,-1.9921,-1.9921,-1.9921,-1.9921,-1.9921,-1.9921,-1.9921,-1.9921,-1.9921,-1.9921,-1.9921,0.0,0.0,0.0,0.0,0.0,0.0,0.0,0.0,0.0,0.0,0.0,0.0,0.0,0.0,0.0,0.0,0.0,0.0,0.0,0.0,0.0,0.0,0.0,0.0,0.0,0.0,0.0,0.0,0.0,0.0,0.0,0.0,0.0,0.0,0.0,0.0,0.0,0.0,0.0,0.0,0.0,-0.8893,-0.9125,0.0,0.0,0.0,0.0,0.0,0.0,0.0,0.0,0.0,0.0,0.0,0.0,0.0,-0.5583,-0.5779,-0.5681,0.0,0.0,0.0,0.0,0.0,0.0,0.0,0.0,0.0,0.0,0.0,0.0,0.0,0.0,0.0,0.0,0.0,0.0,0.0,0.0,0.0,0.0,0.0,0.0,0.0,0.0,0.0,0.0,0.0,0.0,0.0,0.0,0.0,-1.9618,-1.9694,-1.9694,-1.9845,-1.9921,-1.9921,-1.9921,-1.9921,-1.9921,-1.9921,-1.9921,-1.9921,-1.9921,-1.9921,-1.9921,-1.9921,-1.9921,-1.9921,-1.9921,-1.9921,-1.9921,-1.9921,-1.9921,-1.9921,0.0,0.0,0.0,0.0,0.0,0.0,0.0,0.0,0.0,0.0,0.0,0.0,0.0,0.0,0.0,0.0,0.0,0.0,0.0,0.0,0.0,0.0,0.0,0.0,0.0,0.0,0.0,0.0,0.0,0.0,0.0,0.0,0.0,0.0,0.0,0.0,0.0,0.0,0.0,0.0,0.0,-0.8628,-0.8599,0.0,0.0,0.0,0.0,0.0,0.0,0.0,0.0,0.0,0.0,0.0,0.0,0.0,-0.5631,-0.5996,-0.6094,0.0,0.0,0.0,0.0,0.0,0.0,0.0,0.0,0.0,0.0,0.0,0.0,0.0,0.0,0.0,0.0,0.0,0.0,0.0,0.0,0.0,0.0,0.0,0.0,0.0,0.0,0.0,0.0,0.0,0.0,0.0,0.0,0.0,-1.942,-1.9514,-1.9599,-1.9722,-1.9836,-1.9921,-1.9921,-1.9921,-1.9921,-1.9921,-1.9921,-1.9921,-1.9921,-1.9921,-1.9921,-1.9921,-1.9921,-1.9921,-1.9921,-1.9921,-1.9921,-1.9921,-1.9921,-1.9921,0.0,0.0,-0.6173,-0.6173,0.0,0.0,0.0,0.0,0.0,0.0,0.0,-0.6248,0.0,0.0,0.0,-0.6763,0.0,0.0,0.0,0.0,0.0,0.0,0.0,0.0,0.0,0.0,0.0,0.0,0.0,0.0,0.0,0.0,0.0,0.0,0.0,0.0,0.0,0.0,0.0,0.0,0.0,-0.8031,-0.7618,-0.6783,0.0,0.0,0.0,0.0,0.0,0.0,0.0,0.0,0.0,0.0,0.0,-0.5372,-0.5714,-0.6236,0.0,0.0,0.0,0.0,0.0,0.0,0.0,0.0,0.0,0.0,0.0,0.0,0.0,0.0,0.0,0.0,0.0,0.0,0.0,0.0,0.0,0.0,0.0,0.0,0.0,0.0,0.0,0.0,0.0,0.0,0.0,0.0,0.0,-1.924,-1.9259,-1.9363,-1.9571,-1.959,-1.9703,0.0,-1.9921,-1.9921,-1.9921,-1.9921,-1.9921,-1.9921,-1.9921,-1.9921,-1.9921,-1.9921,-1.9921,-1.9921,-1.9921,-1.9921,-1.9921,-1.9921,-1.9921,-1.9921,0.0,0.0,-0.6173,-0.6173,0.0,0.0,0.0,0.0,0.0,-0.6173,-0.6173,-0.6192,-0.6239,-0.6417,0.0,-0.6538,-0.6538,0.0,0.0,0.0,0.0,0.0,0.0,0.0,0.0,0.0,0.0,0.0,0.0,0.0,0.0,0.0,0.0,0.0,0.0,0.0,0.0,0.0,0.0,0.0,-0.7512,-0.7241,-0.6768,-0.6554,-0.6369,0.0,0.0,0.0,0.0,0.0,0.0,0.0,-0.4847,-0.5101,-0.5366,-0.5241,-0.5763,0.0,0.0,0.0,0.0,0.0,0.0,0.0,0.0,0.0,0.0,0.0,0.0,0.0,0.0,0.0,0.0,0.0,0.0,0.0,0.0,0.0,0.0,0.0,0.0,0.0,0.0,0.0,0.0,0.0,0.0,0.0,0.0,0.0,0.0,-1.8815,-1.8966,-1.9146,-1.9363,-1.9514,-1.9703,0.0,-1.9921,-1.9921,-1.9921,-1.9921,-1.9921,-1.9921,-1.9921,-1.9921,-1.9921,-1.9921,-1.9921,-1.9921,-1.9921,-1.9921,-1.9921,-1.9921,-1.9921,-1.9921,0.0,0.0,0.0,0.0,0.0,0.0,0.0,0.0,0.0,-0.6192,-0.6173,-0.6173,-0.6173,-0.6351,0.0,0.0,-0.6473,-0.6473,0.0,0.0,0.0,0.0,0.0,0.0,0.0,0.0,0.0,0.0,0.0,0.0,0.0,0.0,0.0,0.0,0.0,0.0,0.0,0.0,0.0,-0.6967,-0.6753,-0.6395,-0.5972,-0.5894,-0.561,-0.5277,-0.5218,0.0,0.0,0.0,0.0,0.0,0.0,0.0,-0.5132,-0.5241,-0.5665,-0.6187,0.0,0.0,0.0,0.0,0.0,0.0,0.0,0.0,0.0,0.0,0.0,0.0,0.0,0.0,0.0,0.0,0.0,0.0,0.0,0.0,0.0,0.0,0.0,0.0,0.0,0.0,0.0,0.0,0.0,0.0,0.0,-1.9089,-1.8928,-1.8825,-1.8825,-1.8985,-1.9297,-1.9401,-1.9609,-1.9921,-1.9921,-1.9921,-1.9921,-1.9921,-1.9921,-1.9921,-1.9921,-1.9921,-1.9921,-1.9921,-1.9921,-1.9921,-1.9921,-1.9921,-1.9921,-1.9921,-1.9921,-1.9921,0.0,0.0,0.0,0.0,0.0,0.0,0.0,0.0,0.0,-0.6201,-0.6173,-0.6173,-0.6173,-0.6323,-0.6426,0.0,0.0,0.0,-0.6426,0.0,0.0,0.0,0.0,0.0,0.0,0.0,0.0,0.0,0.0,0.0,0.0,0.0,0.0,0.0,0.0,0.0,0.0,0.0,0.0,-0.6359,-0.5937,-0.555,-0.5116,-0.4995,-0.4689,-0.424,-0.4478,-0.449,-0.4549,-0.4888,0.0,0.0,0.0,0.0,-0.4893,-0.5192,-0.5464,-0.5833,0.0,0.0,0.0,0.0,0.0,0.0,0.0,0.0,0.0,0.0,0.0,0.0,0.0,0.0,0.0,0.0,0.0,0.0,0.0,0.0,0.0,0.0,0.0,0.0,0.0,0.0,0.0,0.0,0.0,0.0,-1.9599,-1.9269,-1.9051,-1.8976,-1.8815,-1.8891,-1.924,-1.924,-1.9439,-1.9817,-1.9845,-1.9883,-1.9921,-1.9921,-1.9921,-1.9921,-1.9921,-1.9921,-1.9921,-1.9921,-1.9921,-1.9921,-1.9921,-1.9921,-1.9921,-1.9921,-1.9921,-1.9921,0.0,0.0,0.0,0.0,0.0,0.0,0.0,0.0,0.0,0.0,0.0,-0.6173,-0.6173,-0.6201,-0.622,-0.622,-0.622,-0.622,0.0,0.0,0.0,0.0,0.0,0.0,0.0,0.0,0.0,0.0,0.0,0.0,0.0,0.0,0.0,0.0,0.0,0.0,0.0,0.0,0.0,-0.5142,-0.4957,-0.4547,-0.4131,-0.4047,-0.4047,-0.4012,-0.4224,-0.4311,-0.4376,-0.4719,-0.4833,0.0,0.0,0.0,0.0,0.0,0.0,0.0,0.0,0.0,0.0,0.0,0.0,0.0,0.0,0.0,0.0,0.0,0.0,0.0,0.0,0.0,0.0,0.0,0.0,0.0,0.0,0.0,0.0,0.0,0.0,0.0,0.0,0.0,0.0,0.0,0.0,0.0,-1.9609,-1.9543,-1.9344,-1.8985,-1.8947,-1.8966,-1.9014,-1.9014,-1.9146,-1.9382,-1.9562,-1.9741,-1.9921,-1.9921,-1.9921,-1.9921,-1.9921,-1.9921,-1.9921,-1.9921,-1.9921,-1.9921,-1.9921,-1.9921,-1.9921,-1.9921,-1.9921,-1.9921,0.0,0.0,0.0,0.0,0.0,0.0,0.0,0.0,0.0,0.0,0.0,-0.6173,-0.6173,-0.6173,-0.6173,-0.6173,-0.6173,0.0,0.0,0.0,0.0,0.0,0.0,0.0,0.0,0.0,0.0,0.0,0.0,0.0,0.0,-0.7629,-0.7981,0.0,0.0,0.0,0.0,0.0,0.0,-0.4798,-0.4394,-0.4267,0.0,0.0,-0.4083,-0.4409,0.0,0.0,0.0,-0.4534,-0.4675,-0.473,-0.473,0.0,0.0,0.0,0.0,0.0,0.0,0.0,0.0,0.0,0.0,0.0,0.0,0.0,0.0,0.0,0.0,0.0,0.0,0.0,0.0,0.0,0.0,0.0,0.0,0.0,0.0,0.0,0.0,0.0,0.0,0.0,0.0,0.0,0.0,-1.9694,-1.9599,-1.9599,-1.9514,-1.9325,-1.9099,-1.9032,-1.9155,-1.9032,-1.9089,-1.9297,-1.9505,-1.9647,-1.9741,-1.9864,-1.9921,-1.9921,-1.9921,-1.9921,-1.9921,-1.9921,-1.9921,-1.9921,-1.9921,-1.9921,-1.9921,-1.9921,-1.9921,-1.9921,0.0,0.0,0.0,0.0,0.0,0.0,0.0,0.0,0.0,0.0,0.0,-0.6173,-0.6173,0.0,0.0,0.0,-0.6173,0.0,0.0,0.0,0.0,0.0,0.0,0.0,0.0,0.0,0.0,0.0,0.0,0.0,-0.7224,-0.691,-0.7318,0.0,-0.8004,0.0,0.0,0.0,0.0,-0.4743,-0.4256,-0.4327,-0.479,-0.4371,-0.4567,-0.4991,0.0,0.0,0.0,0.0,0.0,0.0,0.0,0.0,0.0,0.0,0.0,0.0,0.0,0.0,0.0,0.0,0.0,0.0,0.0,0.0,0.0,0.0,0.0,0.0,0.0,0.0,0.0,0.0,0.0,0.0,0.0,0.0,0.0,0.0,0.0,0.0,0.0,0.0,0.0,0.0,0.0,-1.9543,-1.9599,-1.9599,-1.9599,-1.9599,-1.9297,-1.9184,-1.9297,-1.9089,-1.9061,-1.9221,-1.942,-1.9543,-1.9609,-1.9817,-1.9921,-1.9921,-1.9921,-1.9921,-1.9921,-1.9921,-1.9921,-1.9921,-1.9921,-1.9921,-1.9921,-1.9563,-1.9388,-1.9388,0.0,0.0,0.0,0.0,0.0,0.0,0.0,0.0,0.0,0.0,0.0,-0.6173,-0.6173,-0.6173,-0.6173,-0.6173,-0.6173,0.0,0.0,0.0,0.0,0.0,0.0,0.0,0.0,0.0,0.0,0.0,0.0,0.0,-0.5824,-0.6388,-0.6929,-0.7232,-0.6857,-0.6299,-0.5609,0.0,0.0,0.0,-0.4731,-0.4697,-0.4876,-0.5213,-0.5551,-0.5638,0.0,0.0,0.0,0.0,0.0,0.0,0.0,0.0,0.0,0.0,0.0,0.0,0.0,0.0,0.0,0.0,0.0,0.0,0.0,0.0,0.0,0.0,0.0,0.0,0.0,0.0,0.0,0.0,0.0,0.0,0.0,0.0,0.0,0.0,0.0,0.0,0.0,0.0,0.0,0.0,0.0,-1.9401,-1.959,-1.9599,-1.9599,-1.9599,-1.9581,-1.9477,-1.9297,-1.9089,-1.8985,-1.8995,-1.9212,-1.941,-1.9609,-1.9817,-1.9921,-1.9921,-1.9921,-1.9921,-1.9921,-1.9921,-1.9921,-1.9921,-1.9921,-1.9921,-1.9746,-1.8331,-1.7981,-1.7805,0.0,0.0,0.0,0.0,0.0,0.0,0.0,0.0,0.0,0.0,0.0,0.0,0.0,-0.5563,-0.5344,-0.5344,0.0,0.0,0.0,0.0,0.0,0.0,0.0,0.0,0.0,0.0,0.0,0.0,0.0,-0.4443,-0.5159,-0.5521,-0.5908,-0.6252,-0.6426,-0.6361,-0.6083,-0.5409,0.0,0.0,0.0,0.0,0.0,0.0,-0.5964,-0.6469,0.0,0.0,0.0,0.0,0.0,0.0,-0.4798,-0.4637,-0.4431,-0.424,0.0,0.0,0.0,0.0,0.0,0.0,0.0,0.0,0.0,0.0,0.0,0.0,0.0,0.0,0.0,0.0,0.0,0.0,0.0,0.0,0.0,0.0,0.0,0.0,0.0,0.0,0.0,0.0,0.0,0.0,0.0,0.0,-1.9184,-1.9458,-1.9599,-1.9599,-1.9599,-1.9439,-1.9099,-1.9014,-1.891,-1.8787,-1.9136,-1.9335,-1.942,-1.976,-1.9921,-1.9921,-1.9921,-1.9921,-1.9921,-1.9921,-1.9921,-1.9921,-1.9921,-1.9388,-1.8506,-1.7981,-1.7271,-1.6393,0.0,0.0,0.0,-0.6072,0.0,-0.6128,-0.5867,0.0,0.0,0.0,0.0,0.0,0.0,0.0,0.0,0.0,0.0,0.0,0.0,0.0,0.0,0.0,0.0,0.0,0.0,0.0,0.0,0.0,0.0,0.0,0.0,0.0,-0.5284,-0.5681,-0.5871,0.0,0.0,0.0,0.0,-0.5605,0.0,0.0,-0.6486,0.0,-0.6752,0.0,0.0,0.0,0.0,0.0,0.0,0.0,0.0,-0.473,-0.4431,-0.4235,-0.4458,0.0,0.0,0.0,0.0,0.0,0.0,0.0,0.0,0.0,0.0,0.0,0.0,0.0,0.0,0.0,0.0,0.0,0.0,0.0,0.0,0.0,0.0,0.0,0.0,0.0,0.0,0.0,0.0,0.0,0.0,0.0,-1.8862,-1.9203,-1.9458,-1.959,-1.9666,-1.9533,-1.9184,-1.9117,-1.8976,-1.8777,-1.9061,-1.9231,-1.9306,-1.9656,-1.9855,-1.9921,-1.9921,-1.9921,-1.9921,-1.9921,-1.9921,-1.9921,-1.9388,-1.8681,-1.7622,-1.6745,-1.5866,-1.4985,-0.5822,-0.5689,-0.5579,-0.5579,-0.5321,-0.5115,-0.5115,0.0,0.0,0.0,0.0,0.0,0.0,0.0,0.0,0.0,0.0,0.0,0.0,0.0,0.0,0.0,0.0,0.0,0.0,0.0,0.0,0.0,0.0,0.0,0.0,0.0,-0.5067,0.0,-0.5165,-0.5469,-0.623,0.0,-0.6067,-0.6121,0.0,-0.6513,-0.6741,0.0,0.0,0.0,-0.7671,-0.754,0.0,0.0,0.0,0.0,0.0,-0.5056,-0.4463,-0.4344,-0.4485,0.0,0.0,0.0,0.0,0.0,0.0,0.0,0.0,0.0,0.0,0.0,0.0,0.0,0.0,0.0,0.0,0.0,0.0,0.0,0.0,0.0,0.0,0.0,0.0,0.0,0.0,0.0,0.0,0.0,0.0,-1.8428,-1.8645,-1.8853,-1.9155,-1.9571,-1.9798,-1.9807,-1.959,-1.9401,-1.9203,-1.8985,-1.8985,-1.9099,-1.9306,-1.9495,-1.9531,-1.9737,-1.9737,-1.9737,-1.9746,-1.9746,-1.9746,-1.9572,-1.8331,-1.763,-1.7271,-1.4632,-1.3571,-1.3394,-0.4827,-0.5325,-0.569,-0.5225,-0.5352,-0.5488,-0.5488,0.0,0.0,0.0,0.0,0.0,0.0,0.0,0.0,0.0,0.0,0.0,0.0,0.0,0.0,0.0,0.0,0.0,0.0,0.0,0.0,0.0,0.0,0.0,0.0,0.0,0.0,0.0,-0.4942,-0.5192,-0.5469,-0.5268,0.0,0.0,-0.6165,-0.6594,0.0,0.0,0.0,0.0,0.0,-0.8057,-0.7867,0.0,-0.7116,-0.6464,0.0,0.0,-0.4822,-0.4616,-0.4849,-0.5116,-0.4855,0.0,0.0,0.0,0.0,0.0,0.0,0.0,0.0,0.0,0.0,0.0,0.0,0.0,0.0,0.0,0.0,0.0,0.0,0.0,0.0,0.0,0.0,0.0,0.0,0.0,0.0,0.0,-1.7832,-1.7993,-1.821,-1.856,-1.8947,-1.9373,-1.9581,-1.959,-1.9382,-1.9467,-1.941,-1.9212,-1.9212,-1.8726,-1.7935,-1.7987,-1.7425,-1.6727,-1.6727,-1.68,-1.692,-1.7981,-1.7797,-1.6745,-1.6393,-1.569,-1.4632,-1.3925,-1.3046,-1.1982,-0.4439,-0.4956,-0.5287,-0.4996,-0.5148,-0.5288,0.0,0.0,0.0,0.0,0.0,0.0,0.0,0.0,0.0,0.0,0.0,0.0,0.0,0.0,0.0,0.0,0.0,0.0,0.0,0.0,0.0,0.0,0.0,0.0,0.0,0.0,0.0,0.0,0.0,-0.4692,-0.5018,0.0,0.0,0.0,-0.6453,0.0,0.0,-0.7807,-0.8111,0.0,0.0,0.0,-0.8258,-0.8138,-0.7589,0.0,0.0,-0.5616,-0.5328,-0.504,-0.5257,0.0,0.0,0.0,0.0,0.0,0.0,0.0,0.0,0.0,0.0,0.0,0.0,0.0,0.0,0.0,0.0,0.0,0.0,0.0,0.0,0.0,0.0,0.0,0.0,0.0,0.0,0.0,0.0,-1.7587,-1.7681,-1.7823,-1.804,-1.7962,-1.7955,-1.819,-1.8031,-1.7811,-1.7707,-1.7811,-1.7768,-1.7587,-1.7509,-1.7129,-1.6285,-1.6285,-1.6034,-1.5339,-1.5406,-1.514,-1.4885,-1.566,-1.5866,-1.569,-1.4985,-1.4278,-1.3571,-1.2869,-1.216,-1.1455,0.0,-0.4637,-0.4681,-0.4828,-0.4855,-0.4866,0.0,0.0,0.0,0.0,0.0,0.0,0.0,0.0,0.0,0.0,0.0,0.0,0.0,0.0,0.0,0.0,0.0,0.0,0.0,0.0,0.0,0.0,0.0,0.0,0.0,0.0,0.0,0.0,-0.3811,-0.4137,-0.4735,-0.4398,0.0,-0.5996,-0.685,-0.7274,0.0,0.0,-0.8405,0.0,-0.8552,-0.859,-0.8568,-0.8443,-0.7888,0.0,0.0,-0.6295,-0.5969,-0.56,-0.5741,0.0,-0.5735,-0.585,0.0,0.0,0.0,0.0,-0.6714,-0.6719,0.0,0.0,0.0,0.0,0.0,0.0,0.0,0.0,0.0,0.0,0.0,0.0,0.0,0.0,0.0,0.0,0.0,-1.7265,-1.7388,-1.7388,-1.7577,-1.7785,-1.8002,-1.7065,-1.6622,-1.6664,-1.5801,-1.5369,-1.5406,-1.5429,-1.5376,-1.525,-1.5063,-1.4806,-1.4806,-1.4769,-1.4843,-1.4827,-1.4995,-1.4381,-1.3191,-1.3337,-1.4102,-1.5161,-1.3925,-1.3394,-1.3217,-1.1982,-1.1455,-1.1455,-0.4649,-0.4626,-0.4605,-0.4925,-0.498,-0.5078,0.0,0.0,0.0,0.0,0.0,0.0,0.0,0.0,0.0,0.0,0.0,0.0,0.0,0.0,0.0,0.0,0.0,0.0,0.0,0.0,0.0,0.0,0.0,0.0,0.0,0.0,0.0,0.0,-0.3827,-0.4034,-0.4295,0.0,0.0,-0.6067,-0.6252,0.0,-0.7796,-0.8035,-0.8301,-0.8557,-0.8579,-0.859,-0.8557,0.0,-0.8095,-0.778,0.0,0.0,-0.6823,-0.6372,-0.6491,-0.6719,-0.6475,-0.6654,-0.6812,-0.6404,0.0,0.0,0.0,-0.623,0.0,0.0,0.0,0.0,0.0,0.0,0.0,0.0,0.0,0.0,0.0,0.0,0.0,0.0,0.0,0.0,0.0,-1.7048,-1.7161,-1.7161,-1.736,-1.7577,-1.7776,-1.6608,-1.6157,-1.6453,-1.5554,-1.4974,-1.5242,-1.5376,-1.5488,-1.5585,-1.5294,-1.4642,-1.3613,-1.3204,-1.2675,-1.1804,-1.1939,-1.1877,-1.1806,-1.1931,-1.1982,-1.2337,-1.1982,-1.1988,-1.181,-1.1632,-1.1455,-1.1455,-0.4698,-0.4703,-0.4855,-0.5219,-0.5333,0.0,0.0,0.0,0.0,0.0,0.0,0.0,0.0,0.0,0.0,0.0,0.0,0.0,0.0,0.0,0.0,0.0,0.0,0.0,0.0,0.0,0.0,0.0,0.0,0.0,0.0,0.0,0.0,0.0,0.0,0.0,0.0,0.0,-0.554,-0.6127,-0.6605,0.0,-0.7986,-0.8231,-0.8432,-0.859,-0.859,-0.859,-0.8552,-0.8318,-0.8155,0.0,0.0,-0.7426,-0.7355,0.0,-0.7062,-0.7198,-0.6953,-0.7018,-0.71,-0.6861,0.0,0.0,0.0,0.0,0.0,0.0,0.0,0.0,0.0,0.0,0.0,0.0,0.0,0.0,0.0,0.0,0.0,0.0,0.0,0.0,0.0,-1.5052,-1.5206,-1.53,-1.5328,-1.5472,-1.5557,-1.4656,-1.408,-1.4326,-1.3261,-1.2823,-1.3043,-1.3249,-1.332,-1.3255,-1.3184,-1.274,-1.1926,-1.179,-1.1432,-1.084,-1.102,-1.1134,-1.1199,-1.1384,-1.1455,-1.1455,-1.1455,-1.1455,-1.1455,-1.1455,-1.1455,-1.1455,-0.4675,-0.4828,-0.5061,-0.5415,0.0,0.0,0.0,0.0,0.0,0.0,0.0,0.0,0.0,0.0,0.0,0.0,0.0,0.0,0.0,0.0,0.0,0.0,0.0,-0.4208,0.0,0.0,0.0,0.0,0.0,0.0,0.0,0.0,0.0,0.0,0.0,0.0,0.0,0.0,0.0,-0.6431,0.0,-0.7649,-0.7894,-0.8323,-0.8486,-0.8492,-0.8562,-0.859,-0.8557,-0.8339,0.0,-0.8079,-0.7818,-0.7785,0.0,0.0,0.0,0.0,0.0,0.0,0.0,0.0,0.0,-0.6888,0.0,0.0,0.0,-0.6752,0.0,0.0,0.0,0.0,0.0,0.0,0.0,0.0,0.0,0.0,0.0,0.0,0.0,0.0,0.0,-1.2955,-1.3153,-1.3273,-1.3348,-1.3439,-1.3424,-1.2474,-1.2082,-1.225,-1.1184,-1.0715,-1.0884,-1.1074,-1.1107,-1.0987,-1.1041,-1.0976,-1.0808,-1.0759,-1.0737,-1.0748,-1.0971,-1.1079,-1.1118,-1.1335,-1.1433,-1.1455,-1.1455,-1.1455,-1.1455,-1.1455,-1.1455,-1.1455,-0.4751,-0.4751,-0.4806,-0.5165,0.0,0.0,0.0,0.0,0.0,0.0,0.0,0.0,0.0,0.0,0.0,0.0,0.0,0.0,-0.6111,0.0,0.0,0.0,-0.4659,-0.4529,-0.4746,0.0,0.0,0.0,0.0,0.0,0.0,0.0,-0.3892,-0.4153,-0.4458,0.0,0.0,0.0,-0.6404,0.0,-0.7475,-0.7355,0.0,-0.7856,-0.8117,-0.8155,-0.8475,-0.859,-0.8568,0.0,-0.8388,-0.8318,0.0,-0.8073,-0.8269,-0.7915,0.0,0.0,0.0,0.0,0.0,0.0,-0.7616,0.0,0.0,0.0,-0.6638,-0.6263,0.0,0.0,0.0,0.0,0.0,0.0,0.0,0.0,0.0,0.0,0.0,0.0,0.0,0.0,0.0,0.0,-1.2558,-1.3039,-1.2833,-1.294,-1.3386,-1.2381,-1.1831,-1.2101,-1.0878,-1.0422,-1.0753,-1.0786,-1.0944,-1.1232,-1.1036,-1.0982,-1.1052,-1.0835,-1.0737,-1.0742,-1.0884,-1.1003,-1.1112,-1.1243,-1.1357,-1.1455,-1.1455,-1.1455,-1.1455,-1.1455,-1.1455,-1.1455,-0.4594,-0.4697,-0.4849,-0.5137,0.0,0.0,0.0,0.0,0.0,0.0,0.0,0.0,0.0,0.0,0.0,0.0,0.0,-0.6741,0.0,0.0,0.0,-0.5409,-0.5067,-0.4904,-0.4942,0.0,0.0,0.0,-0.4159,0.0,0.0,0.0,-0.4311,-0.4751,-0.5045,0.0,-0.6377,0.0,0.0,0.0,0.0,0.0,0.0,-0.8013,-0.8361,-0.8383,-0.8535,-0.8633,-0.8666,0.0,-0.8416,0.0,0.0,0.0,0.0,0.0,0.0,0.0,0.0,0.0,0.0,0.0,0.0,0.0,-0.6844,0.0,-0.6594,0.0,0.0,0.0,0.0,0.0,0.0,0.0,0.0,0.0,0.0,0.0,0.0,0.0,0.0,0.0,0.0,0.0,0.0,0.0,0.0,-1.0435,-1.0919,-1.0637,-1.0609,-1.0861,-1.0482,-1.034,-1.0628,-1.0704,-1.0813,-1.096,-1.0933,-1.0911,-1.0889,-1.078,-1.0737,-1.0742,-1.0867,-1.0987,-1.1112,-1.1226,-1.1346,-1.1455,-1.1455,-1.1455,-1.1455,-1.1455,-1.1455,-1.1455,-0.4556,0.0,0.0,0.0,0.0,0.0,-0.6056,-0.6632,-0.698,0.0,0.0,0.0,-0.7703,-0.7665,0.0,0.0,0.0,-0.7383,0.0,0.0,-0.629,-0.6002,-0.5567,0.0,0.0,0.0,0.0,0.0,0.0,0.0,0.0,0.0,0.0,-0.5154,0.0,-0.6127,-0.6926,0.0,0.0,-0.7372,-0.7307,-0.7339,-0.7497,-0.8182,-0.8503,-0.859,-0.859,-0.8666,-0.8742,-0.8535,-0.8486,0.0,-0.8475,0.0,0.0,0.0,0.0,0.0,-0.8334,0.0,0.0,0.0,0.0,0.0,0.0,0.0,0.0,0.0,0.0,0.0,0.0,0.0,0.0,0.0,0.0,0.0,0.0,0.0,0.0,0.0,0.0,0.0,0.0,0.0,0.0,0.0,0.0,0.0,-0.9057,-0.9394,-0.9693,-0.996,-1.009,-1.0269,-1.0509,-1.0596,-1.0688,-1.0786,-1.0846,-1.084,-1.0786,-1.0753,-1.0737,-1.0742,-1.0829,-1.0938,-1.1063,-1.1177,-1.1297,-1.1411,-1.1444,-1.1455,-1.1455,-1.1455,-1.1455,-1.1455,-0.4779,-0.4828,0.0,0.0,0.0,0.0,-0.617,-0.6475,-0.6757,0.0,0.0,0.0,0.0,0.0,0.0,0.0,0.0,-0.8149,-0.8013,0.0,-0.6877,-0.7095,-0.6214,-0.5822,0.0,-0.5469,-0.5056,-0.4822,0.0,0.0,0.0,0.0,0.0,0.0,0.0,-0.6236,-0.6828,-0.7165,-0.772,-0.835,-0.8117,-0.8225,-0.8503,0.0,-0.8285,-0.859,-0.859,0.0,0.0,-0.8622,-0.866,0.0,0.0,0.0,0.0,0.0,0.0,0.0,0.0,0.0,0.0,-0.7703,0.0,0.0,0.0,0.0,-0.6904,0.0,0.0,0.0,0.0,0.0,0.0,0.0,0.0,0.0,0.0,0.0,0.0,0.0,0.0,0.0,0.0,0.0,0.0,0.0,0.0,0.0,-0.8905,-0.9188,-0.9476,-0.9829,-0.9965,-1.0144,-1.0389,-1.0394,-1.0574,-1.0911,-1.0797,-1.0802,-1.0911,-1.0791,-1.0737,-1.0737,-1.0742,-1.0813,-1.0933,-1.1058,-1.1177,-1.1291,-1.1411,-1.1455,-1.1455,-1.1455,-1.1455,-1.1455,0.0,0.0,0.0,0.0,0.0,0.0,-0.6274,-0.6855,0.0,0.0,0.0,0.0,0.0,0.0,-0.8764,0.0,0.0,-0.859,-0.8312,-0.7877,0.0,0.0,0.0,-0.6562,0.0,0.0,-0.5665,-0.5431,-0.5105,0.0,0.0,0.0,0.0,0.0,0.0,-0.6448,0.0,0.0,0.0,0.0,0.0,-0.8269,-0.8573,0.0,0.0,-0.86,-0.8677,-0.8785,0.0,-0.8938,-0.8921,-0.8899,-0.8938,-0.878,-0.8622,-0.878,-0.8769,0.0,0.0,0.0,-0.8796,-0.8155,0.0,0.0,0.0,0.0,0.0,0.0,0.0,0.0,0.0,0.0,0.0,0.0,0.0,0.0,0.0,0.0,0.0,0.0,0.0,0.0,0.0,0.0,0.0,0.0,0.0,0.0,0.0,-0.9046,-0.9394,-0.9601,-0.9878,-1.0101,-1.0264,-1.0346,-1.0487,-1.0677,-1.0721,-1.0759,-1.0797,-1.0753,-1.0737,-1.0737,-1.0737,-1.0808,-1.0922,-1.0965,-1.1096,-1.1275,-1.1319,-1.1384,-1.1455,-1.1455,-1.1455,-1.1455,-0.5442,0.0,0.0,0.0,0.0,0.0,0.0,0.0,0.0,0.0,-0.8405,0.0,-0.9041,0.0,-0.9057,0.0,-0.9171,-0.8959,-0.8693,-0.8367,0.0,-0.8024,-0.7519,0.0,0.0,0.0,-0.6246,-0.5926,0.0,-0.5442,0.0,0.0,0.0,0.0,0.0,0.0,0.0,0.0,-0.7845,0.0,0.0,-0.841,0.0,0.0,-0.8649,-0.8666,0.0,-0.8878,-0.903,-0.9106,-0.9111,-0.909,-0.9171,-0.9003,-0.8812,-0.897,-0.8932,-0.8851,-0.8932,-0.9008,0.0,-0.8426,-0.8182,0.0,-0.7258,0.0,0.0,0.0,0.0,0.0,0.0,0.0,0.0,0.0,0.0,0.0,0.0,0.0,0.0,0.0,0.0,0.0,0.0,0.0,-0.6812,-0.729,0.0,0.0,0.0,0.0,-0.9275,-0.9481,-0.9791,-1.0036,-1.0204,-1.028,-1.04,-1.0558,-1.0634,-1.0693,-1.0737,-1.0737,-1.0737,-1.0737,-1.0737,-1.078,-1.0857,-1.09,-1.1009,-1.115,-1.1194,-1.1286,-1.1395,-1.1438,-1.1455,-1.1455,0.0,0.0,0.0,0.0,-0.6067,0.0,0.0,0.0,-0.8312,0.0,-0.8818,-0.9057,-0.9296,-0.9323,-0.9416,-0.965,-0.9454,0.0,-0.916,-0.8715,0.0,0.0,-0.8057,-0.779,-0.7894,0.0,0.0,0.0,0.0,0.0,0.0,0.0,0.0,0.0,-0.6154,0.0,-0.7029,-0.7731,-0.8247,-0.859,-0.8595,-0.8666,-0.8769,-0.878,-0.8785,-0.8791,-0.8791,-0.8938,-0.9133,-0.9144,-0.9215,-0.9302,-0.9302,-0.9231,-0.9144,-0.9144,-0.9063,-0.897,-0.897,-0.897,-0.8883,-0.8541,0.0,0.0,0.0,0.0,-0.7796,0.0,0.0,0.0,0.0,0.0,0.0,0.0,0.0,0.0,0.0,0.0,0.0,0.0,0.0,0.0,0.0,0.0,-0.6475,-0.6942,-0.7089,0.0,0.0,0.0,-0.9101,-0.9465,-0.9709,-0.9954,-1.0193,-1.0199,-1.0318,-1.0547,-1.0552,-1.0617,-1.0737,-1.0737,-1.0737,-1.0737,-1.0737,-1.0737,-1.0742,-1.0862,-1.0916,-1.0933,-1.1052,-1.1177,-1.1297,-1.1411,-1.1455,-1.1455,-0.5926,-0.6214,-0.6507,0.0,-0.6448,-0.6622,0.0,0.0,0.0,0.0,-0.9068,-0.9307,-0.9546,-0.9574,-0.9601,-0.9666,-0.9612,0.0,0.0,0.0,0.0,-0.8992,-0.859,-0.8334,-0.828,-0.7687,-0.723,-0.6926,0.0,0.0,-0.5806,0.0,0.0,0.0,0.0,0.0,-0.7013,-0.7464,-0.8019,-0.8595,-0.8687,-0.8742,0.0,0.0,-0.8959,-0.9041,-0.9041,-0.9079,-0.915,-0.9231,-0.928,-0.9302,-0.9302,-0.9285,-0.9258,-0.9258,-0.9237,-0.9215,-0.9215,-0.9215,-0.9171,-0.8992,-0.8747,-0.8475,0.0,0.0,0.0,0.0,0.0,0.0,0.0,0.0,0.0,0.0,0.0,0.0,0.0,0.0,0.0,0.0,0.0,0.0,0.0,-0.6366,-0.6529,-0.6828,-0.704,0.0,0.0,0.0,0.0,-0.9334,-0.9666,-0.9911,-1.0063,-1.0161,-1.028,-1.0433,-1.0514,-1.0617,-1.0737,-1.0737,-1.0737,-1.0737,-1.0737,-1.0737,-1.0737,-1.077,-1.084,-1.0933,-1.1052,-1.1226,-1.1411,-1.1444,-1.1455,-1.1455,-0.6372,0.0,0.0,-0.7421,0.0,0.0,-0.8002,0.0,0.0,-0.9041,-0.9313,0.0,-0.9655,-0.9758,-0.9824,-0.9824,-0.9775,0.0,-0.9574,0.0,0.0,-0.9215,-0.9008,-0.8823,-0.8655,-0.8166,0.0,-0.7236,0.0,0.0,-0.5828,0.0,0.0,0.0,0.0,-0.6344,0.0,-0.7546,-0.8122,-0.86,-0.872,0.0,0.0,-0.9003,-0.9106,-0.9209,-0.9209,-0.9209,-0.922,-0.928,-0.9302,-0.9302,-0.9302,-0.9302,-0.9302,-0.9302,-0.9302,-0.9302,-0.9302,-0.9302,-0.9291,-0.9226,-0.9052,-0.8845,-0.8622,-0.8573,-0.8519,0.0,0.0,0.0,0.0,0.0,0.0,0.0,0.0,0.0,0.0,0.0,0.0,0.0,0.0,0.0,0.0,-0.6328,-0.6448,-0.6627,-0.6959,0.0,0.0,0.0,0.0,-0.9139,-0.9497,-0.9764,-0.9938,-1.0063,-1.0182,-1.0307,-1.0427,-1.0541,-1.0661,-1.0715,-1.0737,-1.0737,-1.0737,-1.0737,-1.0737,-1.0737,-1.0775,-1.0857,-1.1036,-1.1215,-1.1384,-1.1433,-1.1455,-1.1455,0.0,0.0,0.0,0.0,0.0,0.0,0.0,-0.8796,0.0,-0.9318,0.0,-0.9715,-0.9715,-0.99,-1.0019,-1.0019,0.0,-0.9813,-0.9699,-0.9693,-0.959,-0.9362,-0.9334,-0.9226,-0.9003,-0.8617,-0.8079,0.0,0.0,0.0,0.0,0.0,0.0,0.0,0.0,0.0,0.0,-0.779,-0.8367,0.0,-0.8747,-0.8932,-0.9133,-0.915,-0.922,-0.9302,-0.9302,-0.9302,-0.9302,-0.9302,-0.9302,-0.9302,-0.9302,-0.9302,-0.9302,-0.9302,-0.9302,-0.9302,-0.9302,-0.9302,-0.9302,-0.9302,-0.9302,-0.922,-0.891,-0.884,-0.8807,-0.8704,-0.8492,-0.8421,0.0,0.0,0.0,0.0,0.0,0.0,0.0,0.0,0.0,0.0,0.0,0.0,0.0,-0.6317,-0.635,-0.6431,0.0,0.0,0.0,0.0,0.0,-0.8943,-0.9302,-0.9601,-0.9835,0.0,-1.0085,-1.0204,-1.0329,-1.0443,-1.0558,-1.0683,-1.0737,-1.0737,-1.0737,-1.0737,-1.0737,-1.0737,-1.0748,-1.078,-1.1014,-1.1172,-1.1286,-1.1411,-1.1455,-1.1455,0.0,0.0,0.0,0.0,0.0,-0.8644,-0.9247,-0.9188,-0.9226,-0.9563,-0.9813,-0.996,-0.996,-0.9998,-1.0019,-1.0019,-1.0003,0.0,0.0,0.0,0.0,-0.9612,-0.9508,-0.9389,-0.9242,-0.8698,-0.816,0.0,-0.6997,-0.6355,0.0,0.0,0.0,0.0,0.0,0.0,-0.7394,-0.7877,0.0,-0.8747,-0.8872,-0.9008,-0.9144,-0.9237,-0.9285,-0.9302,-0.9302,-0.9302,-0.9302,-0.9302,-0.9302,-0.9302,-0.9302,-0.9302,-0.9302,-0.9302,-0.9302,-0.9302,-0.9302,-0.9302,-0.9302,-0.9302,-0.9302,-0.9285,-0.9226,-0.9209,-0.9204,-0.9182,-0.8992,-0.8812,-0.878,0.0,0.0,0.0,0.0,0.0,0.0,0.0,0.0,0.0,0.0,0.0,0.0,0.0,-0.6524,0.0,0.0,0.0,0.0,0.0,0.0,0.0,-0.9302,0.0,0.0,0.0,-1.0085,-1.0204,-1.0329,-1.0443,-1.0558,-1.0683,-1.0737,-1.0737,-1.0737,-1.0737,-1.0737,-1.0737,-1.0797,-1.09,-1.1047,-1.1172,-1.1286,-1.1411,-1.1455,-1.1455,0.0,0.0,0.0,0.0,0.0,0.0,0.0,-0.855,0.0,-0.9845,-0.9894,-0.9927,-0.9927,-0.9981,-1.0019,-1.0019,-1.0019,-0.9998,-0.9949,-0.9949,-0.99,-0.9791,-0.9731,0.0,-0.934,-0.9071,-0.8552,-0.7928,-0.7091,-0.6465,0.0,0.0,0.0,0.0,0.0,-0.6855,0.0,0.0,0.0,-0.8785,-0.897,-0.9117,-0.9226,-0.928,-0.9302,-0.9302,-0.9302,-0.9302,-0.9302,-0.9302,-0.9302,-0.9302,-0.9302,-0.9302,-0.9302,-0.9302,-0.9302,-0.9302,-0.9302,-0.9302,-0.9302,-0.9302,-0.9302,-0.9302,-0.9302,-0.9302,-0.9285,-0.9226,-0.9128,-0.8954,-0.8644,-0.8193,0.0,0.0,0.0,0.0,0.0,0.0,0.0,0.0,0.0,0.0,0.0,0.0,0.0,0.0,0.0,0.0,0.0,0.0,0.0,0.0,0.0,0.0,0.0,0.0,0.0,-1.0112,-1.0297,-1.0416,-1.0476,-1.0655,-1.0737,-1.0737,-1.0737,-1.0737,-1.0737,-1.0737,-1.0808,-1.0933,-1.1052,-1.1172,-1.1286,-1.1411,-1.1455,-1.1455,0.0,-0.8916,0.0,0.0,-0.884,0.0,-0.5799,-0.8344,-1.0351,-1.0134,-1.0014,-0.9954,-0.9954,-1.0019,-1.0063,-1.0063,-1.0041,-1.0036,-1.0052,-0.9261,-0.891,-0.8992,-0.8967,-0.8834,-0.843,-0.8336,-0.8048,0.0,-0.7189,0.0,0.0,0.0,-0.6051,-0.5888,0.0,0.0,0.0,0.0,-0.8606,-0.8867,-0.9057,-0.9204,-0.9302,-0.9302,-0.9302,-0.9302,-0.9302,-0.9302,-0.9302,-0.9302,-0.9302,-0.9302,-0.9302,-0.9302,-0.9302,-0.9302,-0.9302,-0.9302,-0.9302,-0.9302,-0.9302,-0.9302,-0.9302,-0.9302,-0.9302,-0.9285,-0.9242,-0.9155,-0.9111,-0.8948,-0.8465,-0.8204,0.0,0.0,0.0,0.0,0.0,0.0,0.0,0.0,0.0,0.0,0.0,0.0,0.0,0.0,0.0,0.0,0.0,0.0,0.0,0.0,0.0,-0.9209,-0.9449,0.0,-0.9992,-1.0025,-1.0242,-1.0362,-1.0394,-1.0601,-1.071,-1.0737,-1.0737,-1.0737,-1.0737,-1.0737,-1.0791,-1.0895,-1.1047,-1.1156,-1.1253,-1.14,-1.1455,-1.1455,0.0,0.0,0.0,0.0,0.0,0.0,0.0,-1.0087,-1.0683,-1.0394,-1.0351,-1.0335,-1.0335,-1.0248,-1.0193,-1.021,-1.0112,-1.0052,-1.0074,-0.7217,-0.5483,-0.5477,-0.5417,-0.5379,-0.5361,-0.5173,-0.5085,0.0,0.0,-0.7182,0.0,0.0,-0.6562,-0.6866,0.0,0.0,0.0,-0.8454,-0.8774,-0.9101,-0.9122,-0.9204,-0.9302,-0.9302,-0.9302,-0.9302,-0.9302,-0.9302,-0.9302,-0.9302,-0.9302,-0.9302,-0.9302,-0.9302,-0.9302,-0.9302,-0.9302,-0.9302,-0.9302,-0.9302,-0.9302,-0.9302,-0.9302,-0.9302,-0.9302,-0.9226,-0.915,-0.9139,-0.9046,-0.8823,-0.8339,-0.8492,-0.8508,0.0,0.0,0.0,0.0,0.0,-0.7627,-0.747,0.0,0.0,0.0,0.0,0.0,0.0,0.0,0.0,0.0,0.0,0.0,-0.8394,0.0,-0.9084,-0.9318,-0.9677,-0.9911,-1.0019,-1.0155,-1.028,-1.0389,-1.0514,-1.0634,-1.0737,-1.0737,-1.0737,-1.0737,-1.0737,-1.0742,-1.0775,-1.1009,-1.1112,-1.1145,-1.1373,-1.1455,-1.1455,0.0,0.0,0.0,0.0,0.0,0.0,0.0,-1.0628,-1.0666,-1.0645,-1.0552,-1.0492,-1.0503,-1.04,-1.0174,-1.0185,-0.8145,-0.7773,-0.9871,-0.8688,-0.6281,-0.2196,-0.2029,-0.2017,-0.2003,-0.1961,-0.2763,0.0,0.0,0.0,0.0,0.0,0.0,0.0,0.0,-0.8204,-0.847,-0.878,-0.8997,-0.9139,-0.9209,-0.9264,-0.9302,-0.9302,-0.9302,-0.9302,-0.9302,-0.9302,-0.9302,-0.9302,-0.9302,-0.9302,-0.9302,-0.9302,-0.9302,-0.9302,-0.9302,-0.9302,-0.9302,-0.9302,-0.9302,-0.9302,-0.9302,-0.9302,-0.9302,-0.9215,-0.9111,-0.9041,-0.8867,-0.8677,-0.8481,-0.8448,-0.8416,0.0,0.0,0.0,0.0,0.0,0.0,-0.7437,0.0,-0.6883,0.0,0.0,0.0,0.0,0.0,-0.6491,-0.7095,0.0,0.0,-0.8073,0.0,-0.9106,-0.9198,-0.9699,-0.997,-1.0019,-1.0144,-1.0269,-1.0389,-1.0503,-1.0623,-1.0737,-1.0737,-1.0737,-1.0737,-1.0737,-1.0737,-1.0753,-1.0927,-1.0992,-1.102,-1.1259,-1.1346,-1.1357,-0.9976,0.0,-0.9955,0.0,-1.0271,-1.046,-1.0581,-1.0764,-1.0753,-1.0618,-0.9682,-0.9453,-1.0474,-0.9544,-0.9154,-1.0156,-0.7927,-0.6588,-0.708,-0.7027,-0.4915,-0.0158,-0.0,0.0,-0.0,-0.0,-0.1046,-0.3013,-0.4824,0.0,0.0,-0.7845,0.0,0.0,-0.853,-0.8742,-0.8872,-0.9166,-0.9291,-0.9302,-0.9378,-0.941,-0.941,-0.941,-0.941,-0.941,-0.941,-0.941,-0.941,-0.941,-0.941,-0.94,-0.9329,-0.9302,-0.9302,-0.9302,-0.9302,-0.9302,-0.9302,-0.9302,-0.9302,-0.9302,-0.9302,-0.9302,-0.9302,-0.9188,-0.9035,-0.8878,-0.8709,-0.859,-0.859,-0.8448,-0.8372,-0.847,0.0,0.0,0.0,-0.7981,0.0,0.0,-0.7095,-0.691,-0.6861,0.0,0.0,0.0,0.0,-0.6649,-0.7214,0.0,0.0,0.0,0.0,0.0,0.0,-0.9704,-0.9987,-1.0019,-1.0106,-1.0231,-1.0394,-1.0541,-1.0655,-1.0737,-1.0737,-1.0737,-1.0737,-1.0737,-1.0737,-1.0748,-1.0873,-1.0922,-1.0949,-1.1183,-1.127,-1.1291,-1.0196,-1.0394,-1.0465,-1.0742,-1.0753,-1.0742,-1.0618,-1.0775,-1.077,-1.0624,-0.7566,-0.6717,-1.0278,-0.7485,-0.6941,-1.0463,-1.0193,-0.7166,-0.0488,-0.0163,-0.0162,0.0,0.0,-0.0,-0.0,-0.0,-0.0,-0.0,0.0,0.0,-0.8901,-0.8481,-0.8595,-0.8948,-0.9188,-0.9362,-0.9487,-0.9612,-0.9661,-0.9661,-0.9666,-0.9666,-0.9666,-0.9666,-0.9666,-0.9666,-0.9666,-0.9666,-0.9666,-0.9666,-0.9666,-0.9622,-0.9378,-0.9302,-0.9302,-0.9302,-0.9302,-0.9302,-0.9302,-0.9302,-0.9302,-0.9302,-0.9302,-0.9302,-0.9302,-0.9122,-0.8883,-0.8644,-0.859,-0.859,-0.859,-0.8584,-0.8508,-0.828,0.0,0.0,0.0,0.0,0.0,-0.7377,-0.7018,-0.685,-0.697,0.0,0.0,0.0,0.0,0.0,-0.7834,0.0,0.0,-0.8552,-0.8823,0.0,-0.9302,-0.9661,-0.99,-1.0019,-1.0019,-1.015,-1.0394,-1.0628,-1.0737,-1.0737,-1.0737,-1.0737,-1.0737,-1.0737,-1.0737,-1.0748,-1.0873,-1.0922,-1.0949,-1.1183,-1.127,-1.1291,-1.0485,-1.0655,-1.0672,-1.0608,-1.077,-1.0764,-1.0618,-0.8575,-0.7901,-1.0299,-0.9785,-0.945,-1.0656,-0.9761,-0.7543,0.0,-0.3316,-0.2305,0.0,-0.0,-0.0,-0.0,-0.0,-0.0,-0.0,-0.0,-0.0,-0.0,0.0,0.0,0.0,-0.9024,-0.9093,-0.934,-0.9497,-0.9584,-0.9612,-0.9655,-0.9671,-0.9671,-0.9671,-0.9671,-0.9671,-0.9671,-0.9671,-0.9671,-0.9671,-0.9671,-0.9671,-0.9671,-0.9671,-0.9655,-0.9579,-0.9497,-0.941,-0.9329,-0.9302,-0.9302,-0.9302,-0.9302,-0.9302,-0.9302,-0.9302,-0.9302,-0.9302,-0.9122,-0.8905,-0.8747,-0.8644,-0.859,-0.859,-0.859,-0.8562,-0.8486,-0.8475,0.0,0.0,0.0,-0.7801,-0.7606,-0.7486,-0.7399,0.0,-0.7355,0.0,0.0,0.0,0.0,0.0,0.0,0.0,0.0,-0.8976,0.0,-0.9302,-0.9742,-0.9981,-1.0019,-1.0019,-1.015,-1.0394,-1.0541,-1.0661,-1.0737,-1.0737,-1.0737,-1.0737,-1.0737,-1.0737,-1.0742,-1.078,-1.0797,-1.0813,-1.0971,-1.1031,-1.1063,-0.9249,-1.0095,-1.0775,-1.078,-0.9588,-0.9082,-1.0461,-0.876,-0.8252,-1.0488,-1.0661,-0.9637,-0.6923,-0.6748,0.0,-0.0337,-0.0,-0.0,-0.0,-0.0,-0.0,-0.0,-0.0,-0.0,-0.0,0.0,0.0,-0.0,-0.0,-0.1967,-0.5547,-0.7373,-0.8304,-0.8493,-0.9471,-0.9807,-0.9802,-0.9802,-0.9802,-0.9802,-0.9802,-0.9802,-0.9802,-0.9802,-0.9802,-0.9802,-0.9802,-0.9802,-0.9802,-0.9802,-0.9802,-0.9791,-0.9748,-0.9682,-0.9595,-0.9476,-0.9443,-0.9432,-0.9383,-0.9372,-0.9362,-0.9313,-0.9302,-0.9291,-0.9253,-0.909,-0.8916,-0.8796,-0.8671,-0.859,-0.859,-0.859,-0.859,-0.859,-0.8492,-0.8378,-0.8253,0.0,-0.7828,0.0,0.0,0.0,0.0,-0.7736,0.0,0.0,0.0,0.0,0.0,0.0,0.0,-0.8497,-0.9144,0.0,-0.9443,-0.9829,-1.0019,-1.0019,-1.0068,-1.0193,-1.0389,-1.0503,-1.0623,-1.0737,-1.0737,-1.0737,-1.0737,-1.0737,-1.0737,-1.0737,-1.0737,-1.0737,-1.0753,-1.0873,-1.0922,-1.0949,-0.6536,-0.891,0.0,0.0,-0.7897,0.0,-0.9454,-0.9968,-0.9973,-0.9988,-0.9993,-0.7432,-0.0674,-0.0,-0.0,-0.0,0.0,0.0,0.0,-0.0,-0.0,-0.0,-0.0,-0.0,-0.0,-0.0,-0.0,-0.0,-0.0,-0.0,-0.0157,-0.4022,-0.6344,-0.7041,-0.908,-1.0025,-1.0019,-1.0019,-1.0019,-1.0019,-1.0019,-1.0019,-1.0019,-1.0019,-1.0019,-1.0019,-1.0019,-1.0019,-1.0019,-1.0019,-1.0019,-1.0003,-0.9889,-0.9851,-0.9824,-0.9704,-0.9671,-0.9644,-0.953,-0.9497,-0.947,-0.9345,-0.9307,-0.9275,-0.9171,-0.9052,-0.8927,-0.8807,-0.8687,-0.8595,-0.859,-0.859,-0.8584,-0.8579,-0.8481,-0.8361,-0.8242,-0.8024,-0.7845,0.0,0.0,0.0,0.0,-0.7954,-0.8127,0.0,0.0,0.0,0.0,0.0,-0.8372,-0.8932,-0.9307,-0.9552,-0.9666,-0.99,-1.0019,-1.0019,-1.0134,-1.0259,-1.0389,-1.0498,-1.0612,-1.0737,-1.0737,-1.0737,-1.0737,-1.0737,-1.0737,-1.0737,-1.0737,-1.0737,-1.0753,-1.0862,-1.0905,-1.0922,0.0,0.0,-1.0645,-1.064,-0.9958,-0.7925,-0.3199,-0.2525,-0.2525,-0.2527,-0.2527,-0.1853,-0.0168,-0.0,-0.0,-0.0,-0.0,-0.0,-0.0,-0.0,-0.0,-0.0,-0.0,-0.0,-0.0,-0.0,-0.0,-0.0,-0.0,-0.0,-0.0,-0.1099,-0.4222,-0.9271,-0.9745,-1.0047,-1.0019,-1.0019,-1.0019,-1.0019,-1.0019,-1.0019,-1.0019,-1.0019,-1.0019,-1.0019,-1.0019,-1.0019,-1.0019,-1.0019,-1.0019,-1.0014,-0.9987,-0.9976,-0.9938,-0.9731,-0.9671,-0.9661,-0.9633,-0.9628,-0.9595,-0.9476,-0.9372,-0.9296,-0.9269,-0.9177,-0.9057,-0.8932,-0.8812,-0.8698,-0.8606,-0.859,-0.8557,-0.847,-0.8356,-0.8236,-0.8111,-0.8046,0.0,0.0,-0.8133,-0.8209,-0.8117,-0.8323,-0.8361,0.0,0.0,0.0,0.0,-0.8638,-0.8802,-0.8948,-0.9389,-0.9639,-0.9671,-0.99,-1.0019,-1.0019,-1.0052,-1.0177,-1.0389,-1.0416,-1.0541,-1.0737,-1.0737,-1.0737,-1.0737,-1.0737,-1.0737,-1.0737,-1.0737,-1.0737,-1.0737,-1.077,-1.078,-1.0797,-0.0336,-0.3195,-0.6913,-1.0136,-0.7929,-0.4549,-0.0674,-0.0,-0.0,-0.0,-0.0,-0.0,-0.0,-0.0,-0.0,-0.0,-0.0,-0.0,-0.0,-0.0,-0.0,-0.0,-0.0,-0.0,-0.0,-0.0,-0.0,-0.0,-0.0,-0.0,-0.0,-0.0,-0.1897,-0.5534,-0.8669,-1.0057,-1.003,-1.003,-1.003,-1.0019,-1.0019,-1.0019,-1.0019,-1.0019,-1.0019,-1.0019,-1.0019,-1.0019,-1.0019,-1.0019,-1.0019,-1.0019,-1.0019,-1.0019,-0.9998,-0.9867,-0.9829,-0.9818,-0.9764,-0.9748,-0.9704,-0.953,-0.9438,-0.9372,-0.9318,-0.9215,-0.9117,-0.9046,-0.8894,-0.8753,-0.8682,-0.8628,-0.8552,-0.8437,-0.8361,-0.8274,-0.8155,-0.8138,0.0,-0.8214,-0.8383,-0.8492,-0.8481,-0.8644,-0.8671,-0.8481,-0.8698,0.0,-0.8666,-0.8948,-0.9111,-0.9111,-0.9476,-0.9693,-0.9748,-0.9927,-1.0019,-1.0019,-1.0019,-1.015,-1.0384,-1.0384,-1.0514,-1.0737,-1.0737,-1.0737,-1.0737,-1.0737,-1.0737,-1.0737,-1.0737,-1.0737,-1.0737,-1.0737,-1.0737,-1.0748,-0.0168,-0.0,-0.1852,-0.8097,-0.4042,-0.0,-0.0,-0.0,-0.0,-0.0,-0.0,-0.0,-0.0,-0.0,-0.0,-0.0,-0.0,-0.0,-0.0,-0.0,-0.0,-0.0,-0.0,-0.0,-0.0,-0.0,-0.0,-0.0,-0.0,-0.0,-0.0,-0.0,-0.0,-0.0319,-0.6004,-0.8812,-0.9573,-0.9891,-1.0036,-1.0019,-1.0019,-1.0019,-1.0019,-1.0019,-1.0019,-1.0019,-1.0019,-1.0019,-1.0019,-1.0019,-1.0019,-1.0019,-1.0019,-1.0019,-1.0019,-1.0019,-1.0019,-0.9998,-0.9894,-0.9851,-0.9791,-0.959,-0.9514,-0.9459,-0.9356,-0.9242,-0.9155,-0.9139,-0.8954,-0.8791,-0.8774,-0.8671,-0.8546,-0.841,-0.8405,-0.8367,-0.8225,0.0,-0.8307,-0.8432,-0.8546,-0.8666,-0.8785,-0.8894,-0.8959,-0.8976,-0.9073,-0.9095,-0.9008,-0.9193,-0.9318,-0.9356,-0.9563,-0.9731,-0.9862,-0.997,-1.0019,-1.0019,-1.0019,-1.015,-1.0384,-1.0384,-1.0514,-1.0737,-1.0737,-1.0737,-1.0737,-1.0737,-1.0737,-1.0737,-1.0737,-1.0737,-1.0737,-1.0737,-1.0737,-1.0737,-0.0673,-0.0,-0.0337,-0.1515,-0.0674,-0.0,-0.0,-0.0,-0.0,-0.0,-0.0,-0.0,-0.0,-0.0,-0.0,-0.0,-0.0,-0.0,-0.0,-0.0,-0.0,-0.0,-0.0,-0.0,-0.0,-0.0,-0.0,-0.0,-0.0,-0.0,-0.0,-0.0,-0.0,-0.0,-0.1114,-0.3634,-0.7357,-0.9256,-1.0036,-1.0019,-1.0019,-1.0019,-1.0019,-1.0019,-1.0019,-1.0019,-1.0019,-1.0019,-1.0019,-1.0019,-1.0019,-1.0019,-1.0019,-1.0019,-1.0019,-1.0019,-1.0019,-1.0014,-0.9998,-0.9916,-0.9829,-0.9791,-0.9633,-0.9481,-0.9465,-0.9362,-0.9253,-0.9155,-0.9024,-0.8894,-0.8791,-0.8671,-0.8519,-0.8296,-0.835,-0.8339,-0.8117,0.0,-0.8432,-0.8546,-0.8666,-0.8791,-0.891,-0.8943,-0.8997,-0.9095,-0.9122,-0.9166,-0.9242,-0.9285,-0.94,-0.9606,-0.965,-0.9775,-0.9987,-1.0008,-1.0019,-1.0019,-1.0019,-1.015,-1.0384,-1.0384,-1.0514,-1.0737,-1.0737,-1.0737,-1.0737,-1.0737,-1.0737,-1.0737,-1.0737,-1.0737,-1.0737,-1.0737,-1.0737,-1.0737,-0.0337,-0.0,-0.0,-0.0,-0.0,-0.0,-0.0,-0.0,-0.0,-0.0,-0.0,-0.0,-0.0,-0.0,-0.0,-0.0,-0.0,-0.0,-0.0,-0.0,-0.0,-0.0,-0.0,-0.0,-0.0,-0.0,-0.0,-0.0,-0.0,-0.0,-0.0,-0.0,-0.0,-0.0,-0.0,-0.1124,-0.3349,-0.8003,-0.9935,-1.0078,-1.0078,-1.0073,-1.0231,-1.0231,-1.0226,-1.0215,-1.0215,-1.0215,-1.021,-1.0139,-1.0117,-1.0106,-1.0041,-1.0019,-1.0019,-1.0019,-1.0019,-1.0019,-1.0019,-0.9981,-0.9921,-0.9856,-0.9709,-0.9568,-0.9503,-0.9394,-0.9291,-0.9237,-0.9133,-0.9035,-0.8976,-0.8812,-0.8649,-0.8541,-0.8513,0.0,0.0,-0.8497,-0.8628,-0.8682,-0.8851,-0.8986,-0.9046,-0.9106,-0.9166,-0.922,-0.9226,-0.9247,-0.9302,-0.9302,-0.9416,-0.9661,-0.9791,-0.9911,-1.0019,-1.0019,-1.0019,-1.0019,-1.009,-1.0215,-1.0389,-1.0449,-1.0574,-1.0737,-1.0737,-1.0737,-1.0737,-1.0737,-1.0737,-1.0737,-1.0737,-1.0737,-1.0737,-1.0737,-1.0737,-1.0737,-0.0337,-0.0,-0.0,-0.0,-0.0,-0.0,-0.0,-0.0,-0.0,-0.0,-0.0,-0.0,-0.0,-0.0,-0.0,-0.0,-0.0,-0.0,-0.0,-0.0,-0.0,-0.0,-0.0,-0.0,-0.0,-0.0,-0.0,-0.0,-0.0,-0.0,-0.0,-0.0,-0.0,-0.0,-0.0,-0.0,-0.0325,-0.5529,-0.8139,-0.8783,-0.8783,-0.894,-0.9102,-0.9926,-1.0405,-1.0394,-1.0394,-1.0394,-1.0378,-1.0286,-1.0248,-1.0226,-1.0101,-1.0063,-1.0057,-1.003,-1.0019,-1.0019,-1.0019,-1.0019,-0.9998,-0.9905,-0.9796,-0.9677,-0.9557,-0.9432,-0.934,-0.9307,-0.9215,-0.9133,-0.9133,-0.8959,-0.8802,-0.8774,0.0,0.0,0.0,-0.8736,-0.8823,-0.8856,-0.9024,-0.915,-0.9177,-0.9264,-0.9313,-0.9313,-0.9313,-0.9318,-0.9318,-0.934,-0.9465,-0.9704,-0.9911,-1.0019,-1.0019,-1.0019,-1.0019,-1.0019,-1.0117,-1.0242,-1.0389,-1.0476,-1.0596,-1.0737,-1.0737,-1.0737,-1.0737,-1.0737,-1.0737,-1.0737,-1.0737,-1.0737,-1.0737,-1.0737,-1.0737,-1.0737,-0.1347,-0.0,-0.0,-0.0,-0.0,-0.0,-0.0,-0.0,-0.0,-0.0,-0.0,-0.0,-0.0,-0.0,-0.0,-0.0,-0.0,-0.0,-0.0,-0.0,-0.0,-0.0,-0.0,-0.0,-0.0,-0.0,-0.0,-0.0,-0.0,-0.0,-0.0,-0.0,-0.0,-0.0,-0.0,-0.0,-0.0,-0.0487,-0.2596,-0.535,-0.535,-0.5353,-0.5677,-0.9112,-1.0427,-1.0427,-1.0427,-1.0422,-1.0411,-1.0405,-1.0389,-1.0351,-1.0226,-1.0188,-1.0166,-1.0052,-1.0019,-1.0019,-1.0019,-1.0019,-1.0019,-1.0008,-0.9916,-0.9796,-0.9682,-0.9563,-0.9443,-0.9329,-0.9215,-0.9133,-0.9133,-0.903,-0.8899,-0.8791,0.0,0.0,-0.8774,-0.8861,-0.8986,-0.9106,-0.9133,-0.9193,-0.9307,-0.934,-0.9345,-0.9329,-0.9345,-0.9356,-0.9356,-0.9449,-0.9601,-0.9818,-0.9949,-1.0019,-1.0019,-1.0019,-1.0019,-1.0019,-1.003,-1.0161,-1.0384,-1.0394,-1.0525,-1.0737,-1.0737,-1.0737,-1.0737,-1.0737,-1.0737,-1.0737,-1.0737,-1.0737,-1.0737,-1.0737,-1.0737,-1.0737,-0.0505,-0.0,-0.0,-0.0,-0.0,-0.0,-0.0,-0.0,-0.0,-0.0,-0.0,-0.0,-0.0,-0.0,-0.0,-0.0,-0.0,-0.0,-0.0,-0.0,-0.0,-0.0,-0.0,-0.0,-0.0,-0.0,-0.0,-0.0,-0.0,-0.0,-0.0,-0.0,-0.0,-0.0,-0.0,-0.0,-0.0,-0.0,-0.0664,-0.1826,-0.1826,-0.1824,-0.1989,-0.3481,-0.5305,-0.7301,-0.7301,-0.7297,-0.7624,-0.9891,-1.053,-1.0503,-1.0384,-1.018,-0.9993,-1.004,-0.9955,-1.0052,-1.0052,-1.0036,-1.0019,-1.0019,-0.9927,-0.9824,-0.978,-0.9688,-0.9425,-0.9459,-0.9259,-0.9211,-0.9285,-0.9166,-0.9084,-0.9111,0.0,-0.8831,-0.8997,-0.8911,-0.8965,-0.9013,-0.7486,-0.6372,-0.6402,-0.8174,-0.8469,-0.6555,-0.641,-0.6436,-0.6481,-0.8426,-0.9634,-0.9714,-0.9832,-1.0041,-1.0019,-1.0019,-1.0019,-1.0019,-1.0177,-1.0297,-1.0389,-1.0536,-1.065,-1.0737,-1.0737,-1.0737,-1.0737,-1.0737,-1.0737,-1.0737,-1.0737,-1.0737,-1.0737,-1.0737,-1.0737,-1.0737,-0.0,-0.0,-0.0,-0.0,-0.0,-0.0,-0.0,-0.0,-0.0,-0.0,-0.0,-0.0,-0.0,-0.0,-0.0,-0.0,-0.0,-0.0,-0.0,-0.0,-0.0,-0.0,-0.0,-0.0,-0.0,-0.0,-0.0,-0.0,-0.0,-0.0,-0.0,-0.0,-0.0,-0.0,-0.0,-0.0,-0.0,-0.0,-0.0,-0.0,-0.0,-0.0,-0.0,-0.0,-0.1512,-0.3696,-0.3696,-0.3694,-0.4191,-0.7837,-0.899,-0.8967,-0.8861,-0.8644,-0.8442,-0.838,-0.845,-0.8378,-0.8378,-0.8494,-0.8613,-0.9724,-0.9976,-0.99,-0.9867,-0.9796,-0.9408,-0.8234,-0.7918,-0.79,-0.7837,-0.7906,-0.816,-0.9092,-0.9109,-0.8723,-0.7898,-0.7625,-0.7926,-0.8944,-0.7259,-0.5389,-0.3346,-0.6861,-0.8484,-0.6268,-0.4387,-0.3246,-0.3297,-0.534,-0.7107,-0.8225,-0.8292,-0.8476,-0.8453,-0.9407,-1.0036,-1.0041,-1.0248,-1.0362,-1.0405,-1.0606,-1.0715,-1.0742,-1.0742,-1.0742,-1.0737,-1.0737,-1.0737,-1.0742,-1.0742,-1.0748,-1.0753,-1.0753,-1.0753,-1.0753,-0.0,-0.0,-0.0,-0.0,-0.0,-0.0,-0.0,-0.0,-0.0,-0.0,-0.0,-0.0,-0.0,-0.0,-0.0,-0.0,-0.0,-0.0,-0.0,-0.0,-0.0,-0.0,-0.0,-0.0,-0.0,-0.0,-0.0,-0.0,-0.0,-0.0,-0.0,-0.0,-0.0,-0.0,-0.0,-0.0,-0.0,-0.0,-0.0,-0.0,-0.0,-0.0,-0.0,-0.0,-0.0,-0.0,-0.0,-0.0,-0.0504,-0.4204,-0.5379,-0.536,-0.53,-0.524,-0.5026,-0.5026,-0.4987,-0.4944,-0.4944,-0.506,-0.5802,-0.912,-0.9917,-0.9885,-0.9927,-1.0053,-0.8928,-0.5452,-0.468,-0.468,-0.468,-0.468,-0.5719,-0.8795,-0.9229,-0.8293,-0.5104,-0.466,-0.5832,-0.8931,-0.9227,-0.6865,-0.0582,-0.5554,-0.9248,-0.9227,-0.3545,-0.0,-0.0,-0.0,-0.1548,-0.4855,-0.5014,-0.5014,-0.5014,-0.8328,-0.9917,-0.9917,-1.004,-1.0158,-1.0433,-1.0388,-1.0501,-1.0597,-1.0764,-1.0753,-1.0737,-1.0737,-1.0748,-1.0764,-1.0597,-1.0608,-1.0624,-1.0624,-1.0624,-1.0624,-0.0,-0.0,-0.0,-0.0,-0.0,-0.0,-0.0,-0.0,-0.0,-0.0,-0.0,-0.0,-0.0,-0.0,-0.0,-0.0,-0.0,-0.0,-0.0,-0.0,-0.0,-0.0,-0.0,-0.0,-0.0,-0.0,-0.0,-0.0,-0.0,-0.0,-0.0,-0.0,-0.0,-0.0,-0.0,-0.0,-0.0,-0.0,-0.0,-0.0,-0.0,-0.0,-0.0,-0.0,-0.0,-0.0,-0.0,-0.0,-0.0168,-0.1178,-0.1682,-0.1681,-0.1675,-0.1494,-0.148,-0.148,-0.3101,-0.501,-0.4971,-0.4947,-0.5238,-0.6288,-0.6431,-0.6424,-0.6559,-0.8288,-0.9682,-0.8636,-0.4601,-0.1376,-0.1364,-0.1361,-0.166,-0.2556,-0.6477,-0.905,-0.8108,-0.4195,-0.1798,-0.2698,-0.2846,-0.2089,-0.0148,-0.164,-0.2839,-0.2812,-0.1056,-0.0,-0.0,-0.0,-0.1564,-0.487,-0.5027,-0.5027,-0.5027,-0.5965,-0.6431,-0.6434,-0.656,-0.6472,-0.6658,-0.6794,-0.6864,-0.7052,-0.9593,-1.078,-1.0775,-1.0775,-1.078,-1.0446,-0.7897,-0.7052,-0.7056,-0.7056,-0.7056,-0.7056,-0.0,-0.0,-0.0,-0.0,-0.0,-0.0,-0.0,-0.0,-0.0,-0.0,-0.0,-0.0,-0.0,-0.0,-0.0,-0.0,-0.0,-0.0,-0.0,-0.0,-0.0,-0.0,-0.0,-0.0,-0.0,-0.0,-0.0,-0.0,-0.0,-0.0,-0.0,-0.0,-0.0,-0.0,-0.0,-0.0,-0.0,-0.0,-0.0,-0.0,-0.0,-0.0,-0.0,-0.0,-0.0,-0.0,-0.0,-0.0,-0.0,-0.0,-0.0,-0.0,-0.0,-0.0,-0.0,-0.0,-0.1489,-0.2948,-0.3089,-0.3063,-0.3034,-0.3006,-0.299,-0.2978,-0.2978,-0.4552,-0.6118,-0.6078,-0.2797,-0.0,-0.0,-0.0,-0.0,-0.0,-0.3202,-0.5641,-0.5616,-0.2424,-0.0,-0.0,-0.0,-0.0,-0.0,-0.0,-0.0,-0.0,-0.0,-0.0,-0.0,-0.0,-0.0942,-0.2987,-0.2987,-0.2987,-0.2987,-0.2982,-0.2978,-0.298,-0.305,-0.3084,-0.3087,-0.3158,-0.3191,-0.3357,-0.5544,-0.723,-0.8579,-0.8579,-0.9435,-1.0461,-0.842,-0.5714,-0.3192,-0.3192,-0.5043,-0.7577,-0.0,-0.0,-0.0,-0.0,-0.0,-0.0,-0.0,-0.0,-0.0,-0.0,-0.0,-0.0,-0.0,-0.0,-0.0,-0.0,-0.0,-0.0,-0.0,-0.0,-0.0,-0.0,-0.0,-0.0,-0.0,-0.0,-0.0,-0.0,-0.0,-0.0,-0.0,-0.0,-0.0,-0.0,-0.0,-0.0,-0.0,-0.0,-0.0,-0.0,-0.0,-0.0,-0.0,-0.0,-0.0,-0.0,-0.0,-0.0,-0.0,-0.0,-0.0,-0.0,-0.0,-0.0,-0.0,-0.0,-0.0,-0.0,-0.0,-0.0,-0.0,-0.0,-0.0,-0.0,-0.0,-0.0,-0.0,-0.0,-0.0,-0.0,-0.0,-0.0,-0.0,-0.0,-0.0,-0.0,-0.0,-0.0,-0.0,-0.0,-0.0,-0.0,-0.0,-0.0,-0.0,-0.0,-0.0,-0.0,-0.0,-0.0,-0.0,-0.0,-0.0,-0.0,-0.0,-0.0,-0.0,-0.0,-0.0,-0.0,-0.0,-0.0,-0.0,-0.0,-0.0,-0.1847,-0.4868,-0.4868,-0.6899,-0.9795,-0.9795,-0.5729,-0.0,-0.0,-0.4214,-0.982,-0.0,-0.0,-0.0,-0.0,-0.0,-0.0,-0.0,-0.0,-0.0,-0.0,-0.0,-0.0,-0.0,-0.0,-0.0,-0.0,-0.0,-0.0,-0.0,-0.0,-0.0,-0.0,-0.0,-0.0,-0.0,-0.0,-0.0,-0.0,-0.0,-0.0,-0.0,-0.0,-0.0,-0.0,-0.0,-0.0,-0.0,-0.0,-0.0,-0.0,-0.0,-0.0,-0.0,-0.0,-0.0,-0.0,-0.0,-0.0,-0.0,-0.0,-0.0,-0.0,-0.0,-0.0,-0.0,-0.0,-0.0,-0.0,-0.0,-0.0,-0.0,-0.0,-0.0,-0.0,-0.0,-0.0,-0.0,-0.0,-0.0,-0.0,-0.0,-0.0,-0.0,-0.0,-0.0,-0.0,-0.0,-0.0,-0.0,-0.0,-0.0,-0.0,-0.0,-0.0,-0.0,-0.0,-0.0,-0.0,-0.0,-0.0,-0.0,-0.0,-0.0,-0.0,-0.0,-0.0,-0.0,-0.0,-0.0,-0.0,-0.0,-0.0,-0.0,-0.0,-0.0,-0.0505,-0.1178,-0.1178,-0.1683,-0.2357,-0.2357,-0.1347,-0.0,-0.0,-0.101,-0.3202,-0.0,-0.0,-0.0,-0.0,-0.0,-0.0,-0.0,-0.0,-0.0,-0.0,-0.0,-0.0,-0.0,-0.0,-0.0,-0.0,-0.0,-0.0,-0.0,-0.0,-0.0,-0.0,-0.0,-0.0,-0.0,-0.0,-0.0,-0.0,-0.0,-0.0,-0.0,-0.0,-0.0,-0.0,-0.0,-0.0,-0.0,-0.0,-0.0,-0.0,-0.0,-0.0,-0.0,-0.0,-0.0,-0.0,-0.0,-0.0,-0.0,-0.0,-0.0,-0.0,-0.0,-0.0,-0.0,-0.0,-0.0,-0.0,-0.0,-0.0,-0.0,-0.0,-0.0,-0.0,-0.0,-0.0,-0.0,-0.0,-0.0,-0.0,-0.0,-0.0,-0.0,-0.0,-0.0,-0.0,-0.0,-0.0,-0.0,-0.0,-0.0,-0.0,-0.0,-0.0,-0.0,-0.0,-0.0,-0.0,-0.0,-0.0,-0.0,-0.0,-0.0,-0.0,-0.0,-0.0,-0.0,-0.0,-0.0,-0.0,-0.0,-0.0,-0.0,-0.0,-0.0,-0.0,-0.0,-0.0,-0.0,-0.0,-0.0,-0.0,-0.0,-0.0,-0.0,-0.0505,-0.0,-0.0,-0.0,-0.0,-0.0,-0.0,-0.0,-0.0,-0.0,-0.0,-0.0,-0.0,-0.0,-0.0,-0.0,-0.0,-0.0,-0.0,-0.0,-0.0,-0.0,-0.0,-0.0,-0.0,-0.0,-0.0,-0.0,-0.0,-0.0,-0.0,-0.0,-0.0,-0.0,-0.0,-0.0,-0.0,-0.0,-0.0,-0.0,-0.0,-0.0,-0.0,-0.0,-0.0,-0.0,-0.0,-0.0,-0.0,-0.0,-0.0,-0.0,-0.0,-0.0,-0.0,-0.0,-0.0,-0.0,-0.0,-0.0,-0.0,-0.0,-0.0,-0.0,-0.0,-0.0,-0.0,-0.0,-0.0,-0.0,-0.0,-0.0,-0.0,-0.0,-0.0,-0.0,-0.0,-0.0,-0.0,-0.0,-0.0,-0.0,-0.0,-0.0,-0.0,-0.0,-0.0,-0.0,-0.0,-0.0,-0.0,-0.0,-0.0,-0.0,-0.0,-0.0,-0.0,-0.0,-0.0,-0.0,-0.0,-0.0,-0.0,-0.0,-0.0,-0.0,-0.0,-0.0,-0.0,-0.0,-0.0,-0.0,-0.0,-0.0,-0.0,-0.0,-0.0,-0.0,-0.0,-0.0,-0.0,-0.0,-0.0,-0.0,-0.0,-0.0,-0.0,-0.0,-0.0,-0.0,-0.0,-0.0,-0.0,-0.0,-0.0,-0.0,-0.0,-0.0,-0.0,-0.0,-0.0,-0.0,-0.0,-0.0,-0.0,-0.0,-0.0,-0.0,-0.0,-0.0,-0.0,-0.0,-0.0,-0.0,-0.0,-0.0,-0.0,-0.0,-0.0,-0.0,-0.0,-0.0,-0.0,-0.0,-0.0,-0.0,-0.0,-0.0,-0.0,-0.0,-0.0,-0.0,-0.0,-0.0,-0.0,-0.0,-0.0,-0.0,-0.0,-0.0,-0.0,-0.0,-0.0,-0.0,-0.0,-0.0,-0.0,-0.0,-0.0,-0.0,-0.0,-0.0,-0.0,-0.0,-0.0,-0.0,-0.0,-0.0,-0.0,-0.0,-0.0,-0.0,-0.0,-0.0,-0.0,-0.0,-0.0,-0.0,-0.0,-0.0,-0.0,-0.0,-0.0,-0.0,-0.0,-0.0,-0.0,-0.0,-0.0,-0.0,-0.0,-0.0,-0.0,-0.0,-0.0,-0.0,-0.0,-0.0,-0.0,-0.0,-0.0,-0.0,-0.0,-0.0,-0.0,-0.0,-0.0,-0.0,-0.0,-0.0,-0.0,-0.0,-0.0,-0.0,-0.0,-0.0,-0.0,-0.0,-0.0,-0.0,-0.0,-0.0,-0.0,-0.0,-0.0,-0.0,-0.0,-0.0,-0.0,-0.0,-0.0,-0.0,-0.0,-0.0,-0.0,-0.0,-0.0,-0.0,-0.0,-0.0,-0.0,-0.0,-0.0,-0.0,-0.0,-0.0,-0.0,-0.0,-0.0,-0.0,-0.0,-0.0,-0.0,-0.0,-0.0,-0.0,-0.0,-0.0,-0.0,-0.0,-0.0,-0.0,-0.0,-0.0,-0.0,-0.0,-0.0,-0.0,-0.0,-0.0,-0.0,-0.0,-0.0,-0.0,-0.0,-0.0,-0.0,-0.0,-0.0,-0.0,-0.0,-0.0,-0.0,-0.0,-0.0,-0.0,-0.0,-0.0,-0.0,-0.0,-0.0,-0.0,-0.0,-0.0,-0.0,-0.0,-0.0,-0.0,-0.0,-0.0,-0.0,-0.0,-0.0,-0.0,-0.0,-0.0,-0.0,-0.0,-0.0,-0.0,-0.0,-0.0,-0.0,-0.0,-0.0,-0.0,-0.0,-0.0,-0.0]},{"header":{"parameterUnit":"m.s-1","parameterCategory":1,"la1":30.6,"la2":28.766,"lo1":-90.7593,"lo2":-88.6598,"dy":0.0162,"dx":0.0183,"nx":116,"ny":114,"refTime":"2024-08-03T12:00:00:Z","depth":0,"parameterNumber":3,"parameterNumberName":"V-component_of_WINDS"},"data":[0.0,0.0,0.0,0.0,0.0,0.0,0.0,0.0,0.0,0.0,0.0,0.0,0.0,0.0,0.0,0.0,0.0,0.0,0.0,0.0,0.0,0.0,0.0,0.0,0.0,0.0,0.0,0.0,0.0,0.0,0.0,0.0,0.0,0.0,0.0,0.0,0.0,0.0,0.0,0.0,0.0,0.0,0.0,0.0,0.0,0.0,0.0,0.0,0.0,0.0,0.0,0.0,0.0,0.0,0.0,0.0,0.0,0.0,0.0,0.0,0.0,0.0,0.0,0.0,0.0,0.0,0.0,0.0,0.0,0.0,0.0,0.0,0.0,0.0,0.0,0.0,0.0,0.0,0.0,0.0,0.0,0.0,0.0,0.0,0.0,0.0,0.0,0.0,0.0,0.0,0.0,0.0,0.0,0.0,0.0,0.0,0.0,0.0,0.0,0.0,0.0,0.0,0.0,0.0,0.0,0.0,0.0,0.0,0.0,0.0,0.0,0.0,0.0,0.0,0.0,0.0,0.0,0.0,0.0,0.0,0.0,0.0,0.0,0.0,0.0,0.0,0.0,0.0,0.0,0.0,0.0,0.0,0.0,0.0,0.0,0.0,0.0,0.0,0.0,0.0,0.0,0.0,0.0,0.0,0.0,0.0,0.0,0.0,0.0,0.0,0.0,0.0,0.0,0.0,0.0,0.0,0.0,0.0,0.0,0.0,0.0,0.0,0.0,0.0,0.0,0.0,0.0,0.0,0.0,0.0,0.0,0.0,0.0,0.0,0.0,0.0,0.0,0.0,0.0,0.0,0.0,0.0,0.0,0.0,0.0,0.0,0.0,0.0,0.0,0.0,0.0,0.0,0.0,0.0,0.0,0.0,0.0,0.0,0.0,0.0,0.0,0.0,0.0,0.0,0.0,0.0,0.0,0.0,0.0,0.0,0.0,0.0,0.0,0.0,0.0,0.0,0.0,0.0,0.0,0.0,0.0,0.0,0.0,0.0,0.0,0.0,0.0,0.0,0.0,0.0,0.0,0.0,0.0,0.0,0.0,0.0,0.0,0.0,0.0,0.0,0.0,0.0,0.0,0.0,0.0,0.0,0.0,0.0,0.0,0.0,0.0,0.0,0.0,0.0,0.0,0.0,0.0,0.0,0.0,0.0,0.0,0.0,0.0,0.0,0.0,0.0,0.0,0.0,0.0,0.0,0.0,0.0,0.0,0.0,0.0,0.0,0.0,0.0,0.0,0.0,0.0,0.0,0.0,0.0,0.0,0.0,0.0,0.0,0.0,0.0,0.0,0.0,0.0,0.0,0.0,0.0,0.0,0.0,0.0,0.0,0.0,0.0,0.0,0.0,0.0,0.0,0.0,0.0,0.0,0.0,0.0,0.0,0.0,0.0,0.0,0.0,0.0,0.0,0.0,0.0,0.0,0.0,0.0,0.0,0.0,0.0,0.0,0.0,0.0,0.0,0.0,0.0,0.0,0.0,0.0,0.0,0.0,0.0,0.0,0.0,0.0,0.0,0.0,0.0,0.0,0.0,0.0,0.0,0.0,0.0,0.0,0.0,0.0,0.0,0.0,0.0,0.0,0.0,0.0,0.0,0.0,0.0,0.0,0.0,0.0,0.0,0.0,0.0,0.0,0.0,0.0,0.0,0.0,0.0,0.0,0.0,0.0,0.0,0.0,0.0,0.0,0.0,0.0,0.0,0.0,0.0,0.0,0.0,0.0,0.0,0.0,0.0,0.0,0.0,0.0,0.0,0.0,0.0,0.0,0.0,0.0,0.0,0.0,0.0,0.0,0.0,0.0,0.0,0.0,0.0,0.0,0.0,0.0,0.0,0.0,0.0,0.0,0.0,0.0,0.0,0.0,0.0,0.0,0.0,0.0,0.0,0.0,0.0,0.0,0.0,0.0,0.0,0.0,0.0,0.0,0.0,0.0,0.0,0.0,0.0,0.0,0.0,0.0,0.0,0.0,0.0,0.0,0.0,0.0,0.0,0.0,0.0,0.0,0.0,0.0,0.0,0.0,0.0,0.0,0.0,0.0,0.0,0.0,0.0,0.0,0.0,0.0,0.0,0.0,0.0,0.0,0.0,0.0,0.0,0.0,0.0,0.0,0.0,0.0,0.0,0.0,0.0,0.0,0.0,0.0,0.0,0.0,0.0,0.0,0.0,0.0,0.0,0.0,0.0,0.0,0.0,0.0,0.0,0.0,0.0,0.0,0.0,0.0,0.0,0.0,0.0,0.0,0.0,0.0,0.0,0.0,0.0,0.0,0.0,0.0,0.0,0.0,0.0,0.0,0.0,0.0,0.0,0.0,0.0,0.0,0.0,0.0,0.0,0.0,0.0,0.0,0.0,0.0,0.0,0.0,0.0,0.0,0.0,0.0,0.0,0.0,0.0,0.0,0.0,0.0,0.0,0.0,0.0,0.0,0.0,0.0,0.0,0.0,0.0,0.0,0.0,0.0,0.0,0.0,0.0,0.0,0.0,0.0,0.0,0.0,0.0,0.0,0.0,0.0,0.0,0.0,0.0,0.0,0.0,0.0,0.0,0.0,0.0,0.0,0.0,0.0,0.0,0.0,0.0,0.0,0.0,0.0,0.0,0.0,0.0,0.0,0.0,0.0,0.0,0.0,0.0,0.0,0.0,0.0,0.0,0.0,0.0,0.0,0.0,0.0,0.0,0.0,0.0,0.0,0.0,0.0,0.0,0.0,0.0,0.0,0.0,0.0,0.0,0.0,0.0,0.0,0.0,0.0,0.0,0.0,0.0,0.0,0.0,0.0,0.0,0.0,0.0,0.0,0.0,0.0,0.0,0.0,0.0,0.0,0.0,0.0,0.0,0.0,0.0,0.0,0.0,0.0,0.0,0.0,0.0,0.0,0.0,0.0,0.0,0.0,0.0,0.0,0.0,0.0,0.0,0.0,0.0,0.0,0.0,0.0,0.0,0.0,0.0,0.0,0.0,0.0,0.0,0.0,0.0,0.0,0.0,0.0,0.0,0.0,0.0,0.0,0.0,0.0,0.0,0.0,0.0,0.0,0.0,0.0,0.0,0.0,0.0,0.0,0.0,0.0,0.0,0.0,0.0,0.0,0.0,0.0,0.0,0.0,0.0,0.0,0.0,0.0,0.0,0.0,0.0,0.0,0.0,0.0,0.0,0.0,0.0,0.0,0.0,0.0,0.0,0.0,0.0,0.0,0.0,0.0,0.0,0.0,0.0,0.0,0.0,0.0,0.0,0.0,0.0,0.0,0.0,0.0,0.0,0.0,0.0,0.0,0.0,0.0,0.0,0.0,0.0,0.0,0.0,0.0,0.0,0.0,0.0,0.0,0.0,0.0,0.0,0.0,0.0,0.0,0.0,0.0,0.0,0.0,0.0,0.0,0.0,0.0,0.0,0.0,0.0,0.0,0.0,0.0,0.0,0.0,0.0,0.0,0.0,0.0,0.0,0.0,0.0,0.0,0.0,0.0,0.0,0.0,0.0,0.0,0.0,0.0,0.0,0.0,0.0,0.0,0.0,0.0,0.0,0.0,0.0,0.0,0.0,0.0,0.0,0.0,0.0,0.0,0.0,0.0,0.0,0.0,0.0,0.0,0.0,0.0,0.0,0.0,0.0,0.0,0.0,0.0,0.0,0.0,0.0,0.0,0.0,0.0,0.0,0.0,0.0,0.0,0.0,0.0,0.0,0.0,0.0,0.0,0.0,0.0,0.0,0.0,0.0,0.0,0.0,0.0,0.0,0.0,0.0,0.0,0.0,0.0,0.0,0.0,0.0,0.0,0.0,0.0,0.0,0.0,0.0,0.0,0.0,0.0,0.0,0.0,0.0,0.0,0.0,0.0,0.0,0.0,0.0,0.0,0.0,0.0,0.0,0.0,0.0,0.0,0.0,0.0,0.0,0.0,0.0,0.0,0.0,0.0,0.0,0.0,0.0,0.0,0.0,0.0,0.0,0.0,0.0,0.0,0.0,0.0,0.0,0.0,0.0,0.0,0.0,0.0,0.0,0.0,0.0,0.0,0.0,0.0,0.0,0.0,0.0,0.0,0.0,0.0,0.0,0.0,0.0,0.0,0.0,0.0,0.0,0.0,0.0,0.0,0.0,0.0,0.0,0.0,0.0,0.0,0.0,0.0,0.0,0.0,0.0,0.0,0.0,0.0,0.0,0.0,0.0,0.0,0.0,0.0,0.0,0.0,0.0,0.0,0.0,0.0,0.0,0.0,0.0,0.0,0.0,0.0,0.0,0.0,0.0,0.0,0.0,0.0,0.0,0.0,0.0,0.0,0.0,0.0,0.0,0.0,0.0,0.0,0.0,0.0,0.0,0.0,0.0,0.0,0.0,0.0,0.0,0.0,0.0,0.0,0.0,0.0,0.0,0.0,0.0,0.0,0.0,0.0,0.0,0.0,0.0,0.0,0.0,0.0,0.0,0.0,0.0,0.0,0.0,0.0,0.0,0.0,0.0,0.0,0.0,0.0,0.0,0.0,0.0,0.0,0.0,0.0,0.0,0.0,0.0,0.0,0.0,0.0,0.0,0.0,0.0,0.0,0.0,0.0,0.0,0.0,0.0,0.0,0.0,0.0,0.0,0.0,0.0,0.0,0.0,0.0,0.0,0.0,0.0,0.0,0.0,0.0,0.0,0.0,0.0,0.0,0.0,0.0,0.0,0.0,0.0,0.0,0.0,0.0,0.0,0.0,0.0,0.0,0.0,0.0,0.0,0.0,0.0,0.0,0.0,0.0,0.0,0.0,0.0,0.0,0.0,0.0,0.0,0.0,0.0,0.0,0.0,0.0,0.0,0.0,0.0,0.0,0.0,0.0,0.0,0.0,0.0,0.0,0.0,0.0,0.0,0.0,0.0,0.0,0.0,0.0,0.0,0.0,0.0,0.0,0.0,0.0,0.0,0.0,0.0,0.0,0.0,0.0,0.0,0.0,0.0,0.0,0.0,0.0,0.0,0.0,0.0,0.0,0.0,0.0,0.0,0.0,0.0,0.0,0.0,0.0,0.0,0.0,0.0,0.0,0.0,0.0,0.0,0.0,0.0,0.0,0.0,0.0,0.0,0.0,0.0,0.0,0.0,0.0,0.0,0.0,0.0,0.0,0.0,0.0,0.0,0.0,0.0,0.0,0.0,0.0,0.0,0.0,0.0,0.0,0.0,0.0,0.0,0.0,0.0,0.0,0.0,0.0,0.0,0.0,0.0,0.0,0.0,0.0,0.0,0.0,0.0,0.0,0.0,0.0,0.0,0.0,0.0,0.0,0.0,0.0,0.0,0.0,0.0,0.0,0.0,0.0,0.0,0.0,0.0,0.0,0.0,0.0,0.0,0.0,0.0,0.0,0.0,0.0,0.0,0.0,0.0,0.0,0.0,0.0,0.0,0.0,0.0,0.0,0.0,0.0,0.0,0.0,0.0,0.0,0.0,0.0,0.0,0.0,0.0,0.0,0.0,0.0,0.0,0.0,0.0,0.0,0.0,0.0,0.0,0.0,0.0,0.0,0.0,0.0,0.0,0.0,0.0,0.0,0.0,0.0,0.0,0.0,0.0,0.0,0.0,0.0,0.0,0.0,0.0,0.0,0.0,0.0,0.0,0.0,0.0,0.0,0.0,0.0,0.0,0.0,0.0,0.0,0.0,0.0,0.0,0.0,0.0,0.0,0.0,0.0,0.0,0.0,0.0,0.0,0.0,0.0,0.0,0.0,0.0,0.0,0.0,0.0,0.0,0.0,0.0,0.0,0.0,0.0,0.0,0.0,0.0,0.0,0.0,0.0,0.0,0.0,0.0,0.0,0.0,0.0,0.0,0.0,0.0,0.0,0.0,0.0,0.0,0.0,0.0,0.0,0.0,0.0,0.0,0.0,0.0,0.0,0.0,0.0,0.0,0.0,0.0,0.0,0.0,0.0,0.0,0.0,0.0,0.0,0.0,0.0,0.0,0.0,0.0,0.0,0.0,0.0,0.0,0.0,0.0,0.0,0.0,0.0,0.0,0.0,0.0,0.0,0.0,0.0,0.0,0.0,0.0,0.0,0.0,0.0,0.0,0.0,0.0,0.0,0.0,0.0,0.0,0.0,0.0,0.0,0.0,0.0,0.0,-3.9306,0.0,0.0,0.0,0.0,0.0,0.0,0.0,0.0,0.0,0.0,0.0,0.0,0.0,0.0,0.0,0.0,0.0,0.0,0.0,0.0,0.0,0.0,0.0,0.0,-2.2056,-2.2597,-2.3441,-2.3906,-2.4138,-2.4138,0.0,0.0,0.0,0.0,0.0,-2.4198,-2.3758,-2.4099,-2.5337,-2.4941,-2.5846,-2.7892,-2.7861,-2.6544,-2.4187,0.0,0.0,0.0,0.0,0.0,0.0,0.0,0.0,0.0,0.0,0.0,0.0,0.0,0.0,0.0,0.0,0.0,0.0,0.0,0.0,0.0,0.0,0.0,0.0,0.0,0.0,0.0,0.0,0.0,0.0,0.0,0.0,0.0,0.0,0.0,0.0,0.0,0.0,0.0,0.0,0.0,0.0,0.0,0.0,0.0,0.0,0.0,0.0,0.0,0.0,0.0,0.0,0.0,0.0,0.0,0.0,0.0,0.0,0.0,0.0,0.0,0.0,0.0,0.0,0.0,0.0,0.0,0.0,0.0,0.0,0.0,-4.3314,0.0,0.0,0.0,0.0,0.0,0.0,0.0,0.0,0.0,0.0,0.0,0.0,0.0,0.0,0.0,0.0,0.0,0.0,0.0,0.0,0.0,-1.9999,-2.1707,-2.2636,-2.3519,-2.4563,-2.5182,-2.5569,-2.5685,0.0,0.0,0.0,0.0,-2.5492,-2.5492,-2.495,-2.5724,-2.8014,-2.8094,-2.9668,-3.2568,-3.3558,0.0,0.0,-2.7086,0.0,0.0,0.0,0.0,0.0,0.0,0.0,0.0,0.0,0.0,0.0,0.0,0.0,0.0,0.0,0.0,0.0,0.0,0.0,0.0,0.0,0.0,0.0,0.0,0.0,0.0,0.0,0.0,0.0,0.0,0.0,0.0,0.0,0.0,0.0,0.0,0.0,0.0,0.0,0.0,0.0,0.0,0.0,0.0,0.0,0.0,0.0,0.0,0.0,0.0,0.0,0.0,0.0,0.0,0.0,0.0,0.0,0.0,0.0,0.0,0.0,0.0,0.0,-5.1632,-5.2512,-5.372,-5.3876,-5.4344,-5.4812,-5.1271,-5.0102,-5.0524,0.0,0.0,0.0,0.0,0.0,0.0,0.0,0.0,0.0,0.0,0.0,0.0,0.0,0.0,0.0,0.0,0.0,0.0,0.0,0.0,-2.0888,-2.2552,-2.3519,-2.4679,-2.6218,-2.584,-2.5801,-2.6489,0.0,0.0,0.0,-2.5492,-2.5492,-2.5492,-2.6064,-2.6923,-2.8014,-3.1613,-3.4022,-3.5212,0.0,0.0,0.0,-3.348,-3.2085,0.0,0.0,0.0,0.0,0.0,0.0,0.0,0.0,0.0,0.0,0.0,0.0,0.0,0.0,0.0,0.0,0.0,0.0,0.0,0.0,0.0,0.0,0.0,0.0,0.0,0.0,0.0,0.0,0.0,0.0,0.0,0.0,0.0,0.0,0.0,0.0,0.0,0.0,0.0,0.0,0.0,0.0,-3.2792,-3.3886,0.0,0.0,0.0,0.0,0.0,0.0,0.0,0.0,0.0,0.0,0.0,0.0,0.0,-4.9761,-5.1576,-5.3944,-5.5307,-5.5658,-5.7896,-5.8655,-5.8187,-5.8927,-5.9347,-5.9425,-5.8849,0.0,-5.3229,-5.1257,0.0,0.0,0.0,0.0,0.0,0.0,0.0,0.0,0.0,0.0,0.0,0.0,0.0,0.0,0.0,0.0,0.0,0.0,0.0,0.0,0.0,-2.5105,-2.6304,-2.8006,-2.8702,-2.8568,0.0,0.0,0.0,-2.5418,-2.5332,-2.536,-2.5395,-2.6669,-2.8994,-3.2347,-3.6151,0.0,0.0,0.0,0.0,0.0,0.0,0.0,0.0,0.0,0.0,0.0,0.0,0.0,0.0,0.0,0.0,0.0,0.0,0.0,0.0,0.0,0.0,0.0,0.0,0.0,0.0,0.0,0.0,0.0,0.0,0.0,0.0,0.0,0.0,0.0,0.0,0.0,0.0,0.0,0.0,0.0,0.0,0.0,0.0,0.0,0.0,0.0,0.0,-3.3339,-3.6618,-3.7477,-3.8843,-3.8687,0.0,0.0,0.0,0.0,0.0,0.0,0.0,0.0,0.0,-5.1023,-5.2766,-5.471,-5.6922,-5.8559,-5.9844,-6.0789,-6.188,-6.2231,-6.188,-6.227,-6.2426,-6.2426,-6.2426,-6.1373,-5.9386,-5.6246,-5.344,-5.0938,0.0,0.0,0.0,0.0,-4.9566,-5.019,0.0,0.0,0.0,0.0,0.0,0.0,0.0,0.0,0.0,0.0,0.0,0.0,-2.553,-2.6729,-2.8161,-3.0095,0.0,0.0,0.0,0.0,0.0,-2.5943,-2.5433,-2.5349,-2.562,-2.8173,-3.1862,0.0,0.0,0.0,0.0,0.0,0.0,0.0,0.0,0.0,0.0,0.0,0.0,0.0,0.0,0.0,0.0,0.0,0.0,0.0,0.0,0.0,0.0,0.0,0.0,0.0,0.0,0.0,0.0,0.0,0.0,0.0,0.0,0.0,0.0,0.0,0.0,0.0,0.0,0.0,0.0,0.0,0.0,0.0,0.0,0.0,0.0,0.0,0.0,0.0,0.0,-3.6704,-3.9947,-4.0991,-4.3425,-4.3741,0.0,0.0,0.0,0.0,0.0,0.0,-4.9996,-5.1927,-5.3943,-5.614,-5.7393,-5.9122,-6.1257,-6.1919,-6.2854,-6.4111,-6.4101,-6.4101,-6.4101,-6.4101,-6.4101,-6.4101,-6.4101,-6.4101,-6.3828,-6.0495,-5.7844,-5.5762,-5.4648,-5.3705,-5.3073,-5.4398,-5.4593,-5.471,0.0,0.0,0.0,0.0,0.0,0.0,0.0,0.0,0.0,0.0,0.0,0.0,0.0,0.0,0.0,0.0,0.0,0.0,0.0,0.0,0.0,-2.7648,-2.6069,-2.5608,-2.6525,-3.1361,0.0,0.0,0.0,0.0,0.0,0.0,0.0,0.0,0.0,0.0,0.0,0.0,0.0,0.0,0.0,0.0,0.0,0.0,0.0,0.0,0.0,0.0,0.0,0.0,0.0,0.0,0.0,0.0,0.0,0.0,0.0,0.0,0.0,0.0,0.0,0.0,0.0,0.0,0.0,0.0,0.0,0.0,0.0,0.0,0.0,0.0,0.0,0.0,0.0,0.0,0.0,0.0,0.0,-4.4546,-4.6992,0.0,0.0,0.0,0.0,-4.8343,-5.0757,-5.3678,-5.7026,-5.7329,-5.8927,-6.2357,-6.2513,-6.302,-6.3916,-6.3935,-6.4013,-6.4091,-6.4091,-6.4091,-6.4101,-6.4101,-6.4101,-6.4101,-6.4101,-6.4101,-6.4023,-6.3049,-6.2075,-6.1023,-5.9347,-5.8139,-5.7399,-5.7477,-5.8022,-5.8792,0.0,0.0,0.0,-1.8954,-1.8838,-1.9032,-2.0225,-2.0618,-2.1166,-2.2326,-2.4138,0.0,0.0,0.0,0.0,0.0,0.0,0.0,0.0,0.0,0.0,-2.9999,-2.8356,-2.9216,-3.2954,-3.5483,0.0,0.0,0.0,0.0,0.0,0.0,0.0,0.0,0.0,0.0,0.0,0.0,0.0,0.0,0.0,0.0,0.0,0.0,0.0,0.0,0.0,0.0,0.0,0.0,0.0,0.0,0.0,0.0,0.0,0.0,0.0,0.0,0.0,0.0,0.0,0.0,0.0,0.0,0.0,0.0,0.0,0.0,0.0,0.0,0.0,0.0,0.0,0.0,0.0,0.0,0.0,0.0,0.0,-4.9608,-5.2179,0.0,0.0,-5.2055,-5.3366,-5.4507,-5.6446,-5.857,-6.0906,-6.1529,-6.2387,-6.3634,-6.3672,-6.4062,-6.4929,-6.4958,-6.5221,-6.5767,-6.5767,-6.5767,-6.5777,-6.5777,-6.5777,-6.5777,-6.5777,-6.5777,-6.5738,-6.5465,-6.4491,-6.3166,-6.2503,-6.2075,-6.1802,-6.1802,-6.2036,-6.2211,0.0,-1.6943,0.0,-1.8451,-1.8645,-1.907,-2.0225,-2.1121,-2.2094,-2.3171,0.0,0.0,0.0,0.0,0.0,0.0,0.0,0.0,0.0,0.0,0.0,-3.1678,-3.0864,-3.2461,0.0,0.0,0.0,0.0,0.0,0.0,0.0,0.0,0.0,0.0,0.0,0.0,0.0,0.0,0.0,0.0,0.0,0.0,-3.288,0.0,0.0,0.0,0.0,0.0,0.0,0.0,0.0,0.0,0.0,0.0,0.0,0.0,0.0,0.0,0.0,0.0,0.0,0.0,0.0,0.0,0.0,0.0,0.0,0.0,0.0,0.0,0.0,0.0,0.0,0.0,0.0,0.0,0.0,0.0,-5.0836,-5.2794,-5.5868,-5.7109,-5.54,-5.6787,-5.8292,-5.9443,-6.0832,-6.2258,-6.3672,-6.4257,-6.4686,-6.4958,-6.4997,-6.5231,-6.5816,-6.5855,-6.6117,-6.6712,-6.6712,-6.6712,-6.6712,-6.6712,-6.6712,-6.6712,-6.6712,-6.6712,-6.6702,-6.663,-6.5906,-6.4866,-6.4626,-6.4509,-6.4387,-6.4115,-6.3974,-6.3793,-1.5284,-1.5323,-1.5865,-1.7523,-1.7833,-1.8413,-2.0147,-2.1159,-2.2326,-2.3983,0.0,0.0,0.0,0.0,0.0,0.0,0.0,0.0,0.0,0.0,-3.2496,-3.2711,-3.3549,-3.5204,0.0,0.0,0.0,0.0,0.0,0.0,0.0,0.0,0.0,0.0,0.0,0.0,0.0,0.0,0.0,0.0,0.0,0.0,-3.7831,0.0,0.0,0.0,0.0,0.0,0.0,0.0,0.0,0.0,0.0,0.0,0.0,0.0,0.0,0.0,0.0,0.0,0.0,0.0,0.0,0.0,0.0,0.0,0.0,0.0,0.0,0.0,0.0,0.0,0.0,0.0,0.0,0.0,-4.6459,-5.0108,-5.3108,-5.4041,-5.785,-5.9763,-5.8169,-6.099,-6.296,-6.2981,-6.3772,-6.4599,-6.5426,-6.5465,-6.5894,-6.6751,-6.679,-6.679,-6.679,-6.679,-6.679,-6.679,-6.679,-6.679,-6.679,-6.679,-6.679,-6.678,-6.678,-6.678,-6.673,-6.6567,-6.6454,-6.6353,-6.5684,-6.5297,-6.5017,-6.4163,-6.374,-6.3495,-1.5284,-1.5826,-1.6561,-1.76,-1.8335,-1.9109,-2.0225,-2.1623,-2.2939,0.0,0.0,0.0,0.0,0.0,0.0,0.0,0.0,0.0,0.0,0.0,-3.3325,-3.5116,-3.7833,0.0,0.0,0.0,0.0,0.0,0.0,0.0,0.0,0.0,0.0,0.0,0.0,0.0,0.0,0.0,0.0,0.0,0.0,0.0,-3.9804,0.0,0.0,0.0,0.0,0.0,0.0,0.0,0.0,0.0,0.0,0.0,0.0,0.0,0.0,0.0,0.0,0.0,0.0,0.0,0.0,0.0,0.0,0.0,0.0,0.0,0.0,0.0,0.0,0.0,0.0,0.0,0.0,-5.1795,-5.1778,-5.4383,-5.7073,-5.9233,-6.108,-6.224,-6.2366,-6.3232,-6.4042,-6.4686,-6.4939,-6.5718,-6.7219,-6.7296,-6.7686,-6.8543,-6.8582,-6.8582,-6.8582,-6.8582,-6.8582,-6.8582,-6.8582,-6.8582,-6.8582,-6.8582,-6.8487,-6.8317,-6.8317,-6.8202,-6.8082,-6.8026,-6.7619,-6.7,-6.6203,-6.5893,-6.5799,-6.5567,-6.4925,-6.4224,-1.5787,-1.6251,-1.6987,-1.8142,-1.8743,-1.9355,-2.0263,-2.1796,-2.3296,0.0,0.0,0.0,0.0,0.0,0.0,0.0,0.0,0.0,-3.5463,-3.4594,0.0,0.0,0.0,0.0,0.0,0.0,0.0,0.0,0.0,0.0,0.0,0.0,0.0,0.0,0.0,0.0,0.0,0.0,0.0,0.0,0.0,0.0,-4.3169,-4.0732,-3.9185,-3.8102,-3.64,-3.5317,-3.4659,-3.4311,0.0,0.0,0.0,0.0,0.0,0.0,0.0,0.0,0.0,0.0,0.0,0.0,0.0,0.0,0.0,0.0,0.0,0.0,0.0,0.0,0.0,0.0,0.0,0.0,-5.3697,-5.6853,-5.7555,-5.8646,-6.0165,-6.2387,-6.3439,-6.414,-6.4608,-6.4958,-6.5543,-6.6439,-6.6478,-6.7102,-6.8465,-6.8543,-6.8777,-6.9284,-6.9284,-6.9284,-6.9284,-6.9284,-6.9284,-6.9284,-6.9176,-6.915,-6.9124,-6.9049,-6.8929,0.0,-6.876,-6.8723,-6.8601,-6.849,-6.8197,0.0,0.0,0.0,0.0,0.0,-6.541,-6.4895,-1.6435,-1.6739,-1.7313,-1.8821,-1.9091,-1.9424,-2.025,-2.176,-2.3411,0.0,0.0,0.0,0.0,0.0,0.0,0.0,0.0,0.0,0.0,0.0,0.0,0.0,0.0,0.0,0.0,0.0,0.0,0.0,0.0,0.0,0.0,0.0,0.0,0.0,0.0,0.0,0.0,0.0,0.0,0.0,0.0,0.0,-4.6883,-4.3672,-4.2434,-4.2202,-4.0539,-3.8914,-3.7522,-3.6787,0.0,0.0,0.0,0.0,0.0,0.0,0.0,0.0,0.0,0.0,0.0,0.0,0.0,0.0,0.0,0.0,0.0,0.0,0.0,0.0,0.0,0.0,0.0,0.0,-5.8412,-6.1218,-6.2932,-6.2503,-6.2581,-6.4062,-6.4919,-6.5426,-6.5543,-6.6361,-6.718,-6.7959,-6.8076,-6.8543,-6.9401,0.0,0.0,0.0,0.0,-6.9596,-6.9596,-6.9546,-6.9535,-6.9535,-6.9267,-6.9144,-6.914,-6.8961,-6.8844,-6.8828,-6.8828,-6.8806,-6.8783,-6.8604,-6.8498,-6.8333,-6.7633,-6.6738,-6.5781,-6.558,-6.549,-6.5413,-1.6477,-1.7574,-1.8551,-1.8897,-1.9503,-2.0057,-2.0272,-2.1737,-2.3201,-2.4242,0.0,0.0,0.0,0.0,0.0,0.0,0.0,0.0,0.0,0.0,0.0,0.0,0.0,0.0,0.0,0.0,0.0,0.0,0.0,0.0,0.0,0.0,0.0,0.0,0.0,0.0,0.0,0.0,0.0,0.0,0.0,0.0,-4.7927,-4.5838,-4.5065,-4.4833,-4.3169,-4.2357,-4.2048,-4.1893,-4.081,-3.9262,-3.7522,0.0,0.0,0.0,0.0,0.0,0.0,0.0,0.0,0.0,0.0,0.0,0.0,0.0,0.0,0.0,0.0,0.0,0.0,0.0,0.0,-5.7749,-6.0594,-6.2971,-6.4686,-6.4764,-6.4803,-6.5114,-6.5309,-6.5699,-6.64,-6.7257,-6.7842,-6.7998,-6.866,-6.944,-7.0297,-7.0336,0.0,-7.131,-7.131,-7.131,-7.131,-7.1173,-7.1062,-7.1062,0.0,0.0,-7.0697,-7.0628,-7.0542,-7.0362,-7.0362,-7.0266,-7.0042,-7.0011,-6.9597,-6.8947,-6.8089,-6.7246,-6.6498,-6.6476,-6.5987,-6.5413,-1.7654,-1.8313,-1.9057,-1.9479,-1.9901,-2.0225,-2.0257,-2.168,-2.3063,-2.3947,0.0,0.0,0.0,0.0,0.0,0.0,0.0,0.0,0.0,0.0,0.0,0.0,0.0,0.0,0.0,0.0,0.0,0.0,0.0,0.0,0.0,0.0,0.0,0.0,0.0,0.0,0.0,0.0,0.0,0.0,0.0,0.0,-4.9475,-4.7734,-4.6844,-4.6341,-4.549,-4.491,-4.4485,-4.4098,-4.3672,-4.286,-4.0307,-3.8644,-3.6942,0.0,0.0,0.0,0.0,0.0,0.0,0.0,0.0,0.0,0.0,0.0,0.0,0.0,0.0,-4.9787,0.0,0.0,-5.8724,-6.1724,-6.3283,-6.4608,-6.5855,-6.605,-6.605,-6.605,-6.605,-6.64,-6.7257,-6.7725,-6.8349,-6.9245,-6.9712,-7.0336,-7.1154,-7.1193,-7.1388,-7.1778,-7.1719,-7.164,-7.164,-7.143,-7.13,-7.13,-7.1063,-7.0954,-7.0951,-7.0832,-7.069,-7.0593,-7.0593,-7.054,-7.0419,-7.0419,-7.0151,-6.9769,-6.9311,-6.8394,-6.7247,-6.6865,-6.6407,-6.5987,-1.9012,-1.9077,-1.936,-2.0058,-2.0287,-2.0402,-2.0411,-2.1838,-2.3179,-2.3868,-2.5932,-2.765,-2.8413,0.0,0.0,0.0,0.0,0.0,0.0,0.0,0.0,0.0,0.0,0.0,0.0,0.0,0.0,0.0,0.0,0.0,0.0,0.0,0.0,0.0,0.0,0.0,0.0,0.0,0.0,0.0,0.0,0.0,-5.0703,-4.9227,-4.8121,-4.7308,-4.696,-4.6187,-4.522,-4.4562,-4.4678,-4.4601,-4.1893,-4.0926,-4.0036,-3.6245,-3.5007,0.0,0.0,0.0,0.0,0.0,0.0,0.0,0.0,0.0,-4.6936,-5.1106,-5.3261,-5.5631,-5.9815,-6.0989,-6.2182,-6.4958,-6.5543,-6.5894,-6.6595,-6.6712,-6.6712,-6.6712,-6.6712,-6.7024,-6.792,-6.8154,-6.8894,-7.0492,-7.0726,-7.1115,-7.1778,-7.1973,-7.2039,-7.2016,-7.1972,-7.1969,-7.1935,-7.1644,-7.1533,-7.1533,-7.1339,-7.1245,-7.1238,-7.1006,-7.0877,-7.0877,-7.0724,-7.0648,-7.0648,-7.0457,-7.0419,-7.0419,-7.0419,-6.9578,-6.8279,-6.7477,-6.7095,-6.6827,-1.972,-1.9882,-1.992,-1.9996,-2.0603,-2.113,-2.1155,-2.2588,-2.3732,-2.3797,-2.5348,-2.6505,-2.667,-2.7366,0.0,0.0,0.0,0.0,0.0,0.0,0.0,0.0,0.0,0.0,0.0,0.0,0.0,0.0,0.0,0.0,0.0,0.0,0.0,0.0,0.0,0.0,0.0,0.0,0.0,0.0,0.0,0.0,-5.0622,-4.9853,-4.901,-4.8043,-4.6496,-4.491,-4.3556,-4.3479,-4.2976,-4.2357,-4.197,-4.139,-4.0384,-3.8373,0.0,-3.6748,-3.7328,-3.9417,0.0,-4.6264,-4.6767,-4.8266,0.0,0.0,-5.5598,-5.9265,-6.0724,-6.1594,-6.2264,-6.3702,-6.4893,-6.5338,-6.605,-6.6595,-6.6673,-6.6712,-6.6712,-6.6712,-6.6712,-6.7024,-6.792,-6.8699,-6.9557,-7.0531,-7.1271,-7.17,-7.1817,-7.2518,-7.2848,-7.2702,-7.3346,-7.3645,-7.3441,-7.3202,-7.3042,-7.3042,-7.2847,-7.2729,-7.2773,-7.2734,-7.2734,-7.2696,-7.1898,-7.1522,-7.1483,-7.0724,-7.0419,-7.0419,-7.0419,-7.0304,-7.0037,-6.9234,-6.8432,-6.763,-1.9958,-2.0017,-2.0038,-2.0023,-2.069,-2.1255,-2.1233,-2.2685,-2.38,-2.3752,-2.4778,-2.5538,-2.5589,-2.5853,0.0,0.0,0.0,0.0,0.0,0.0,0.0,0.0,0.0,0.0,0.0,0.0,0.0,0.0,0.0,0.0,0.0,0.0,0.0,0.0,0.0,0.0,0.0,0.0,0.0,0.0,0.0,0.0,-5.0624,-4.9847,-4.8668,-4.7372,-4.6211,-4.4407,0.0,0.0,-4.3053,-4.2667,-4.2164,-4.1429,-4.0539,-3.9301,-3.9765,0.0,-4.5916,0.0,0.0,0.0,-5.3304,-5.4752,-5.8347,-5.9065,-5.9666,-6.2177,-6.3413,-6.42,-6.4789,-6.5544,-6.61,0.0,-6.6478,-6.6712,-6.6712,-6.6244,-6.5933,-6.5933,-6.5828,-6.6555,-6.8572,-6.8942,-6.9669,-7.1193,-7.1978,-7.2366,-7.239,-7.3168,-7.3518,-7.3315,-7.3496,-7.3572,-7.3485,-7.3245,-7.3131,-7.3131,-7.3041,-7.2974,-7.2974,-7.2979,-7.3017,-7.2979,-7.2597,-7.2172,-7.1675,-7.1292,-7.0839,-7.0419,-7.0419,-7.0419,-7.0304,-6.9502,-6.8967,-6.8547,-2.0034,-2.0028,-2.0048,-2.0023,-2.0891,-2.1597,-2.1578,-2.3018,-2.4094,-2.4043,-2.4598,-2.4991,-2.4991,-2.4991,-2.5598,-2.7039,-2.9943,-3.3126,0.0,0.0,0.0,0.0,0.0,0.0,0.0,0.0,0.0,0.0,0.0,0.0,0.0,0.0,0.0,0.0,0.0,0.0,0.0,0.0,0.0,0.0,0.0,0.0,-5.0086,-4.9048,-4.7296,-4.5384,-4.4916,-4.3038,0.0,0.0,-4.1158,-4.1094,-4.072,-4.0333,-4.0076,-4.0372,-4.2613,-4.6027,-5.0774,0.0,0.0,-5.5973,-5.8178,-5.9764,-6.0267,-6.1311,-6.2588,-6.4058,-6.4735,-6.5273,-6.5995,-6.615,0.0,-6.6602,-6.6824,-6.693,-6.6969,-6.6166,-6.5609,-6.5684,-6.5295,-6.6042,-6.8604,-6.8681,-6.9352,-7.1213,-7.2011,-7.2496,-7.2675,-7.3684,-7.4168,-7.3959,-7.3983,-7.3957,-7.3906,-7.3762,-7.3667,-7.3667,-7.3667,-7.3667,-7.3701,-7.3709,-7.3674,-7.3674,-7.3441,-7.2979,-7.2363,-7.2133,-7.156,-7.0763,-7.0763,-7.061,-7.0342,-6.9737,-6.9508,-6.9387,-2.0012,-2.0012,-2.0012,-2.0012,-2.1377,-2.2438,-2.2476,-2.3891,-2.4953,-2.4953,-2.4991,-2.4991,-2.4991,-2.4991,-2.5332,-2.6167,-2.854,-3.1421,-3.4756,0.0,0.0,0.0,0.0,0.0,0.0,0.0,0.0,0.0,0.0,0.0,0.0,0.0,0.0,0.0,0.0,0.0,0.0,0.0,0.0,0.0,0.0,0.0,-4.8785,-4.7353,-4.4709,-4.1788,-4.1956,0.0,0.0,0.0,-3.574,-3.5868,-3.6764,-3.7539,0.0,-4.1963,-4.589,0.0,0.0,0.0,-5.6283,-5.8062,-6.0422,-6.2743,-6.4406,-6.4831,-6.5102,-6.5953,-6.5528,-6.5025,-6.5118,-6.5219,-6.5528,-6.6465,-6.715,-6.7596,-6.765,-6.6764,-6.6167,-6.6338,-6.5428,-6.5586,0.0,-6.7752,-6.8412,-7.0121,-7.1037,-7.1765,-7.2375,-7.3999,-7.477,-7.4591,-7.5399,-7.571,-7.5459,-7.5424,-7.5424,-7.5424,-7.5424,-7.5424,-7.5424,-7.5424,-7.5424,-7.5386,-7.4511,-7.4167,-7.4052,-7.328,-7.2439,-7.1642,-7.1642,-7.1145,-7.0386,-7.0319,-7.0315,-7.0233,-2.0695,-2.0808,-2.0998,-2.1566,-2.2552,-2.331,-2.331,-2.4257,-2.4991,-2.4991,-2.4991,0.0,0.0,0.0,0.0,0.0,-2.7972,-3.0267,-3.3051,0.0,0.0,0.0,0.0,0.0,0.0,0.0,0.0,0.0,0.0,0.0,0.0,0.0,0.0,0.0,0.0,0.0,0.0,0.0,0.0,0.0,0.0,0.0,-4.8724,-4.7089,-4.4419,-4.1246,0.0,0.0,0.0,0.0,0.0,0.0,-3.6406,0.0,0.0,-4.3115,0.0,0.0,0.0,0.0,-5.8199,-6.1015,-6.2811,-6.4183,-6.5507,-6.5252,-6.4685,-6.4415,-6.3554,-6.2737,-6.2253,-6.2663,-6.3342,-6.4325,-6.5586,-6.6516,-6.6632,-6.6766,-6.6453,-6.5412,-6.5318,0.0,0.0,0.0,0.0,-6.9847,-7.1192,-7.2211,-7.2957,-7.4615,-7.5438,-7.5206,-7.548,-7.5599,-7.5501,-7.5501,-7.5501,-7.5501,-7.5501,-7.5501,-7.5501,-7.5501,-7.5501,-7.5462,-7.5195,-7.4702,-7.4205,-7.39,-7.3289,-7.2487,-7.1947,-7.1494,-7.1121,-7.0514,-7.0289,-7.0217,-2.1111,-2.1453,-2.1832,-2.24,-2.3158,0.0,0.0,0.0,0.0,0.0,0.0,0.0,0.0,0.0,0.0,0.0,0.0,-2.8866,0.0,0.0,0.0,0.0,0.0,0.0,0.0,0.0,0.0,0.0,0.0,0.0,0.0,0.0,0.0,0.0,0.0,0.0,0.0,0.0,0.0,0.0,0.0,0.0,-4.6397,-4.4722,-4.2193,0.0,0.0,0.0,0.0,0.0,0.0,0.0,0.0,0.0,0.0,0.0,0.0,-5.1854,0.0,-5.8558,-5.9903,-6.2911,-6.4295,-6.5037,-6.545,-6.4763,-6.3767,-6.2613,-6.1156,-5.9854,-5.9373,-5.9518,-6.0393,-6.2523,-6.4216,-6.5658,-6.6646,-6.7102,-6.6987,-6.601,-6.6123,-6.6336,0.0,0.0,0.0,-6.9262,-7.1313,-7.2727,-7.3146,-7.4797,-7.566,-7.5535,-7.5501,-7.5501,-7.5501,-7.5501,-7.5501,-7.5501,-7.5501,-7.5501,-7.5501,-7.5501,-7.5501,-7.5501,-7.5501,-7.5195,-7.4663,-7.4663,-7.4167,-7.3365,-7.2792,-7.2338,-7.1925,-7.1017,-7.0642,-7.0568,-2.1301,-2.1983,-2.259,0.0,0.0,0.0,0.0,0.0,0.0,0.0,0.0,0.0,0.0,0.0,0.0,0.0,0.0,0.0,0.0,0.0,0.0,0.0,0.0,0.0,0.0,0.0,0.0,0.0,0.0,0.0,0.0,0.0,0.0,0.0,0.0,0.0,0.0,0.0,0.0,0.0,0.0,0.0,-4.2185,-4.0495,0.0,0.0,0.0,0.0,0.0,0.0,0.0,0.0,0.0,0.0,0.0,0.0,0.0,-5.6036,-5.7634,-5.947,-6.1512,-6.3767,-6.4928,-6.5301,-6.4446,-6.3564,-6.2413,-6.0687,-5.8309,-5.6544,0.0,0.0,-5.696,-6.0958,-6.3079,-6.5109,-6.7563,-6.7833,-6.785,0.0,0.0,0.0,0.0,0.0,0.0,-6.8548,0.0,-7.3223,-7.3089,-7.4584,-7.5501,-7.5501,-7.5501,-7.5501,-7.5501,-7.5501,-7.5501,-7.5501,-7.5501,-7.5501,-7.5501,-7.5501,-7.5501,-7.5501,-7.5501,-7.5501,-7.5501,-7.5501,-7.5042,-7.4246,-7.4135,-7.3603,-7.2729,-7.1749,-7.137,-7.1218,0.0,0.0,0.0,0.0,0.0,0.0,0.0,0.0,0.0,0.0,0.0,0.0,0.0,0.0,0.0,0.0,0.0,0.0,0.0,0.0,0.0,0.0,0.0,0.0,0.0,0.0,0.0,0.0,0.0,0.0,0.0,0.0,0.0,0.0,0.0,0.0,0.0,0.0,0.0,0.0,0.0,0.0,-4.1389,0.0,0.0,0.0,0.0,0.0,0.0,0.0,0.0,0.0,0.0,0.0,-4.9822,0.0,0.0,-5.8443,-5.9878,-6.1675,-6.3494,-6.4657,-6.4696,-6.422,-6.3548,-6.1655,-5.9404,-5.7072,-5.4955,-5.2954,-5.1116,0.0,0.0,-5.7434,-6.1713,0.0,-6.6624,-6.8853,0.0,0.0,0.0,-7.0228,-6.9877,-7.121,0.0,0.0,-7.2133,-7.3347,-7.3858,-7.4889,-7.5501,-7.5501,-7.5501,-7.5501,-7.5501,-7.5501,-7.5501,-7.5501,-7.5501,-7.5501,-7.5501,-7.5501,-7.5501,-7.5501,-7.5501,-7.5501,-7.5501,-7.5501,-7.5313,-7.4974,-7.4328,-7.3874,-7.346,-7.2548,-7.2168,-7.1977,0.0,0.0,0.0,0.0,0.0,0.0,0.0,0.0,0.0,0.0,0.0,0.0,0.0,0.0,0.0,0.0,0.0,0.0,0.0,0.0,0.0,0.0,0.0,0.0,0.0,0.0,0.0,0.0,0.0,0.0,0.0,0.0,0.0,0.0,0.0,0.0,0.0,0.0,0.0,0.0,0.0,0.0,0.0,0.0,0.0,0.0,0.0,0.0,0.0,0.0,0.0,-4.6046,-4.8976,-5.1522,-5.3872,-5.5966,0.0,-6.0951,-6.2378,-6.365,-6.4724,-6.5394,-6.4443,-6.2915,-6.1467,-5.9121,-5.6293,-5.3019,-5.1201,0.0,-4.7416,0.0,0.0,0.0,0.0,0.0,-6.5977,-6.9131,-7.084,0.0,-7.1295,0.0,-7.1712,-7.289,-7.3535,0.0,-7.368,-7.4056,-7.4132,-7.5042,-7.5501,-7.5501,-7.5501,-7.5501,-7.5501,-7.5501,-7.5501,-7.5501,-7.5501,-7.5501,-7.5501,-7.5501,-7.5501,-7.5501,0.0,-7.5465,-7.5432,-7.5394,-7.5358,-7.5209,-7.4714,-7.4448,-7.4219,-7.3345,-7.2963,-7.281,0.0,0.0,0.0,0.0,0.0,0.0,0.0,0.0,0.0,0.0,0.0,0.0,0.0,0.0,0.0,0.0,0.0,0.0,0.0,0.0,0.0,0.0,0.0,0.0,0.0,0.0,0.0,0.0,0.0,0.0,0.0,0.0,0.0,0.0,0.0,0.0,0.0,0.0,0.0,0.0,0.0,0.0,0.0,0.0,0.0,0.0,0.0,0.0,0.0,0.0,-4.9221,-5.0702,-5.2992,-5.5913,-5.8578,-5.9178,-6.1147,-6.3404,-6.4731,-6.5213,-6.5389,-6.5869,-6.4092,-6.1553,-5.8938,-5.6323,-5.3252,-4.9197,0.0,-4.6392,-4.4724,0.0,-4.9576,-5.2836,0.0,-6.2008,-6.5609,-6.8906,-7.1029,-7.1256,-7.2734,-7.3835,-7.3914,-7.4599,-7.5017,-7.5171,-7.5209,-7.494,-7.429,-7.501,-7.5462,-7.5462,-7.5501,-7.5501,-7.5462,-7.5501,-7.5501,-7.5501,-7.5501,-7.5501,-7.5501,-7.5501,-7.5501,-7.5501,-7.5501,0.0,-7.5323,-7.5284,-7.5209,-7.517,-7.5017,-7.5017,-7.4901,-7.4101,-7.3795,-7.3682,0.0,0.0,0.0,0.0,0.0,0.0,0.0,0.0,0.0,0.0,0.0,0.0,0.0,0.0,0.0,0.0,0.0,0.0,0.0,0.0,0.0,0.0,0.0,0.0,0.0,0.0,0.0,0.0,0.0,0.0,0.0,0.0,0.0,0.0,0.0,0.0,0.0,0.0,0.0,0.0,0.0,0.0,0.0,0.0,0.0,0.0,0.0,0.0,0.0,0.0,-5.2005,-5.4994,-5.8182,-5.9966,-6.1133,-6.2378,-6.4051,-6.5565,-6.5798,-6.591,-6.5831,-6.5229,-6.3183,-6.0492,-5.7346,-5.4162,0.0,0.0,0.0,-4.3815,-4.2147,-4.5028,0.0,-5.1206,0.0,0.0,0.0,0.0,-7.0612,0.0,0.0,0.0,0.0,0.0,0.0,0.0,0.0,-7.5018,-7.4981,-7.5207,-7.5356,-7.5356,-7.5427,-7.5427,-7.5356,-7.5427,-7.5501,-7.5501,-7.5501,-7.5501,-7.5501,-7.5501,-7.5501,-7.5501,-7.5392,0.0,-7.5283,-7.5247,-7.5171,-7.5017,-7.5017,-7.4977,-7.4935,-7.4743,-7.4667,-7.4553,0.0,0.0,0.0,0.0,0.0,0.0,0.0,0.0,0.0,0.0,0.0,0.0,0.0,0.0,0.0,0.0,0.0,0.0,0.0,0.0,0.0,0.0,0.0,0.0,0.0,0.0,0.0,0.0,0.0,0.0,0.0,0.0,0.0,0.0,0.0,0.0,0.0,0.0,0.0,0.0,0.0,0.0,0.0,0.0,0.0,0.0,0.0,0.0,0.0,0.0,-4.9716,-5.3804,-5.8897,-6.1121,-6.1962,-6.2748,-6.3968,-6.5175,-6.591,-6.5798,-6.5381,-6.5002,-6.2311,-5.8824,-5.5072,0.0,0.0,0.0,0.0,-4.2526,-4.0821,0.0,0.0,0.0,0.0,0.0,0.0,0.0,0.0,0.0,0.0,0.0,0.0,0.0,0.0,0.0,0.0,-7.4977,-7.5095,-7.5171,-7.5246,-7.5246,-7.5321,-7.5321,-7.5246,-7.5321,-7.5358,-7.5358,-7.5737,-7.5964,-7.5964,-7.6453,-7.6647,-7.6651,-7.6578,0.0,-7.6427,-7.5931,-7.5662,-7.5544,-7.5127,-7.4935,-7.4895,-7.4895,-7.4895,-7.4857,0.0,0.0,0.0,0.0,0.0,0.0,0.0,0.0,0.0,0.0,0.0,0.0,0.0,0.0,0.0,0.0,0.0,0.0,0.0,0.0,0.0,0.0,0.0,0.0,0.0,0.0,0.0,0.0,0.0,0.0,0.0,0.0,0.0,0.0,0.0,0.0,0.0,0.0,0.0,0.0,0.0,0.0,0.0,0.0,0.0,0.0,0.0,0.0,0.0,0.0,-4.5878,-4.9639,-5.5806,-5.9202,-6.1017,-6.1254,-6.2591,-6.4242,-6.549,-6.5495,-6.5078,-6.4699,-6.1591,-5.7497,-5.3139,-4.9538,0.0,0.0,0.0,-4.1465,-4.0116,0.0,0.0,0.0,0.0,0.0,0.0,0.0,0.0,0.0,0.0,0.0,0.0,0.0,0.0,0.0,0.0,0.0,-7.5283,-7.5551,-7.5704,-7.5704,-7.5513,-7.5437,-7.5437,-7.5437,-7.5475,-7.5475,-7.6312,-7.6692,-7.6692,-7.7375,-7.7682,-7.7722,-7.7646,0.0,0.0,-7.6799,-7.6455,-7.6297,-7.5501,-7.516,-7.516,-7.497,-7.4895,-7.4895,0.0,0.0,0.0,0.0,0.0,0.0,0.0,0.0,0.0,0.0,0.0,0.0,0.0,0.0,0.0,0.0,0.0,0.0,0.0,0.0,0.0,0.0,0.0,0.0,0.0,0.0,0.0,0.0,0.0,0.0,0.0,0.0,0.0,0.0,0.0,0.0,0.0,0.0,0.0,0.0,0.0,0.0,0.0,0.0,0.0,0.0,0.0,0.0,0.0,0.0,0.0,-4.3081,-4.7515,-5.2732,-5.7276,-5.7726,0.0,0.0,-6.4807,-6.5495,-6.5609,-6.4092,-6.1174,-5.7384,-5.2456,0.0,0.0,0.0,-4.0631,-4.0079,-3.9927,0.0,0.0,0.0,0.0,0.0,0.0,0.0,0.0,0.0,0.0,0.0,0.0,0.0,0.0,0.0,0.0,0.0,-7.6232,-7.6878,-7.7258,-7.7258,-7.6615,-7.6274,-7.6194,-7.6274,-7.6313,-7.6313,-7.7151,-7.7608,-7.7608,-7.7684,-7.7683,-7.7683,-7.7566,0.0,0.0,-7.7324,-7.7282,-7.7207,-7.6335,-7.5994,-7.5918,-7.516,-7.4895,-7.4895,0.0,0.0,0.0,0.0,0.0,0.0,0.0,0.0,0.0,0.0,0.0,0.0,0.0,0.0,0.0,0.0,0.0,0.0,0.0,0.0,0.0,0.0,0.0,0.0,0.0,0.0,0.0,0.0,0.0,0.0,0.0,0.0,0.0,0.0,0.0,0.0,0.0,0.0,0.0,0.0,0.0,0.0,0.0,0.0,0.0,0.0,0.0,0.0,0.0,0.0,0.0,0.0,-4.1123,-4.4985,0.0,0.0,-5.7528,-6.0654,-6.2834,-6.3979,-6.432,-6.3183,-6.0378,-5.6588,-5.1547,0.0,0.0,-4.1124,-4.0116,-3.9889,-3.9889,-4.0631,-4.1806,0.0,-4.5179,0.0,0.0,0.0,0.0,0.0,0.0,0.0,0.0,0.0,0.0,0.0,0.0,0.0,-7.7707,-7.7555,-7.7442,-7.7442,-7.7179,-7.6989,-7.6986,-7.6989,-7.6989,-7.7027,-7.7827,-7.8248,-7.8286,-7.8777,-7.9001,-7.9001,-7.8959,0.0,0.0,-7.8344,-7.8116,-7.804,-7.7207,-7.6562,-7.6069,-7.5728,-7.5311,-7.4895,0.0,0.0,0.0,0.0,0.0,0.0,0.0,0.0,0.0,0.0,0.0,0.0,0.0,0.0,0.0,0.0,0.0,0.0,0.0,0.0,0.0,0.0,0.0,0.0,0.0,0.0,0.0,0.0,0.0,0.0,0.0,0.0,0.0,0.0,0.0,0.0,0.0,0.0,0.0,0.0,0.0,0.0,0.0,0.0,0.0,0.0,0.0,0.0,0.0,0.0,0.0,0.0,0.0,0.0,0.0,0.0,-5.3878,-5.7215,-6.014,-6.1894,-6.269,-6.1856,-5.9127,-5.5413,0.0,0.0,-4.3663,-4.0555,-3.9889,-3.9889,-3.9889,-4.0631,-4.1465,0.0,-4.3549,-4.6203,-5.1244,0.0,0.0,0.0,0.0,0.0,0.0,0.0,0.0,0.0,0.0,0.0,0.0,-7.8457,-7.8154,-7.8154,-7.7889,-7.7737,-7.7737,-7.7737,-7.7737,-7.7775,-7.8571,-7.895,-7.8988,-7.9594,-7.9898,-7.9898,-7.9898,0.0,0.0,-7.9253,-7.8988,-7.8912,-7.8078,-7.7396,-7.679,-7.6297,-7.5728,-7.5236,0.0,0.0,0.0,0.0,0.0,0.0,0.0,0.0,0.0,0.0,0.0,0.0,0.0,0.0,0.0,0.0,0.0,0.0,0.0,0.0,0.0,0.0,0.0,0.0,0.0,0.0,0.0,0.0,0.0,0.0,0.0,0.0,0.0,0.0,0.0,0.0,0.0,0.0,0.0,0.0,0.0,0.0,0.0,0.0,0.0,0.0,0.0,0.0,0.0,0.0,0.0,0.0,0.0,0.0,0.0,0.0,-4.9924,-5.4444,-5.6801,-5.9241,-6.0909,-6.0113,-5.7422,-5.3821,0.0,-4.6127,-4.2981,-4.0442,-3.9889,-3.9889,-3.9889,-4.0631,-4.1465,-4.2261,-4.4535,-4.7946,-5.2987,0.0,0.0,0.0,0.0,0.0,0.0,0.0,0.0,0.0,0.0,0.0,0.0,-7.986,-7.986,-7.986,-7.9026,-7.8609,-7.8609,-7.8609,-7.8609,-7.8609,-7.9481,-7.9898,-7.9898,-7.9898,-7.9898,0.0,0.0,0.0,0.0,-7.9898,-7.9898,-7.9784,-7.8912,-7.8571,-7.8382,-7.6714,-7.6107,-7.5994,0.0,0.0,0.0,0.0,0.0,0.0,0.0,0.0,0.0,0.0,0.0,0.0,0.0,0.0,0.0,0.0,0.0,0.0,0.0,0.0,0.0,0.0,0.0,0.0,0.0,0.0,0.0,0.0,0.0,0.0,0.0,0.0,0.0,0.0,0.0,0.0,0.0,0.0,0.0,0.0,0.0,0.0,0.0,0.0,0.0,0.0,0.0,0.0,0.0,0.0,0.0,0.0,0.0,0.0,0.0,-3.951,0.0,0.0,-5.1613,-5.3669,-5.4958,-5.4162,-5.2722,-5.0523,-4.6923,-4.4876,-4.2981,-4.0442,-3.9889,-3.9889,-3.9889,-4.0631,-4.2033,-4.4573,0.0,0.0,0.0,0.0,0.0,0.0,0.0,0.0,0.0,0.0,0.0,0.0,0.0,0.0,0.0,-7.9898,-7.9898,-7.9898,-7.9632,-7.9481,-7.9481,-7.9481,-7.9481,-7.9481,-7.9784,-7.9898,-7.9898,-7.9898,0.0,0.0,0.0,0.0,0.0,-7.9898,-7.9898,-7.986,-7.9594,-7.9102,-7.8533,-7.8002,-7.7093,-7.6069,0.0,0.0,0.0,0.0,0.0,0.0,0.0,0.0,0.0,0.0,0.0,0.0,0.0,0.0,0.0,0.0,0.0,0.0,0.0,0.0,0.0,0.0,0.0,0.0,0.0,0.0,0.0,0.0,0.0,0.0,0.0,0.0,0.0,0.0,0.0,0.0,0.0,0.0,0.0,0.0,0.0,0.0,-3.4532,0.0,0.0,0.0,0.0,0.0,0.0,0.0,0.0,0.0,0.0,0.0,0.0,0.0,-3.9716,-4.3577,0.0,-4.9462,-5.0865,-5.0372,-4.9386,-4.7795,-4.5066,-4.3587,-4.2223,-4.029,-3.9889,-4.0003,-4.0328,-4.1086,-4.245,-4.4876,0.0,0.0,0.0,0.0,0.0,0.0,0.0,0.0,0.0,0.0,0.0,0.0,0.0,0.0,0.0,-7.9898,-7.9898,-7.9898,-7.9898,-7.9898,-7.9898,-7.9898,-7.9898,-7.9898,-7.9898,-7.9898,-7.9898,-7.9898,0.0,0.0,0.0,0.0,0.0,-7.9898,-7.9898,-7.9898,-7.9898,-7.9556,-7.9064,-7.8723,-7.7737,-7.6562,0.0,0.0,0.0,0.0,0.0,0.0,0.0,0.0,0.0,0.0,0.0,0.0,0.0,0.0,0.0,0.0,0.0,0.0,0.0,0.0,0.0,0.0,0.0,0.0,0.0,0.0,0.0,0.0,-3.8079,-3.9342,0.0,0.0,0.0,0.0,0.0,0.0,0.0,0.0,0.0,0.0,0.0,-3.4358,0.0,0.0,0.0,0.0,0.0,0.0,0.0,0.0,0.0,0.0,0.0,0.0,0.0,0.0,0.0,0.0,0.0,-4.6165,-4.806,-4.7984,-4.6885,-4.5407,-4.3815,-4.2261,0.0,-4.0079,-3.9889,-4.0214,-4.1275,-4.1996,-4.2829,-4.4118,0.0,0.0,0.0,0.0,0.0,0.0,0.0,0.0,0.0,0.0,0.0,0.0,0.0,0.0,0.0,-7.9898,-7.9898,-7.9898,-7.9898,-7.9898,-7.9898,-7.9898,-7.9898,-7.9898,-7.9898,-7.9898,-7.9898,-7.9898,0.0,0.0,0.0,0.0,0.0,-7.9898,-7.9898,-7.9898,-7.9898,-7.9898,-7.9784,-7.8988,-7.8192,-7.7358,0.0,0.0,0.0,0.0,0.0,0.0,0.0,0.0,0.0,0.0,0.0,0.0,0.0,0.0,0.0,0.0,0.0,0.0,0.0,0.0,0.0,0.0,0.0,0.0,0.0,0.0,0.0,0.0,-3.9788,-4.1014,-4.1609,-4.1423,0.0,0.0,0.0,0.0,0.0,0.0,0.0,0.0,-3.4203,-3.4264,0.0,0.0,0.0,0.0,-3.3986,-3.4188,0.0,0.0,0.0,0.0,0.0,0.0,0.0,0.0,-3.578,-3.6879,-3.8803,0.0,-4.1806,-4.12,-4.173,-4.2109,0.0,-4.101,-4.0972,0.0,0.0,0.0,0.0,0.0,0.0,0.0,0.0,0.0,0.0,0.0,0.0,0.0,0.0,0.0,0.0,0.0,0.0,0.0,0.0,0.0,0.0,-7.9898,-7.9898,-7.9898,-7.9898,-7.9898,-7.9898,-7.9898,-7.9898,-7.9898,-7.9898,-7.9898,-7.9898,-7.9898,0.0,0.0,0.0,0.0,-7.9898,-7.9898,-7.9898,-7.9898,-7.9898,-7.9898,-7.986,-7.967,-7.9064,-7.8306,0.0,0.0,0.0,0.0,0.0,0.0,0.0,0.0,0.0,0.0,0.0,0.0,0.0,0.0,0.0,0.0,0.0,0.0,0.0,0.0,0.0,0.0,0.0,0.0,0.0,0.0,0.0,0.0,0.0,-4.1609,0.0,0.0,0.0,0.0,0.0,0.0,0.0,0.0,0.0,0.0,-3.4179,0.0,0.0,0.0,0.0,0.0,-3.3142,-3.3403,0.0,-3.4537,-3.4717,-3.4636,0.0,0.0,0.0,0.0,-3.5192,-3.5799,-3.6804,-3.8991,-4.1048,-4.101,-4.1692,-4.2223,-4.1768,0.0,0.0,0.0,0.0,0.0,0.0,0.0,0.0,0.0,0.0,0.0,0.0,0.0,0.0,0.0,0.0,0.0,0.0,0.0,0.0,0.0,0.0,0.0,0.0,-7.9898,-7.9898,-7.9898,-7.9898,-7.9898,-7.9898,-7.9898,-7.9898,-7.9898,-7.9898,-7.9898,-7.9898,-7.9898,-7.9898,0.0,0.0,0.0,-7.9898,-7.9898,-7.9898,-7.9898,-7.9898,-7.9898,-7.9898,-7.9898,-7.9329,-7.8609,0.0,0.0,0.0,0.0,0.0,0.0,0.0,0.0,0.0,0.0,0.0,0.0,0.0,0.0,0.0,0.0,0.0,0.0,0.0,0.0,0.0,0.0,0.0,0.0,0.0,0.0,0.0,0.0,0.0,0.0,0.0,0.0,0.0,0.0,0.0,0.0,0.0,0.0,0.0,0.0,0.0,0.0,0.0,0.0,0.0,0.0,0.0,0.0,0.0,-3.4673,-3.5011,-3.4905,-3.5254,0.0,0.0,0.0,0.0,0.0,-3.6764,-4.002,-4.3027,-4.3095,-4.3512,-4.3815,0.0,0.0,0.0,0.0,0.0,0.0,0.0,0.0,0.0,0.0,0.0,0.0,0.0,0.0,0.0,0.0,0.0,0.0,0.0,0.0,0.0,0.0,0.0,0.0,0.0,-7.9898,-7.9898,-7.9898,-7.9898,-7.9898,-7.9898,-7.9898,-7.9898,-7.9898,-7.9898,-7.9898,-7.9898,-7.9898,-7.9898,-7.9898,0.0,0.0,-7.9898,-7.9898,-7.9898,-7.9898,-7.9898,-7.9898,-7.9898,-7.9898,-7.9443,-7.8761,0.0,0.0,0.0,0.0,0.0,0.0,0.0,0.0,0.0,0.0,0.0,0.0,0.0,0.0,0.0,0.0,0.0,0.0,0.0,0.0,0.0,0.0,0.0,0.0,0.0,0.0,0.0,0.0,0.0,0.0,0.0,0.0,0.0,0.0,0.0,0.0,0.0,0.0,0.0,0.0,0.0,0.0,0.0,0.0,0.0,0.0,0.0,0.0,0.0,-3.3499,-3.4634,-3.5758,-3.498,0.0,0.0,0.0,0.0,0.0,-3.9679,-4.3252,-4.4979,-4.1396,-4.264,-4.4345,0.0,0.0,0.0,0.0,0.0,0.0,0.0,0.0,0.0,0.0,0.0,0.0,0.0,0.0,0.0,0.0,0.0,0.0,0.0,0.0,0.0,0.0,0.0,0.0,0.0,0.0,-7.9898,-7.9898,-7.9898,-7.9898,-7.9898,-7.9898,-7.9898,-7.9898,-7.9898,-7.9898,-7.9898,-7.9898,-7.9898,-7.9898,0.0,-7.9898,-7.9898,-7.9898,-7.9898,-7.9898,-7.9898,-7.9898,-7.9898,-7.9898,-7.9822,-7.9594,0.0,0.0,0.0,0.0,0.0,0.0,0.0,0.0,0.0,0.0,0.0,0.0,0.0,0.0,0.0,0.0,0.0,0.0,0.0,0.0,0.0,0.0,0.0,0.0,0.0,0.0,0.0,0.0,0.0,0.0,0.0,0.0,0.0,-3.9008,0.0,0.0,0.0,0.0,0.0,0.0,0.0,0.0,0.0,0.0,0.0,0.0,0.0,0.0,0.0,0.0,-3.4111,-3.522,-3.4739,0.0,0.0,0.0,0.0,0.0,-3.8733,-4.2008,-4.4403,-4.3666,-4.6663,-4.9504,0.0,0.0,0.0,0.0,0.0,0.0,0.0,0.0,0.0,0.0,0.0,0.0,0.0,0.0,0.0,0.0,0.0,0.0,0.0,0.0,0.0,0.0,0.0,0.0,0.0,0.0,-7.9898,-7.9898,-7.9898,-7.9898,-7.9898,-7.9898,-7.9898,-7.9898,-7.9898,-7.9898,-7.9898,-7.9898,-7.9898,-7.9898,0.0,-7.9898,-7.9898,-7.9898,-7.9898,-7.9898,-7.9898,-7.9898,-7.9898,-7.9898,-7.9898,-7.9822,0.0,0.0,0.0,0.0,0.0,0.0,0.0,0.0,0.0,0.0,0.0,0.0,0.0,0.0,0.0,0.0,0.0,0.0,0.0,0.0,0.0,0.0,0.0,0.0,0.0,0.0,0.0,0.0,0.0,0.0,0.0,0.0,0.0,0.0,0.0,0.0,0.0,0.0,0.0,-3.445,0.0,0.0,0.0,0.0,0.0,0.0,0.0,0.0,0.0,0.0,0.0,0.0,0.0,0.0,0.0,-3.5745,-3.5542,-3.5996,-3.8393,-4.113,-4.397,0.0,0.0,0.0,0.0,0.0,0.0,0.0,0.0,0.0,0.0,0.0,0.0,0.0,0.0,0.0,0.0,0.0,0.0,0.0,0.0,0.0,0.0,0.0,0.0,0.0,0.0,0.0,0.0,0.0,-7.9898,-7.9898,-7.9898,-7.9898,-7.9898,-7.9898,-7.9898,-7.9898,-7.9898,-7.9898,-7.9898,-7.9898,-7.9898,-7.9898,-7.9898,-7.9898,-7.9898,-7.9898,-7.9898,-7.9898,-7.9898,-7.9898,-7.9898,-7.9898,-7.9898,-7.9898,0.0,0.0,0.0,0.0,0.0,0.0,0.0,0.0,0.0,0.0,0.0,0.0,0.0,0.0,0.0,0.0,0.0,0.0,0.0,0.0,0.0,0.0,0.0,0.0,0.0,0.0,0.0,0.0,0.0,0.0,0.0,0.0,0.0,0.0,0.0,0.0,0.0,0.0,0.0,0.0,-3.4583,0.0,0.0,0.0,0.0,0.0,0.0,0.0,0.0,0.0,0.0,0.0,0.0,0.0,-3.6479,-3.6427,-3.5926,-3.6483,-4.1316,-4.3442,-4.5093,-4.8354,0.0,0.0,0.0,0.0,0.0,0.0,0.0,0.0,0.0,0.0,0.0,0.0,0.0,0.0,0.0,0.0,0.0,0.0,0.0,0.0,0.0,0.0,0.0,0.0,0.0,0.0,0.0,0.0,0.0,-7.9898,-7.9898,-7.9898,-7.9898,-7.9898,-7.9898,-7.9898,-7.9898,-7.9898,-7.9898,-7.9898,-7.9898,-7.9898,-7.9898,-7.9898,-7.9898,-7.9898,-7.9898,-7.9898,-7.9898,-7.9898,-7.9898,-7.9898,-7.9898,-7.9898,0.0,0.0,0.0,0.0,0.0,0.0,0.0,0.0,0.0,0.0,0.0,0.0,0.0,0.0,0.0,0.0,0.0,0.0,0.0,0.0,0.0,0.0,0.0,0.0,0.0,0.0,0.0,0.0,0.0,0.0,0.0,0.0,0.0,0.0,0.0,0.0,0.0,0.0,0.0,0.0,-3.4915,-3.3907,0.0,0.0,0.0,0.0,0.0,0.0,0.0,0.0,-3.2562,0.0,0.0,0.0,0.0,0.0,-3.5779,-3.6202,-3.9105,-4.2155,-4.5186,0.0,0.0,0.0,0.0,0.0,0.0,0.0,0.0,0.0,0.0,0.0,0.0,0.0,0.0,0.0,0.0,0.0,0.0,0.0,0.0,0.0,0.0,0.0,0.0,0.0,0.0,0.0,0.0,0.0,0.0,-7.986,-7.9898,-7.9898,-7.9898,-7.9898,-7.9898,-7.9898,-7.9898,-7.9898,-7.9898,-7.9898,-7.9898,-7.9898,-7.9898,-7.9898,-7.9898,-7.9898,-7.9898,-7.9898,-7.9898,-7.9898,-7.9898,-7.9898,-7.9898,-7.9898,0.0,0.0,0.0,0.0,0.0,0.0,0.0,0.0,0.0,0.0,0.0,0.0,0.0,0.0,0.0,0.0,0.0,0.0,0.0,0.0,0.0,0.0,0.0,0.0,0.0,0.0,0.0,0.0,0.0,0.0,0.0,0.0,0.0,0.0,0.0,0.0,0.0,0.0,0.0,0.0,-3.5038,-3.422,0.0,0.0,0.0,0.0,0.0,0.0,0.0,0.0,-3.1974,0.0,0.0,0.0,0.0,0.0,0.0,-3.724,-3.8826,-4.2072,-4.5592,0.0,0.0,0.0,0.0,0.0,0.0,0.0,0.0,0.0,0.0,0.0,0.0,0.0,0.0,0.0,0.0,0.0,0.0,0.0,0.0,0.0,0.0,0.0,0.0,0.0,0.0,0.0,0.0,0.0,0.0,0.0,-7.9898,-7.9898,-7.9898,-7.9898,-7.9898,-7.9898,-7.9898,-7.9898,-7.9898,-7.9898,-7.9898,-7.9898,-7.9898,-7.9898,-7.9898,-7.9898,-7.9898,-7.9898,-7.9898,-7.9898,-7.9898,-7.9898,-7.9898,-7.9898,0.0,0.0,0.0,0.0,0.0,0.0,0.0,0.0,0.0,0.0,0.0,0.0,0.0,0.0,0.0,0.0,0.0,0.0,0.0,0.0,0.0,0.0,0.0,0.0,0.0,0.0,0.0,0.0,0.0,0.0,0.0,0.0,0.0,0.0,0.0,0.0,0.0,0.0,0.0,0.0,0.0,-3.432,-3.3431,0.0,0.0,0.0,0.0,0.0,0.0,0.0,-3.1765,-3.2745,0.0,0.0,0.0,0.0,-3.8117,-3.9881,-4.1545,-4.3866,0.0,0.0,0.0,0.0,0.0,0.0,0.0,0.0,0.0,0.0,0.0,0.0,0.0,0.0,0.0,0.0,0.0,0.0,0.0,0.0,0.0,0.0,0.0,0.0,0.0,0.0,0.0,0.0,0.0,0.0,0.0,0.0,-7.986,-7.9898,-7.9898,-7.9898,-7.9898,-7.9898,-7.9898,-7.9898,-7.9898,-7.9898,-7.9898,-7.9898,-7.9898,-7.9898,-7.9898,-7.9898,-7.9898,-7.9898,-7.9898,-7.9898,-7.9898,-7.9898,-7.9898,-7.9898,0.0,0.0,0.0,0.0,0.0,0.0,0.0,0.0,0.0,0.0,0.0,0.0,0.0,0.0,0.0,0.0,0.0,0.0,0.0,0.0,0.0,0.0,0.0,0.0,0.0,0.0,0.0,0.0,0.0,0.0,0.0,0.0,0.0,0.0,0.0,0.0,0.0,0.0,0.0,0.0,0.0,-3.4699,-3.4356,0.0,0.0,0.0,0.0,0.0,0.0,0.0,0.0,0.0,0.0,0.0,0.0,0.0,-3.8504,-4.1119,-4.0423,0.0,0.0,0.0,0.0,0.0,0.0,0.0,0.0,0.0,0.0,0.0,0.0,0.0,0.0,0.0,0.0,0.0,0.0,0.0,0.0,0.0,0.0,0.0,0.0,0.0,0.0,0.0,0.0,0.0,0.0,0.0,0.0,0.0,-7.8685,-7.8988,-7.8988,-7.9594,-7.9898,-7.9898,-7.9898,-7.9898,-7.9898,-7.9898,-7.9898,-7.9898,-7.9898,-7.9898,-7.9898,-7.9898,-7.9898,-7.9898,-7.9898,-7.9898,-7.9898,-7.9898,-7.9898,-7.9898,0.0,0.0,0.0,0.0,0.0,0.0,0.0,0.0,0.0,0.0,0.0,0.0,0.0,0.0,0.0,0.0,0.0,0.0,0.0,0.0,0.0,0.0,0.0,0.0,0.0,0.0,0.0,0.0,0.0,0.0,0.0,0.0,0.0,0.0,0.0,0.0,0.0,0.0,0.0,0.0,0.0,-3.4605,-3.4813,0.0,0.0,0.0,0.0,0.0,0.0,0.0,0.0,0.0,0.0,0.0,0.0,0.0,-3.9444,-4.2667,-4.3363,0.0,0.0,0.0,0.0,0.0,0.0,0.0,0.0,0.0,0.0,0.0,0.0,0.0,0.0,0.0,0.0,0.0,0.0,0.0,0.0,0.0,0.0,0.0,0.0,0.0,0.0,0.0,0.0,0.0,0.0,0.0,0.0,0.0,-7.7889,-7.8268,-7.8609,-7.9102,-7.9556,-7.9898,-7.9898,-7.9898,-7.9898,-7.9898,-7.9898,-7.9898,-7.9898,-7.9898,-7.9898,-7.9898,-7.9898,-7.9898,-7.9898,-7.9898,-7.9898,-7.9898,-7.9898,-7.9898,0.0,0.0,-2.4991,-2.4991,0.0,0.0,0.0,0.0,0.0,0.0,0.0,-2.5294,0.0,0.0,0.0,-2.738,0.0,0.0,0.0,0.0,0.0,0.0,0.0,0.0,0.0,0.0,0.0,0.0,0.0,0.0,0.0,0.0,0.0,0.0,0.0,0.0,0.0,0.0,0.0,0.0,0.0,-3.4106,-3.4721,-3.334,0.0,0.0,0.0,0.0,0.0,0.0,0.0,0.0,0.0,0.0,0.0,-3.7626,-4.0655,-4.4369,0.0,0.0,0.0,0.0,0.0,0.0,0.0,0.0,0.0,0.0,0.0,0.0,0.0,0.0,0.0,0.0,0.0,0.0,0.0,0.0,0.0,0.0,0.0,0.0,0.0,0.0,0.0,0.0,0.0,0.0,0.0,0.0,0.0,-7.7169,-7.7244,-7.7661,-7.8495,-7.8571,-7.9026,0.0,-7.9898,-7.9898,-7.9898,-7.9898,-7.9898,-7.9898,-7.9898,-7.9898,-7.9898,-7.9898,-7.9898,-7.9898,-7.9898,-7.9898,-7.9898,-7.9898,-7.9898,-7.9898,0.0,0.0,-2.4991,-2.4991,0.0,0.0,0.0,0.0,0.0,-2.4991,-2.4991,-2.5067,-2.5256,-2.5977,0.0,-2.647,-2.647,0.0,0.0,0.0,0.0,0.0,0.0,0.0,0.0,0.0,0.0,0.0,0.0,0.0,0.0,0.0,0.0,0.0,0.0,0.0,0.0,0.0,0.0,0.0,-3.2863,-3.3004,-3.3264,-3.2948,-3.2387,0.0,0.0,0.0,0.0,0.0,0.0,0.0,-3.3953,-3.5731,-3.7588,-3.729,-4.1003,0.0,0.0,0.0,0.0,0.0,0.0,0.0,0.0,0.0,0.0,0.0,0.0,0.0,0.0,0.0,0.0,0.0,0.0,0.0,0.0,0.0,0.0,0.0,0.0,0.0,0.0,0.0,0.0,0.0,0.0,0.0,0.0,0.0,0.0,-7.5463,-7.6069,-7.679,-7.7661,-7.8268,-7.9026,0.0,-7.9898,-7.9898,-7.9898,-7.9898,-7.9898,-7.9898,-7.9898,-7.9898,-7.9898,-7.9898,-7.9898,-7.9898,-7.9898,-7.9898,-7.9898,-7.9898,-7.9898,-7.9898,0.0,0.0,0.0,0.0,0.0,0.0,0.0,0.0,0.0,-2.5067,-2.4991,-2.4991,-2.4991,-2.5712,0.0,0.0,-2.6205,-2.6205,0.0,0.0,0.0,0.0,0.0,0.0,0.0,0.0,0.0,0.0,0.0,0.0,0.0,0.0,0.0,0.0,0.0,0.0,0.0,0.0,0.0,-3.1424,-3.1431,-3.1785,-3.2225,-3.1802,-3.1417,-3.1118,-3.1603,0.0,0.0,0.0,0.0,0.0,0.0,0.0,-3.6516,-3.729,-4.0307,-4.402,0.0,0.0,0.0,0.0,0.0,0.0,0.0,0.0,0.0,0.0,0.0,0.0,0.0,0.0,0.0,0.0,0.0,0.0,0.0,0.0,0.0,0.0,0.0,0.0,0.0,0.0,0.0,0.0,0.0,0.0,0.0,-7.6562,-7.5918,-7.5501,-7.5501,-7.6145,-7.7396,-7.7813,-7.8647,-7.9898,-7.9898,-7.9898,-7.9898,-7.9898,-7.9898,-7.9898,-7.9898,-7.9898,-7.9898,-7.9898,-7.9898,-7.9898,-7.9898,-7.9898,-7.9898,-7.9898,-7.9898,-7.9898,0.0,0.0,0.0,0.0,0.0,0.0,0.0,0.0,0.0,-2.5105,-2.4991,-2.4991,-2.4991,-2.5598,-2.6015,0.0,0.0,0.0,-2.6015,0.0,0.0,0.0,0.0,0.0,0.0,0.0,0.0,0.0,0.0,0.0,0.0,0.0,0.0,0.0,0.0,0.0,0.0,0.0,0.0,-2.9917,-2.9845,-3.0316,-3.0987,-3.0254,-3.0027,-3.0172,-3.0414,-3.0965,-3.1864,-3.371,0.0,0.0,0.0,0.0,-3.4814,-3.6942,-3.8876,-4.1506,0.0,0.0,0.0,0.0,0.0,0.0,0.0,0.0,0.0,0.0,0.0,0.0,0.0,0.0,0.0,0.0,0.0,0.0,0.0,0.0,0.0,0.0,0.0,0.0,0.0,0.0,0.0,0.0,0.0,0.0,-7.8609,-7.7282,-7.6411,-7.6107,-7.5463,-7.5766,-7.7169,-7.7169,-7.7965,-7.9481,-7.9594,-7.9746,-7.9898,-7.9898,-7.9898,-7.9898,-7.9898,-7.9898,-7.9898,-7.9898,-7.9898,-7.9898,-7.9898,-7.9898,-7.9898,-7.9898,-7.9898,-7.9898,0.0,0.0,0.0,0.0,0.0,0.0,0.0,0.0,0.0,0.0,0.0,-2.4991,-2.4991,-2.5105,-2.5181,-2.5181,-2.5181,-2.5181,0.0,0.0,0.0,0.0,0.0,0.0,0.0,0.0,0.0,0.0,0.0,0.0,0.0,0.0,0.0,0.0,0.0,0.0,0.0,0.0,0.0,-2.9159,-2.8478,-2.8309,-2.8491,-2.8345,-2.8345,-2.8548,-3.0056,-3.0675,-3.1139,-3.3576,-3.4389,0.0,0.0,0.0,0.0,0.0,0.0,0.0,0.0,0.0,0.0,0.0,0.0,0.0,0.0,0.0,0.0,0.0,0.0,0.0,0.0,0.0,0.0,0.0,0.0,0.0,0.0,0.0,0.0,0.0,0.0,0.0,0.0,0.0,0.0,0.0,0.0,0.0,-7.8647,-7.8382,-7.7586,-7.6145,-7.5994,-7.6069,-7.6259,-7.6259,-7.679,-7.7737,-7.8457,-7.9177,-7.9898,-7.9898,-7.9898,-7.9898,-7.9898,-7.9898,-7.9898,-7.9898,-7.9898,-7.9898,-7.9898,-7.9898,-7.9898,-7.9898,-7.9898,-7.9898,0.0,0.0,0.0,0.0,0.0,0.0,0.0,0.0,0.0,0.0,0.0,-2.4991,-2.4991,-2.4991,-2.4991,-2.4991,-2.4991,0.0,0.0,0.0,0.0,0.0,0.0,0.0,0.0,0.0,0.0,0.0,0.0,0.0,0.0,-4.0181,-4.1545,0.0,0.0,0.0,0.0,0.0,0.0,-2.906,-2.774,-2.8984,0.0,0.0,-2.905,-3.1371,0.0,0.0,0.0,-3.2261,-3.3267,-3.3654,-3.3654,0.0,0.0,0.0,0.0,0.0,0.0,0.0,0.0,0.0,0.0,0.0,0.0,0.0,0.0,0.0,0.0,0.0,0.0,0.0,0.0,0.0,0.0,0.0,0.0,0.0,0.0,0.0,0.0,0.0,0.0,0.0,0.0,0.0,0.0,-7.8988,-7.8609,-7.8609,-7.8268,-7.751,-7.66,-7.6335,-7.6828,-7.6335,-7.6562,-7.7396,-7.823,-7.8798,-7.9177,-7.967,-7.9898,-7.9898,-7.9898,-7.9898,-7.9898,-7.9898,-7.9898,-7.9898,-7.9898,-7.9898,-7.9898,-7.9898,-7.9898,-7.9898,0.0,0.0,0.0,0.0,0.0,0.0,0.0,0.0,0.0,0.0,0.0,-2.4991,-2.4991,0.0,0.0,0.0,-2.4991,0.0,0.0,0.0,0.0,0.0,0.0,0.0,0.0,0.0,0.0,0.0,0.0,0.0,-4.0454,-4.0746,-4.3728,0.0,-4.5393,0.0,0.0,0.0,0.0,-3.0374,-2.8907,-3.0791,-3.4079,-3.1101,-3.2493,-3.551,0.0,0.0,0.0,0.0,0.0,0.0,0.0,0.0,0.0,0.0,0.0,0.0,0.0,0.0,0.0,0.0,0.0,0.0,0.0,0.0,0.0,0.0,0.0,0.0,0.0,0.0,0.0,0.0,0.0,0.0,0.0,0.0,0.0,0.0,0.0,0.0,0.0,0.0,0.0,0.0,0.0,-7.8382,-7.8609,-7.8609,-7.8609,-7.8609,-7.7396,-7.6941,-7.7396,-7.6562,-7.6449,-7.7093,-7.7889,-7.8382,-7.8647,-7.9481,-7.9898,-7.9898,-7.9898,-7.9898,-7.9898,-7.9898,-7.9898,-7.9898,-7.9898,-7.9898,-7.9898,-7.9946,-7.9988,-7.9988,0.0,0.0,0.0,0.0,0.0,0.0,0.0,0.0,0.0,0.0,0.0,-2.4991,-2.4991,-2.4991,-2.4991,-2.4991,-2.4991,0.0,0.0,0.0,0.0,0.0,0.0,0.0,0.0,0.0,0.0,0.0,0.0,0.0,-4.0797,-4.1503,-4.5017,-5.0658,-4.8029,-4.4123,-3.9289,0.0,0.0,0.0,-3.314,-3.3421,-3.4698,-3.7688,-3.9495,-4.0113,0.0,0.0,0.0,0.0,0.0,0.0,0.0,0.0,0.0,0.0,0.0,0.0,0.0,0.0,0.0,0.0,0.0,0.0,0.0,0.0,0.0,0.0,0.0,0.0,0.0,0.0,0.0,0.0,0.0,0.0,0.0,0.0,0.0,0.0,0.0,0.0,0.0,0.0,0.0,0.0,0.0,-7.7813,-7.8571,-7.8609,-7.8609,-7.8609,-7.8533,-7.8116,-7.7396,-7.6562,-7.6145,-7.6183,-7.7055,-7.7851,-7.8647,-7.9481,-7.9898,-7.9898,-7.9898,-7.9898,-7.9898,-7.9898,-7.9898,-7.9898,-7.9898,-7.9898,-7.9941,-8.0197,-8.0276,-8.0315,0.0,0.0,0.0,0.0,0.0,0.0,0.0,0.0,0.0,0.0,0.0,0.0,0.0,-2.5094,-2.5141,-2.5141,0.0,0.0,0.0,0.0,0.0,0.0,0.0,0.0,0.0,0.0,0.0,0.0,0.0,-3.0182,-3.6709,-3.8078,-4.0746,-4.4485,-4.5722,-4.5258,-4.3285,-3.8489,0.0,0.0,0.0,0.0,0.0,0.0,-4.2434,-4.6032,0.0,0.0,0.0,0.0,0.0,0.0,-3.3604,-3.2483,-3.1526,-3.0172,0.0,0.0,0.0,0.0,0.0,0.0,0.0,0.0,0.0,0.0,0.0,0.0,0.0,0.0,0.0,0.0,0.0,0.0,0.0,0.0,0.0,0.0,0.0,0.0,0.0,0.0,0.0,0.0,0.0,0.0,0.0,0.0,-7.6941,-7.804,-7.8609,-7.8609,-7.8609,-7.7965,-7.66,-7.6259,-7.5842,-7.5349,-7.6752,-7.7548,-7.7889,-7.9253,-7.9898,-7.9898,-7.9898,-7.9898,-7.9898,-7.9898,-7.9898,-7.9898,-7.9898,-7.9988,-8.0157,-8.0276,-8.0392,-8.0576,0.0,0.0,0.0,-2.8261,0.0,-2.6809,-2.5666,0.0,0.0,0.0,0.0,0.0,0.0,0.0,0.0,0.0,0.0,0.0,0.0,0.0,0.0,0.0,0.0,0.0,0.0,0.0,0.0,0.0,0.0,0.0,0.0,0.0,-3.7599,-4.0423,-4.1777,0.0,0.0,0.0,0.0,-3.9881,0.0,0.0,-4.6148,0.0,-4.8043,0.0,0.0,0.0,0.0,0.0,0.0,0.0,0.0,-3.3654,-3.1526,-3.0133,-3.1719,0.0,0.0,0.0,0.0,0.0,0.0,0.0,0.0,0.0,0.0,0.0,0.0,0.0,0.0,0.0,0.0,0.0,0.0,0.0,0.0,0.0,0.0,0.0,0.0,0.0,0.0,0.0,0.0,0.0,0.0,0.0,-7.5653,-7.7017,-7.804,-7.8571,-7.8874,-7.8344,-7.6941,-7.6676,-7.6107,-7.5311,-7.6449,-7.7131,-7.7434,-7.8836,-7.9632,-7.9898,-7.9898,-7.9898,-7.9898,-7.9898,-7.9898,-7.9898,-7.9988,-8.0116,-8.0316,-8.0503,-8.0681,-8.0849,-3.0305,-2.9615,-2.9039,-2.9039,-2.7697,-2.6622,-2.6622,0.0,0.0,0.0,0.0,0.0,0.0,0.0,0.0,0.0,0.0,0.0,0.0,0.0,0.0,0.0,0.0,0.0,0.0,0.0,0.0,0.0,0.0,0.0,0.0,0.0,-3.6052,0.0,-3.6748,-3.8914,-4.433,0.0,-4.3169,-4.3556,0.0,-4.6341,-4.7966,0.0,0.0,0.0,-5.4581,-5.3652,0.0,0.0,0.0,0.0,0.0,-3.5974,-3.1758,-3.0907,-3.1913,0.0,0.0,0.0,0.0,0.0,0.0,0.0,0.0,0.0,0.0,0.0,0.0,0.0,0.0,0.0,0.0,0.0,0.0,0.0,0.0,0.0,0.0,0.0,0.0,0.0,0.0,0.0,0.0,0.0,0.0,-7.3909,-7.4781,-7.5615,-7.6828,-7.8495,-7.9405,-7.9443,-7.8571,-7.7813,-7.7017,-7.6145,-7.6145,-7.66,-7.7434,-7.8192,-7.9069,-7.9903,-7.9903,-7.9903,-7.9941,-7.9941,-7.9941,-7.9984,-8.0197,-8.0354,-8.0392,-8.0914,-8.1099,-8.1128,-3.0479,-3.0198,-2.9972,-3.0017,-2.9598,-2.9255,-2.9255,0.0,0.0,0.0,0.0,0.0,0.0,0.0,0.0,0.0,0.0,0.0,0.0,0.0,0.0,0.0,0.0,0.0,0.0,0.0,0.0,0.0,0.0,0.0,0.0,0.0,0.0,0.0,-3.5162,-3.6942,-3.8914,-3.7483,0.0,0.0,-4.3866,-4.6922,0.0,0.0,0.0,0.0,0.0,-5.7327,-5.5973,0.0,-5.0635,-4.5993,0.0,0.0,-3.4311,-3.2841,-3.4505,-3.64,-3.4543,0.0,0.0,0.0,0.0,0.0,0.0,0.0,0.0,0.0,0.0,0.0,0.0,0.0,0.0,0.0,0.0,0.0,0.0,0.0,0.0,0.0,0.0,0.0,0.0,0.0,0.0,0.0,-7.1521,-7.2166,-7.3037,-7.444,-7.5994,-7.7699,-7.8533,-7.8571,-7.7737,-7.8078,-7.7851,-7.7055,-7.7055,-7.7255,-7.7683,-7.7911,-7.8599,-7.9549,-7.9549,-7.9893,-8.0467,-8.0276,-8.0277,-8.0503,-8.0576,-8.0716,-8.0914,-8.1039,-8.1224,-8.1388,-3.1091,-3.129,-3.1592,-3.1995,-3.205,-3.2027,0.0,0.0,0.0,0.0,0.0,0.0,0.0,0.0,0.0,0.0,0.0,0.0,0.0,0.0,0.0,0.0,0.0,0.0,0.0,0.0,0.0,0.0,0.0,0.0,0.0,0.0,0.0,0.0,0.0,-3.3383,-3.5704,0.0,0.0,0.0,-4.5916,0.0,0.0,-5.5548,-5.7714,0.0,0.0,0.0,-5.8758,-5.7907,-5.4,0.0,0.0,-3.9959,-3.7909,-3.5858,-3.7406,0.0,0.0,0.0,0.0,0.0,0.0,0.0,0.0,0.0,0.0,0.0,0.0,0.0,0.0,0.0,0.0,0.0,0.0,0.0,0.0,0.0,0.0,0.0,0.0,0.0,0.0,0.0,0.0,-7.0536,-7.0915,-7.1483,-7.2355,-7.4104,-7.5512,-7.65,-7.8102,-7.8713,-7.8256,-7.8713,-7.8522,-7.7722,-7.738,-7.7264,-7.7447,-7.7447,-7.7938,-7.8913,-7.9259,-7.9747,-8.0312,-8.0562,-8.0681,-8.0716,-8.0849,-8.0977,-8.1099,-8.1253,-8.1362,-8.1504,0.0,-3.2483,-3.3305,-3.435,-3.4543,-3.4621,0.0,0.0,0.0,0.0,0.0,0.0,0.0,0.0,0.0,0.0,0.0,0.0,0.0,0.0,0.0,0.0,0.0,0.0,0.0,0.0,0.0,0.0,0.0,0.0,0.0,0.0,0.0,0.0,-2.7116,-2.9437,-3.3692,-3.1294,0.0,-4.2667,-4.874,-5.1757,0.0,0.0,-5.9803,0.0,-6.0847,-6.1118,-6.0963,-6.0074,-5.6128,0.0,0.0,-4.4794,-4.2473,-3.9843,-4.0848,0.0,-4.081,-4.1622,0.0,0.0,0.0,0.0,-4.7773,-4.7811,0.0,0.0,0.0,0.0,0.0,0.0,0.0,0.0,0.0,0.0,0.0,0.0,0.0,0.0,0.0,0.0,0.0,-6.9247,-6.974,-6.974,-7.0498,-7.1332,-7.2203,-7.3915,-7.4976,-7.5167,-7.7667,-7.9067,-7.9259,-7.9374,-7.9105,-7.8453,-7.7495,-7.7067,-7.7067,-7.6875,-7.7259,-7.8097,-7.898,-7.953,-7.9895,-8.0781,-8.1008,-8.0817,-8.1039,-8.1128,-8.1157,-8.1388,-8.1504,-8.1504,-3.256,-3.2406,-3.2764,-3.5046,-3.5433,-3.6129,0.0,0.0,0.0,0.0,0.0,0.0,0.0,0.0,0.0,0.0,0.0,0.0,0.0,0.0,0.0,0.0,0.0,0.0,0.0,0.0,0.0,0.0,0.0,0.0,0.0,0.0,0.0,0.0,-2.7232,-2.8702,-3.0559,0.0,0.0,-4.3169,-4.4485,0.0,-5.547,-5.7172,-5.9068,-6.0886,-6.1041,-6.1118,-6.0886,0.0,-5.7598,-5.5354,0.0,0.0,-4.8546,-4.5336,-4.6187,-4.7811,-4.6071,-4.7347,-4.8469,-4.5568,0.0,0.0,0.0,-4.433,0.0,0.0,0.0,0.0,0.0,0.0,0.0,0.0,0.0,0.0,0.0,0.0,0.0,0.0,0.0,0.0,0.0,-6.8375,-6.883,-6.883,-6.9626,-7.0498,-7.1294,-7.1936,-7.2879,-7.4214,-7.5604,-7.7035,-7.8415,-7.9105,-7.968,-8.0179,-7.8683,-7.8052,-7.8199,-7.6842,-7.6773,-7.7821,-7.8709,-7.9469,-8.019,-8.104,-8.1388,-8.1335,-8.1388,-8.1427,-8.1453,-8.1478,-8.1504,-8.1504,-3.2908,-3.346,-3.4543,-3.7135,-3.7947,0.0,0.0,0.0,0.0,0.0,0.0,0.0,0.0,0.0,0.0,0.0,0.0,0.0,0.0,0.0,0.0,0.0,0.0,0.0,0.0,0.0,0.0,0.0,0.0,0.0,0.0,0.0,0.0,0.0,0.0,0.0,0.0,0.0,-3.9417,-4.3595,-4.6999,0.0,-5.6824,-5.8565,-5.9996,-6.1118,-6.1118,-6.1118,-6.0847,-5.9184,-5.8023,0.0,0.0,-5.284,-5.2337,0.0,-5.0248,-5.1215,-4.9475,-4.9939,-5.0519,-4.8817,0.0,0.0,0.0,0.0,0.0,0.0,0.0,0.0,0.0,0.0,0.0,0.0,0.0,0.0,0.0,0.0,0.0,0.0,0.0,0.0,0.0,-6.7202,-6.7888,-6.8307,-6.9141,-6.979,-7.0171,-7.1242,-7.2433,-7.3699,-7.5207,-7.663,-7.794,-7.9172,-7.9596,-7.9211,-7.8787,-7.8227,-7.7486,-7.6598,-7.6494,-7.7132,-7.8409,-7.9221,-7.9685,-8.1001,-8.1504,-8.1504,-8.1504,-8.1504,-8.1504,-8.1504,-8.1504,-8.1504,-3.3267,-3.435,-3.6013,-3.8528,0.0,0.0,0.0,0.0,0.0,0.0,0.0,0.0,0.0,0.0,0.0,0.0,0.0,0.0,0.0,0.0,0.0,0.0,0.0,-2.994,0.0,0.0,0.0,0.0,0.0,0.0,0.0,0.0,0.0,0.0,0.0,0.0,0.0,0.0,0.0,-4.5761,0.0,-5.4426,-5.6167,-5.9223,-6.0383,-6.0422,-6.0925,-6.1118,-6.0886,-5.9339,0.0,-5.7482,-5.5625,-5.5393,0.0,0.0,0.0,0.0,0.0,0.0,0.0,0.0,0.0,-4.901,0.0,0.0,0.0,-4.8043,0.0,0.0,0.0,0.0,0.0,0.0,0.0,0.0,0.0,0.0,0.0,0.0,0.0,0.0,0.0,-6.513,-6.6126,-6.7496,-6.788,-6.8339,-6.9059,-7.0744,-7.2199,-7.3201,-7.4833,-7.6243,-7.7442,-7.8796,-7.9028,-7.8177,-7.8564,-7.8099,-7.69,-7.6552,-7.6397,-7.6475,-7.8061,-7.8834,-7.9105,-8.0653,-8.1349,-8.1504,-8.1504,-8.1504,-8.1504,-8.1504,-8.1504,-8.1504,-3.3808,-3.3808,-3.4195,-3.6748,0.0,0.0,0.0,0.0,0.0,0.0,0.0,0.0,0.0,0.0,0.0,0.0,0.0,0.0,-4.3479,0.0,0.0,0.0,-3.3151,-3.2222,-3.377,0.0,0.0,0.0,0.0,0.0,0.0,0.0,-2.7696,-2.9553,-3.1719,0.0,0.0,0.0,-4.5568,0.0,-5.3188,-5.2337,0.0,-5.5896,-5.7753,-5.8023,-6.0306,-6.1118,-6.0963,0.0,-5.9687,-5.9184,0.0,-5.7443,-5.8836,-5.6321,0.0,0.0,0.0,0.0,0.0,0.0,-5.4194,0.0,0.0,0.0,-4.7231,-4.4562,0.0,0.0,0.0,0.0,0.0,0.0,0.0,0.0,0.0,0.0,0.0,0.0,0.0,0.0,0.0,0.0,-6.2421,-6.5552,-6.4517,-6.5053,-6.8071,-6.9333,-7.0696,-7.2315,-7.2785,-7.4154,-7.6514,-7.6746,-7.7867,-7.9918,-7.8525,-7.8138,-7.8641,-7.7094,-7.6397,-7.6436,-7.7442,-7.8293,-7.9067,-7.9995,-8.0807,-8.1504,-8.1504,-8.1504,-8.1504,-8.1504,-8.1504,-8.1504,-3.2687,-3.3421,-3.4505,-3.6555,0.0,0.0,0.0,0.0,0.0,0.0,0.0,0.0,0.0,0.0,0.0,0.0,0.0,-4.7966,0.0,0.0,0.0,-3.8489,-3.6052,-3.4891,-3.5162,0.0,0.0,0.0,-2.9592,0.0,0.0,0.0,-3.0675,-3.3808,-3.5897,0.0,-4.5374,0.0,0.0,0.0,0.0,0.0,0.0,-5.7018,-5.9493,-5.9648,-6.0731,-6.1427,-6.166,0.0,-5.988,0.0,0.0,0.0,0.0,0.0,0.0,0.0,0.0,0.0,0.0,0.0,0.0,0.0,-4.8701,0.0,-4.6922,0.0,0.0,0.0,0.0,0.0,0.0,0.0,0.0,0.0,0.0,0.0,0.0,0.0,0.0,0.0,0.0,0.0,0.0,0.0,0.0,-6.3207,-6.6136,-6.812,-6.9942,-7.1603,-7.2291,-7.3574,-7.5624,-7.6165,-7.6939,-7.7983,-7.779,-7.7635,-7.7481,-7.6707,-7.6397,-7.6436,-7.7326,-7.8177,-7.9067,-7.9879,-8.073,-8.1504,-8.1504,-8.1504,-8.1504,-8.1504,-8.1504,-8.1504,-3.2416,0.0,0.0,0.0,0.0,0.0,-4.3092,-4.7192,-4.9668,0.0,0.0,0.0,-5.4813,-5.4542,0.0,0.0,0.0,-5.2531,0.0,0.0,-4.4755,-4.2705,-3.9611,0.0,0.0,0.0,0.0,0.0,0.0,0.0,0.0,0.0,0.0,-3.6671,0.0,-4.3595,-4.9281,0.0,0.0,-5.2453,-5.1989,-5.2221,-5.3343,-5.8217,-6.0499,-6.1118,-6.1118,-6.166,-6.2201,-6.0731,-6.0383,0.0,-6.0306,0.0,0.0,0.0,0.0,0.0,-5.93,0.0,0.0,0.0,0.0,0.0,0.0,0.0,0.0,0.0,0.0,0.0,0.0,0.0,0.0,0.0,0.0,0.0,0.0,0.0,0.0,0.0,0.0,0.0,0.0,0.0,0.0,0.0,0.0,0.0,-6.4445,-6.6843,-6.897,-7.0866,-7.1794,-7.3071,-7.4773,-7.5392,-7.6049,-7.6746,-7.7171,-7.7132,-7.6746,-7.6514,-7.6397,-7.6436,-7.7055,-7.7829,-7.8718,-7.9531,-8.0382,-8.1194,-8.1426,-8.1504,-8.1504,-8.1504,-8.1504,-8.1504,-3.4002,-3.435,0.0,0.0,0.0,0.0,-4.3904,-4.6071,-4.8082,0.0,0.0,0.0,0.0,0.0,0.0,0.0,0.0,-5.7985,-5.7018,0.0,-4.8933,-5.048,-4.4214,-4.1429,0.0,-3.8914,-3.5974,-3.4311,0.0,0.0,0.0,0.0,0.0,0.0,0.0,-4.4369,-4.8585,-5.0983,-5.4929,-5.9416,-5.7753,-5.8526,-6.0499,0.0,-5.8952,-6.1118,-6.1118,0.0,0.0,-6.135,-6.1621,0.0,0.0,0.0,0.0,0.0,0.0,0.0,0.0,0.0,0.0,-5.4813,0.0,0.0,0.0,0.0,-4.9126,0.0,0.0,0.0,0.0,0.0,0.0,0.0,0.0,0.0,0.0,0.0,0.0,0.0,0.0,0.0,0.0,0.0,0.0,0.0,0.0,0.0,-6.3362,-6.5373,-6.7423,-6.9938,-7.0905,-7.2181,-7.3922,-7.396,-7.5237,-7.7635,-7.6823,-7.6862,-7.7635,-7.6784,-7.6397,-7.6397,-7.6436,-7.6939,-7.779,-7.868,-7.9531,-8.0343,-8.1194,-8.1504,-8.1504,-8.1504,-8.1504,-8.1504,0.0,0.0,0.0,0.0,0.0,0.0,-4.4639,-4.8778,0.0,0.0,0.0,0.0,0.0,0.0,-6.2356,0.0,0.0,-6.1118,-5.9145,-5.6051,0.0,0.0,0.0,-4.6689,0.0,0.0,-4.0307,-3.8644,-3.6323,0.0,0.0,0.0,0.0,0.0,0.0,-4.5877,0.0,0.0,0.0,0.0,0.0,-5.8836,-6.1002,0.0,0.0,-6.1195,-6.1737,-6.2511,0.0,-6.3594,-6.3478,-6.3323,-6.3594,-6.2472,-6.135,-6.2472,-6.2394,0.0,0.0,0.0,-6.2588,-5.8023,0.0,0.0,0.0,0.0,0.0,0.0,0.0,0.0,0.0,0.0,0.0,0.0,0.0,0.0,0.0,0.0,0.0,0.0,0.0,0.0,0.0,0.0,0.0,0.0,0.0,0.0,0.0,-6.4367,-6.6843,-6.8313,-7.0286,-7.1872,-7.3032,-7.3612,-7.4618,-7.5972,-7.6281,-7.6552,-7.6823,-7.6514,-7.6397,-7.6397,-7.6397,-7.69,-7.7713,-7.8022,-7.895,-8.0227,-8.0536,-8.1001,-8.1504,-8.1504,-8.1504,-8.1504,-3.8721,0.0,0.0,0.0,0.0,0.0,0.0,0.0,0.0,0.0,-5.9803,0.0,-6.4329,0.0,-6.4445,0.0,-6.5257,-6.3748,-6.1853,-5.9532,0.0,-5.7095,-5.3498,0.0,0.0,0.0,-4.4446,-4.2164,0.0,-3.8721,0.0,0.0,0.0,0.0,0.0,0.0,0.0,0.0,-5.5818,0.0,0.0,-5.9841,0.0,0.0,-6.1543,-6.166,0.0,-6.3168,-6.4251,-6.4793,-6.4831,-6.4677,-6.5257,-6.4058,-6.2704,-6.3826,-6.3555,-6.2975,-6.3555,-6.4097,0.0,-5.9957,-5.8217,0.0,-5.1641,0.0,0.0,0.0,0.0,0.0,0.0,0.0,0.0,0.0,0.0,0.0,0.0,0.0,0.0,0.0,0.0,0.0,0.0,0.0,-4.8469,-5.1873,0.0,0.0,0.0,0.0,-6.5992,-6.7462,-6.9667,-7.1407,-7.2607,-7.3148,-7.3999,-7.5121,-7.5662,-7.6088,-7.6397,-7.6397,-7.6397,-7.6397,-7.6397,-7.6707,-7.7248,-7.7558,-7.8332,-7.9337,-7.9647,-8.0304,-8.1078,-8.1387,-8.1504,-8.1504,0.0,0.0,0.0,0.0,-4.3169,0.0,0.0,0.0,-5.9145,0.0,-6.2743,-6.4445,-6.6147,-6.634,-6.6998,-6.8661,-6.7268,0.0,-6.518,-6.2008,0.0,0.0,-5.7327,-5.5432,-5.6167,0.0,0.0,0.0,0.0,0.0,0.0,0.0,0.0,0.0,-4.3788,0.0,-5.0016,-5.5006,-5.8681,-6.1118,-6.1157,-6.166,-6.2394,-6.2472,-6.2511,-6.2549,-6.2549,-6.3594,-6.4986,-6.5064,-6.5566,-6.6185,-6.6185,-6.5682,-6.5064,-6.5064,-6.4483,-6.3826,-6.3826,-6.3826,-6.3207,-6.077,0.0,0.0,0.0,0.0,-5.547,0.0,0.0,0.0,0.0,0.0,0.0,0.0,0.0,0.0,0.0,0.0,0.0,0.0,0.0,0.0,0.0,0.0,-4.6071,-4.9397,-5.0442,0.0,0.0,0.0,-6.4754,-6.7346,-6.9087,-7.0827,-7.2529,-7.2568,-7.3419,-7.5044,-7.5082,-7.5546,-7.6397,-7.6397,-7.6397,-7.6397,-7.6397,-7.6397,-7.6436,-7.7287,-7.7674,-7.779,-7.8641,-7.9531,-8.0382,-8.1194,-8.1504,-8.1504,-4.2164,-4.4214,-4.6303,0.0,-4.5877,-4.7115,0.0,0.0,0.0,0.0,-6.4522,-6.6224,-6.7926,-6.8119,-6.8313,-6.8777,-6.839,0.0,0.0,0.0,0.0,-6.398,-6.1118,-5.93,-5.8913,-5.4697,-5.1447,-4.9281,0.0,0.0,-4.1313,0.0,0.0,0.0,0.0,0.0,-4.99,-5.3111,-5.7056,-6.1157,-6.1814,-6.2201,0.0,0.0,-6.3748,-6.4329,-6.4329,-6.4599,-6.5102,-6.5682,-6.6031,-6.6185,-6.6185,-6.6069,-6.5876,-6.5876,-6.5721,-6.5566,-6.5566,-6.5566,-6.5257,-6.398,-6.224,-6.0306,0.0,0.0,0.0,0.0,0.0,0.0,0.0,0.0,0.0,0.0,0.0,0.0,0.0,0.0,0.0,0.0,0.0,0.0,0.0,-4.5297,-4.6457,-4.8585,-5.0094,0.0,0.0,0.0,0.0,-6.6417,-6.8777,-7.0518,-7.1601,-7.2297,-7.3148,-7.4231,-7.4811,-7.5546,-7.6397,-7.6397,-7.6397,-7.6397,-7.6397,-7.6397,-7.6397,-7.663,-7.7132,-7.779,-7.8641,-7.9879,-8.1194,-8.1426,-8.1504,-8.1504,-4.5336,0.0,0.0,-5.2801,0.0,0.0,-5.694,0.0,0.0,-6.4329,-6.6263,0.0,-6.87,-6.9435,-6.9899,-6.9899,-6.9551,0.0,-6.8119,0.0,0.0,-6.5566,-6.4097,-6.2781,-6.1582,-5.8101,0.0,-5.1486,0.0,0.0,-4.1467,0.0,0.0,0.0,0.0,-4.5142,0.0,-5.3691,-5.7791,-6.1195,-6.2046,0.0,0.0,-6.4058,-6.4793,-6.5528,-6.5528,-6.5528,-6.5605,-6.6031,-6.6185,-6.6185,-6.6185,-6.6185,-6.6185,-6.6185,-6.6185,-6.6185,-6.6185,-6.6185,-6.6108,-6.5644,-6.4406,-6.2936,-6.135,-6.1002,-6.0615,0.0,0.0,0.0,0.0,0.0,0.0,0.0,0.0,0.0,0.0,0.0,0.0,0.0,0.0,0.0,0.0,-4.5026,-4.5877,-4.7154,-4.9513,0.0,0.0,0.0,0.0,-6.5025,-6.7578,-6.9473,-7.0711,-7.1601,-7.2452,-7.3342,-7.4193,-7.5005,-7.5856,-7.6243,-7.6397,-7.6397,-7.6397,-7.6397,-7.6397,-7.6397,-7.6668,-7.7248,-7.8525,-7.9801,-8.1001,-8.1349,-8.1504,-8.1504,0.0,0.0,0.0,0.0,0.0,0.0,0.0,-6.2588,0.0,-6.6301,0.0,-6.9125,-6.9125,-7.044,-7.1291,-7.1291,0.0,-6.9821,-6.9009,-6.897,-6.8236,-6.6611,-6.6417,-6.5644,-6.4058,-6.1311,-5.7482,0.0,0.0,0.0,0.0,0.0,0.0,0.0,0.0,0.0,0.0,-5.5432,-5.9532,0.0,-6.224,-6.3555,-6.4986,-6.5102,-6.5605,-6.6185,-6.6185,-6.6185,-6.6185,-6.6185,-6.6185,-6.6185,-6.6185,-6.6185,-6.6185,-6.6185,-6.6185,-6.6185,-6.6185,-6.6185,-6.6185,-6.6185,-6.6185,-6.5605,-6.34,-6.2897,-6.2665,-6.193,-6.0422,-5.9919,0.0,0.0,0.0,0.0,0.0,0.0,0.0,0.0,0.0,0.0,0.0,0.0,0.0,-4.4949,-4.5181,-4.5761,0.0,0.0,0.0,0.0,0.0,-6.3632,-6.6185,-6.8313,-6.9976,0.0,-7.1756,-7.2607,-7.3496,-7.4309,-7.5121,-7.6011,-7.6397,-7.6397,-7.6397,-7.6397,-7.6397,-7.6397,-7.6475,-7.6707,-7.837,-7.9492,-8.0304,-8.1194,-8.1504,-8.1504,0.0,0.0,0.0,0.0,0.0,-6.3516,-6.5799,-6.5373,-6.5644,-6.8042,-6.9821,-7.0866,-7.0866,-7.1137,-7.1291,-7.1291,-7.1175,0.0,0.0,0.0,0.0,-6.839,-6.7655,-6.6804,-6.576,-6.1892,-5.8062,0.0,-4.9784,-4.522,0.0,0.0,0.0,0.0,0.0,0.0,-5.2608,-5.6051,0.0,-6.224,-6.3129,-6.4097,-6.5064,-6.5721,-6.6069,-6.6185,-6.6185,-6.6185,-6.6185,-6.6185,-6.6185,-6.6185,-6.6185,-6.6185,-6.6185,-6.6185,-6.6185,-6.6185,-6.6185,-6.6185,-6.6185,-6.6185,-6.6185,-6.6069,-6.5644,-6.5528,-6.5489,-6.5334,-6.398,-6.2704,-6.2472,0.0,0.0,0.0,0.0,0.0,0.0,0.0,0.0,0.0,0.0,0.0,0.0,0.0,-4.6419,0.0,0.0,0.0,0.0,0.0,0.0,0.0,-6.6185,0.0,0.0,0.0,-7.1756,-7.2607,-7.3496,-7.4309,-7.5121,-7.6011,-7.6397,-7.6397,-7.6397,-7.6397,-7.6397,-7.6397,-7.6823,-7.7558,-7.8602,-7.9492,-8.0304,-8.1194,-8.1504,-8.1504,0.0,0.0,0.0,0.0,0.0,0.0,0.0,-6.9633,0.0,-7.0054,-7.0402,-7.0634,-7.0634,-7.1021,-7.1291,-7.1291,-7.1291,-7.1137,-7.0789,-7.0789,-7.044,-6.9667,-6.9241,0.0,-6.6456,-6.3535,-5.99,-5.5531,-5.127,-4.6742,0.0,0.0,0.0,0.0,0.0,-4.8778,0.0,0.0,0.0,-6.2511,-6.3826,-6.487,-6.5644,-6.6031,-6.6185,-6.6185,-6.6185,-6.6185,-6.6185,-6.6185,-6.6185,-6.6185,-6.6185,-6.6185,-6.6185,-6.6185,-6.6185,-6.6185,-6.6185,-6.6185,-6.6185,-6.6185,-6.6185,-6.6185,-6.6185,-6.6185,-6.6069,-6.5644,-6.4948,-6.371,-6.1505,-5.8294,0.0,0.0,0.0,0.0,0.0,0.0,0.0,0.0,0.0,0.0,0.0,0.0,0.0,0.0,0.0,0.0,0.0,0.0,0.0,0.0,0.0,0.0,0.0,0.0,0.0,-7.1949,-7.3264,-7.4115,-7.4541,-7.5817,-7.6397,-7.6397,-7.6397,-7.6397,-7.6397,-7.6397,-7.69,-7.779,-7.8641,-7.9492,-8.0304,-8.1194,-8.1504,-8.1504,0.0,-6.3439,0.0,0.0,-6.8297,0.0,-7.168,-7.3237,-7.3651,-7.2104,-7.1253,-7.0827,-7.0827,-7.1291,-7.1601,-7.1601,-7.1446,-7.1407,-7.1523,-7.1551,-7.1281,-7.068,-7.0486,-6.944,-6.7444,-6.5526,-6.2177,0.0,-5.37,0.0,0.0,0.0,-4.3053,-4.1893,0.0,0.0,0.0,0.0,-6.1234,-6.3091,-6.4445,-6.5489,-6.6185,-6.6185,-6.6185,-6.6185,-6.6185,-6.6185,-6.6185,-6.6185,-6.6185,-6.6185,-6.6185,-6.6185,-6.6185,-6.6185,-6.6185,-6.6185,-6.6185,-6.6185,-6.6185,-6.6185,-6.6185,-6.6185,-6.6185,-6.6069,-6.576,-6.5141,-6.4831,-6.3671,-6.0228,-5.8372,0.0,0.0,0.0,0.0,0.0,0.0,0.0,0.0,0.0,0.0,0.0,0.0,0.0,0.0,0.0,0.0,0.0,0.0,0.0,0.0,0.0,-6.5528,-6.723,0.0,-7.1098,-7.133,-7.2877,-7.3728,-7.396,-7.543,-7.6204,-7.6397,-7.6397,-7.6397,-7.6397,-7.6397,-7.6784,-7.7519,-7.8602,-7.9376,-8.0072,-8.1117,-8.1504,-8.1504,0.0,0.0,0.0,0.0,0.0,0.0,0.0,-7.4121,-7.4827,-7.396,-7.3651,-7.3535,-7.3535,-7.2916,-7.2529,-7.2645,-7.1949,-7.1523,-7.1678,-7.1669,-7.1665,-7.1587,-7.0809,-7.0302,-7.0069,-6.7615,-6.4605,0.0,0.0,-5.1927,0.0,0.0,-4.6689,-4.8856,0.0,0.0,0.0,-6.0151,-6.2433,-6.4754,-6.4909,-6.5489,-6.6185,-6.6185,-6.6185,-6.6185,-6.6185,-6.6185,-6.6185,-6.6185,-6.6185,-6.6185,-6.6185,-6.6185,-6.6185,-6.6185,-6.6185,-6.6185,-6.6185,-6.6185,-6.6185,-6.6185,-6.6185,-6.6185,-6.6185,-6.5644,-6.5102,-6.5025,-6.4367,-6.2781,-5.9339,-6.0422,-6.0538,0.0,0.0,0.0,0.0,0.0,-5.4271,-5.3149,0.0,0.0,0.0,0.0,0.0,0.0,0.0,0.0,0.0,0.0,0.0,-5.9725,0.0,-6.4638,-6.6301,-6.8854,-7.0518,-7.1291,-7.2258,-7.3148,-7.3922,-7.4811,-7.5662,-7.6397,-7.6397,-7.6397,-7.6397,-7.6397,-7.6436,-7.6668,-7.8332,-7.9067,-7.9299,-8.0923,-8.1504,-8.1504,0.0,0.0,0.0,0.0,0.0,0.0,0.0,-7.5624,-7.5895,-7.574,-7.5082,-7.4657,-7.4734,-7.3999,-7.3557,-7.3635,-7.2906,-7.2436,-7.2534,-7.2056,-7.1796,-7.188,-7.1534,-7.1104,-7.0596,-6.9113,-6.6622,0.0,0.0,0.0,0.0,0.0,0.0,0.0,0.0,-5.8372,-6.0267,-6.2472,-6.4019,-6.5025,-6.5528,-6.5915,-6.6185,-6.6185,-6.6185,-6.6185,-6.6185,-6.6185,-6.6185,-6.6185,-6.6185,-6.6185,-6.6185,-6.6185,-6.6185,-6.6185,-6.6185,-6.6185,-6.6185,-6.6185,-6.6185,-6.6185,-6.6185,-6.6185,-6.6185,-6.5566,-6.4831,-6.4329,-6.3091,-6.1737,-6.0344,-6.0112,-5.988,0.0,0.0,0.0,0.0,0.0,0.0,-5.2917,0.0,-4.8972,0.0,0.0,0.0,0.0,0.0,-4.6187,-5.048,0.0,0.0,-5.7443,0.0,-6.4793,-6.545,-6.9009,-7.0943,-7.1291,-7.2181,-7.3071,-7.3922,-7.4734,-7.5585,-7.6397,-7.6397,-7.6397,-7.6397,-7.6397,-7.6397,-7.6514,-7.7751,-7.8216,-7.8409,-8.0111,-8.073,-8.0807,-7.2126,0.0,-7.1971,0.0,-7.4254,-7.4425,-7.6498,-7.6591,-7.6514,-7.6769,-7.6105,-7.5622,-7.5724,-7.502,-7.4557,-7.4624,-7.3873,-7.3455,-7.3527,-7.2983,-7.2568,-7.2382,-7.2383,0.0,-7.1094,-7.0273,-6.8507,-6.5712,-6.3058,0.0,0.0,-5.5818,0.0,0.0,-6.0692,-6.2201,-6.3129,-6.5218,-6.6108,-6.6185,-6.6727,-6.6959,-6.6959,-6.6959,-6.6959,-6.6959,-6.6959,-6.6959,-6.6959,-6.6959,-6.6959,-6.6882,-6.6379,-6.6185,-6.6185,-6.6185,-6.6185,-6.6185,-6.6185,-6.6185,-6.6185,-6.6185,-6.6185,-6.6185,-6.6185,-6.5373,-6.429,-6.3168,-6.1969,-6.1118,-6.1118,-6.0112,-5.9571,-6.0267,0.0,0.0,0.0,-5.6786,0.0,0.0,-5.048,-4.9165,-4.8817,0.0,0.0,0.0,0.0,-4.7308,-5.1331,0.0,0.0,0.0,0.0,0.0,0.0,-6.9048,-7.1059,-7.1291,-7.191,-7.28,-7.396,-7.5005,-7.5817,-7.6397,-7.6397,-7.6397,-7.6397,-7.6397,-7.6397,-7.6475,-7.7365,-7.7713,-7.7906,-7.9569,-8.0188,-8.0343,-7.3712,-7.396,-7.4463,-7.6436,-7.6514,-7.6436,-7.6769,-7.6668,-7.663,-7.6808,-7.6816,-7.6777,-7.6776,-7.5999,-7.5541,-7.5647,-7.4895,-7.4421,-7.4569,-7.457,-7.4179,0.0,0.0,-7.289,-7.1992,-7.1133,-7.0234,-6.9336,0.0,0.0,-6.1389,-6.0344,-6.1157,-6.3671,-6.5373,-6.6611,-6.7501,-6.839,-6.8738,-6.8738,-6.8777,-6.8777,-6.8777,-6.8777,-6.8777,-6.8777,-6.8777,-6.8777,-6.8777,-6.8777,-6.8777,-6.8468,-6.6727,-6.6185,-6.6185,-6.6185,-6.6185,-6.6185,-6.6185,-6.6185,-6.6185,-6.6185,-6.6185,-6.6185,-6.6185,-6.4909,-6.3207,-6.1505,-6.1118,-6.1118,-6.1118,-6.1079,-6.0538,-5.8913,0.0,0.0,0.0,0.0,0.0,-5.2492,-4.9939,-4.874,-4.9591,0.0,0.0,0.0,0.0,0.0,-5.5741,0.0,0.0,-6.0847,-6.2781,0.0,-6.6185,-6.8738,-7.044,-7.1291,-7.1291,-7.222,-7.396,-7.5624,-7.6397,-7.6397,-7.6397,-7.6397,-7.6397,-7.6397,-7.6397,-7.6475,-7.7365,-7.7713,-7.7906,-7.9569,-8.0188,-8.0343,-7.5802,-7.5817,-7.5933,-7.6692,-7.663,-7.6591,-7.6769,-7.6749,-7.6782,-7.6931,-7.6919,-7.6961,-7.704,-7.6725,-7.6582,0.0,-7.5943,-7.5433,0.0,-7.4922,-7.4492,-7.4219,-7.418,-7.3789,-7.289,-7.2617,-7.1758,-7.0273,0.0,0.0,0.0,-6.5238,-6.5741,-6.6456,-6.7578,-6.8197,-6.839,-6.87,-6.8816,-6.8816,-6.8816,-6.8816,-6.8816,-6.8816,-6.8816,-6.8816,-6.8816,-6.8816,-6.8816,-6.8816,-6.8816,-6.87,-6.8158,-6.7578,-6.6959,-6.6379,-6.6185,-6.6185,-6.6185,-6.6185,-6.6185,-6.6185,-6.6185,-6.6185,-6.6185,-6.4909,-6.3362,-6.224,-6.1505,-6.1118,-6.1118,-6.1118,-6.0925,-6.0383,-6.0306,0.0,0.0,0.0,-5.5509,-5.4116,-5.3265,-5.2647,0.0,-5.2337,0.0,0.0,0.0,0.0,0.0,0.0,0.0,0.0,-6.3864,0.0,-6.6185,-6.9319,-7.1021,-7.1291,-7.1291,-7.222,-7.396,-7.5005,-7.5856,-7.6397,-7.6397,-7.6397,-7.6397,-7.6397,-7.6397,-7.6436,-7.6707,-7.6823,-7.6939,-7.8061,-7.8486,-7.8718,-7.671,-7.6682,-7.6668,-7.6707,-7.6708,-7.673,-7.6869,-7.6885,-7.6902,-7.7063,-7.7079,-7.7095,-7.719,-7.7127,0.0,-7.7187,-7.6719,-7.6406,-7.6406,-7.5898,-7.543,-7.5117,-7.5078,-7.4687,-7.3828,0.0,0.0,-7.168,-7.039,-6.9347,-6.8565,-6.8707,-6.8876,-6.9168,-6.9593,-6.9783,-6.9744,-6.9744,-6.9744,-6.9744,-6.9744,-6.9744,-6.9744,-6.9744,-6.9744,-6.9744,-6.9744,-6.9744,-6.9744,-6.9744,-6.9744,-6.9667,-6.9357,-6.8893,-6.8274,-6.7423,-6.7191,-6.7114,-6.6766,-6.6688,-6.6611,-6.6263,-6.6185,-6.6108,-6.5837,-6.4677,-6.3439,-6.2588,-6.1698,-6.1118,-6.1118,-6.1118,-6.1118,-6.1118,-6.0422,-5.9609,-5.872,0.0,-5.5702,0.0,0.0,0.0,0.0,-5.5045,0.0,0.0,0.0,0.0,0.0,0.0,0.0,-6.046,-6.5064,0.0,-6.7191,-6.9938,-7.1291,-7.1291,-7.164,-7.2529,-7.3922,-7.4734,-7.5585,-7.6397,-7.6397,-7.6397,-7.6397,-7.6397,-7.6397,-7.6397,-7.6397,-7.6397,-7.6514,-7.7365,-7.7713,-7.7906,-7.6636,-7.6711,0.0,0.0,-7.6743,0.0,-7.7,-7.7014,-7.7052,-7.7169,-7.7207,-7.7182,-7.7184,-7.7187,-7.7187,-7.7187,0.0,0.0,0.0,-7.7187,-7.6836,-7.6015,-7.5976,-7.5586,-7.4726,-7.3906,-7.3437,-7.3398,-7.164,-7.1172,-7.1875,-7.0823,-7.0732,-7.149,-7.1378,-7.133,-7.1291,-7.1291,-7.1291,-7.1291,-7.1291,-7.1291,-7.1291,-7.1291,-7.1291,-7.1291,-7.1291,-7.1291,-7.1291,-7.1291,-7.1291,-7.1175,-7.0363,-7.0092,-6.9899,-6.9048,-6.8816,-6.8622,-6.781,-6.7578,-6.7384,-6.6495,-6.6224,-6.5992,-6.5257,-6.4406,-6.3516,-6.2665,-6.1814,-6.1157,-6.1118,-6.1118,-6.1079,-6.1041,-6.0344,-5.9493,-5.8642,-5.7095,-5.5818,0.0,0.0,0.0,0.0,-5.6592,-5.783,0.0,0.0,0.0,0.0,0.0,-5.9571,-6.3555,-6.6224,-6.7965,-6.8777,-7.044,-7.1291,-7.1291,-7.2104,-7.2993,-7.3922,-7.4695,-7.5508,-7.6397,-7.6397,-7.6397,-7.6397,-7.6397,-7.6397,-7.6397,-7.6397,-7.6397,-7.6514,-7.7287,-7.7597,-7.7713,0.0,0.0,-7.6962,-7.6924,-7.6936,-7.7015,-7.7121,-7.7146,-7.7146,-7.7185,-7.7185,-7.7204,-7.7187,-7.7187,-7.7187,-7.7187,-7.7187,-7.7187,-7.7187,-7.7187,-7.7109,-7.6914,-7.6875,-7.6484,-7.5625,-7.539,-7.4961,-7.4297,-7.3203,-7.2773,-7.293,-7.1984,-7.1594,-7.1629,-7.1605,-7.1485,-7.1291,-7.1291,-7.1291,-7.1291,-7.1291,-7.1291,-7.1291,-7.1291,-7.1291,-7.1291,-7.1291,-7.1291,-7.1291,-7.1291,-7.1291,-7.1253,-7.1059,-7.0982,-7.0711,-6.9241,-6.8816,-6.8738,-6.8545,-6.8506,-6.8274,-6.7423,-6.6688,-6.6147,-6.5953,-6.5296,-6.4445,-6.3555,-6.2704,-6.1892,-6.1234,-6.1118,-6.0886,-6.0267,-5.9455,-5.8604,-5.7714,-5.725,0.0,0.0,-5.7869,-5.841,-5.7753,-5.9223,-5.9493,0.0,0.0,0.0,0.0,-6.1466,-6.2627,-6.3671,-6.6804,-6.8584,-6.8816,-7.044,-7.1291,-7.1291,-7.1523,-7.2413,-7.3922,-7.4115,-7.5005,-7.6397,-7.6397,-7.6397,-7.6397,-7.6397,-7.6397,-7.6397,-7.6397,-7.6397,-7.6397,-7.663,-7.6707,-7.6823,-7.6991,-7.7043,-7.7073,-7.6992,-7.7054,-7.7131,-7.7184,-7.7187,-7.7187,-7.7187,-7.7187,-7.7187,-7.7187,-7.7187,-7.7187,-7.7187,-7.7187,-7.7187,-7.7187,-7.7187,-7.7187,-7.7187,-7.7187,-7.6992,-7.6484,-7.6094,-7.5469,-7.4609,-7.414,-7.3906,-7.3867,-7.293,-7.2436,-7.2328,-7.1901,-7.1562,-7.1369,-7.1369,-7.1369,-7.1291,-7.1291,-7.1291,-7.1291,-7.1291,-7.1291,-7.1291,-7.1291,-7.1291,-7.1291,-7.1291,-7.1291,-7.1291,-7.1291,-7.1291,-7.1137,-7.0208,-6.9938,-6.986,-6.9473,-6.9357,-6.9048,-6.781,-6.7152,-6.6688,-6.6301,-6.5566,-6.487,-6.4367,-6.3284,-6.2278,-6.1776,-6.1389,-6.0847,-6.0035,-5.9493,-5.8874,-5.8023,-5.7907,0.0,-5.8449,-5.9648,-6.0422,-6.0344,-6.1505,-6.1698,-6.0344,-6.1892,0.0,-6.166,-6.3671,-6.4831,-6.4831,-6.7423,-6.897,-6.9357,-7.0634,-7.1291,-7.1291,-7.1291,-7.222,-7.3883,-7.3883,-7.4811,-7.6397,-7.6397,-7.6397,-7.6397,-7.6397,-7.6397,-7.6397,-7.6397,-7.6397,-7.6397,-7.6397,-7.6397,-7.6475,-7.7031,-7.7109,-7.7165,-7.7036,-7.7121,-7.7187,-7.7187,-7.7187,-7.7187,-7.7187,-7.7187,-7.7187,-7.7187,-7.7187,-7.7187,-7.7187,-7.7187,-7.7187,-7.7187,-7.7187,-7.7187,-7.7187,-7.7187,-7.7187,-7.7187,-7.6484,-7.5742,-7.5,-7.4844,-7.4805,-7.4765,-7.3789,-7.3242,-7.3085,-7.2251,-7.1766,-7.151,-7.1507,-7.1407,-7.1291,-7.1291,-7.1291,-7.1291,-7.1291,-7.1291,-7.1291,-7.1291,-7.1291,-7.1291,-7.1291,-7.1291,-7.1291,-7.1291,-7.1291,-7.1291,-7.1291,-7.1291,-7.1137,-7.0402,-7.0092,-6.9667,-6.8236,-6.7694,-6.7307,-6.6572,-6.576,-6.5141,-6.5025,-6.371,-6.2549,-6.2433,-6.1698,-6.0809,-5.9841,-5.9803,-5.9532,-5.8526,0.0,-5.9106,-5.9996,-6.0809,-6.166,-6.2511,-6.3284,-6.3748,-6.3864,-6.4561,-6.4715,-6.4097,-6.5412,-6.6301,-6.6572,-6.8042,-6.9241,-7.017,-7.0943,-7.1291,-7.1291,-7.1291,-7.222,-7.3883,-7.3883,-7.4811,-7.6397,-7.6397,-7.6397,-7.6397,-7.6397,-7.6397,-7.6397,-7.6397,-7.6397,-7.6397,-7.6397,-7.6397,-7.6397,-7.7145,-7.7187,-7.7187,-7.7172,-7.7184,-7.7187,-7.7187,-7.7187,-7.7187,-7.7187,-7.7187,-7.7187,-7.7187,-7.7187,-7.7187,-7.7187,-7.7187,-7.7187,-7.7187,-7.7187,-7.7187,-7.7187,-7.7187,-7.7187,-7.7187,-7.707,-7.6914,-7.6797,-7.6055,-7.5703,-7.5664,-7.4765,-7.3906,-7.3086,-7.296,-7.237,-7.1497,-7.1513,-7.1407,-7.1291,-7.1291,-7.1291,-7.1291,-7.1291,-7.1291,-7.1291,-7.1291,-7.1291,-7.1291,-7.1291,-7.1291,-7.1291,-7.1291,-7.1291,-7.1291,-7.1291,-7.1291,-7.1253,-7.1137,-7.0556,-6.9938,-6.9667,-6.8545,-6.7462,-6.7346,-6.6611,-6.5837,-6.5141,-6.4213,-6.3284,-6.2549,-6.1698,-6.0615,-5.9029,-5.9416,-5.9339,-5.7753,0.0,-5.9996,-6.0809,-6.166,-6.2549,-6.34,-6.3632,-6.4019,-6.4715,-6.4909,-6.5218,-6.576,-6.6069,-6.6882,-6.8352,-6.8661,-6.9551,-7.1059,-7.1214,-7.1291,-7.1291,-7.1291,-7.222,-7.3883,-7.3883,-7.4811,-7.6397,-7.6397,-7.6397,-7.6397,-7.6397,-7.6397,-7.6397,-7.6397,-7.6397,-7.6397,-7.6397,-7.6397,-7.6397,-7.7187,-7.7187,-7.7187,-7.7187,-7.7187,-7.7187,-7.7187,-7.7187,-7.7187,-7.7187,-7.7187,-7.7187,-7.7187,-7.7187,-7.7187,-7.7187,-7.7187,-7.7187,-7.7187,-7.7187,-7.7187,-7.7187,-7.7187,-7.7187,-7.7187,-7.7187,-7.7187,-7.7187,-7.6797,-7.6601,-7.6562,-7.5703,-7.5039,-7.4609,-7.4101,-7.3585,-7.3048,-7.3079,-7.2999,-7.2861,-7.2861,-7.2822,-7.28,-7.28,-7.2761,-7.2684,-7.2684,-7.2684,-7.2645,-7.2142,-7.1988,-7.191,-7.1446,-7.1291,-7.1291,-7.1291,-7.1291,-7.1291,-7.1291,-7.1021,-7.0595,-7.0131,-6.9087,-6.8081,-6.7617,-6.6843,-6.6108,-6.5721,-6.4986,-6.429,-6.3864,-6.2704,-6.1543,-6.077,-6.0576,0.0,0.0,-6.046,-6.1389,-6.1776,-6.2975,-6.3942,-6.4367,-6.4793,-6.5218,-6.5605,-6.5644,-6.5799,-6.6185,-6.6185,-6.6998,-6.8738,-6.9667,-7.0518,-7.1291,-7.1291,-7.1291,-7.1291,-7.1794,-7.2684,-7.3922,-7.4347,-7.5237,-7.6397,-7.6397,-7.6397,-7.6397,-7.6397,-7.6397,-7.6397,-7.6397,-7.6397,-7.6397,-7.6397,-7.6397,-7.6397,-7.7187,-7.7187,-7.7187,-7.7187,-7.7187,-7.7187,-7.7187,-7.7187,-7.7187,-7.7187,-7.7187,-7.7187,-7.7187,-7.7187,-7.7187,-7.7187,-7.7187,-7.7187,-7.7187,-7.7187,-7.7187,-7.7187,-7.7187,-7.7187,-7.7187,-7.7187,-7.7187,-7.7187,-7.7187,-7.7187,-7.7187,-7.6523,-7.6094,-7.5859,-7.5195,-7.4726,-7.4413,-7.4404,-7.4321,-7.4208,-7.4208,-7.415,-7.4131,-7.4143,-7.4038,-7.396,-7.396,-7.396,-7.3844,-7.3187,-7.2916,-7.2761,-7.1872,-7.1601,-7.1562,-7.1369,-7.1291,-7.1291,-7.1291,-7.1291,-7.1137,-7.0479,-6.9705,-6.8854,-6.8003,-6.7114,-6.6456,-6.6224,-6.5566,-6.4986,-6.4986,-6.3748,-6.2627,-6.2433,0.0,0.0,0.0,-6.2162,-6.2781,-6.3013,-6.4213,-6.5102,-6.5296,-6.5915,-6.6263,-6.6263,-6.6263,-6.6301,-6.6301,-6.6456,-6.7346,-6.9048,-7.0518,-7.1291,-7.1291,-7.1291,-7.1291,-7.1291,-7.1988,-7.2877,-7.3922,-7.4541,-7.5392,-7.6397,-7.6397,-7.6397,-7.6397,-7.6397,-7.6397,-7.6397,-7.6397,-7.6397,-7.6397,-7.6397,-7.6397,-7.6397,-7.7176,-7.7187,-7.7187,-7.7187,-7.7187,-7.7187,-7.7187,-7.7187,-7.7187,-7.7187,-7.7187,-7.7187,-7.7187,-7.7187,-7.7187,-7.7187,-7.7187,-7.7187,-7.7187,-7.7187,-7.7187,-7.7187,-7.7187,-7.7187,-7.7187,-7.7187,-7.7187,-7.7187,-7.7187,-7.7187,-7.7187,-7.7148,-7.668,-7.5898,-7.582,-7.5273,-7.4414,-7.4412,-7.433,-7.4182,-7.4182,-7.4221,-7.4197,-7.4208,-7.4193,-7.4193,-7.4193,-7.4154,-7.4077,-7.4038,-7.3922,-7.3651,-7.2761,-7.2491,-7.2336,-7.1523,-7.1291,-7.1291,-7.1291,-7.1291,-7.1291,-7.1214,-7.0556,-6.9705,-6.8893,-6.8042,-6.7191,-6.6379,-6.5566,-6.4986,-6.4986,-6.4251,-6.3323,-6.2549,0.0,0.0,-6.2433,-6.3052,-6.3942,-6.4793,-6.4986,-6.5412,-6.6224,-6.6456,-6.6495,-6.6379,-6.6495,-6.6572,-6.6572,-6.723,-6.8313,-6.986,-7.0789,-7.1291,-7.1291,-7.1291,-7.1291,-7.1291,-7.1369,-7.2297,-7.3883,-7.396,-7.4889,-7.6397,-7.6397,-7.6397,-7.6397,-7.6397,-7.6397,-7.6397,-7.6397,-7.6397,-7.6397,-7.6397,-7.6397,-7.6397,-7.7186,-7.7187,-7.7187,-7.7187,-7.7187,-7.7187,-7.7187,-7.7187,-7.7187,-7.7187,-7.7187,-7.7187,-7.7187,-7.7187,-7.7187,-7.7187,-7.7187,-7.7187,-7.7187,-7.7187,-7.7187,-7.7187,-7.7187,-7.7187,-7.7187,-7.7187,-7.7187,-7.7187,-7.7187,-7.7187,-7.7187,-7.7187,-7.7031,-7.6719,-7.6719,-7.6484,-7.6133,-7.6133,-7.613,-7.6072,-7.6072,-7.5994,-7.595,-7.5936,-7.5869,-7.5821,-7.5821,-7.5782,-7.5711,-7.5133,-7.4928,-7.4734,-7.3883,-7.3596,-7.3425,-7.259,-7.1971,-7.1523,-7.1523,-7.1407,-7.1291,-7.1291,-7.0634,-6.9899,-6.9589,-6.8932,-6.814,-6.7307,-6.6941,-6.6592,-6.6069,-6.5218,-6.4638,-6.4831,0.0,-6.3845,-6.4019,-6.4426,-6.4812,-6.5161,-6.5708,-6.6178,-6.6489,-6.657,-6.6573,-6.6553,-6.6567,-6.6839,-6.7306,-6.8625,-6.9649,-7.023,-7.1081,-7.1446,-7.1291,-7.1291,-7.1291,-7.1291,-7.2413,-7.3264,-7.3922,-7.4966,-7.5779,-7.6397,-7.6397,-7.6397,-7.6397,-7.6397,-7.6397,-7.6397,-7.6397,-7.6397,-7.6397,-7.6397,-7.6397,-7.6397,-7.7187,-7.7187,-7.7187,-7.7187,-7.7187,-7.7187,-7.7187,-7.7187,-7.7187,-7.7187,-7.7187,-7.7187,-7.7187,-7.7187,-7.7187,-7.7187,-7.7187,-7.7187,-7.7187,-7.7187,-7.7187,-7.7187,-7.7187,-7.7187,-7.7187,-7.7187,-7.7187,-7.7187,-7.7187,-7.7187,-7.7187,-7.7187,-7.7187,-7.7187,-7.7187,-7.7187,-7.7187,-7.7187,-7.7187,-7.7187,-7.7187,-7.7148,-7.707,-7.707,-7.7016,-7.6942,-7.6942,-7.6903,-7.6761,-7.616,-7.5954,-7.576,-7.4868,-7.4421,-7.4091,-7.3547,-7.2753,-7.2132,-7.2132,-7.1765,-7.1436,-7.1451,-7.0982,-7.044,-7.0208,-6.9705,-6.9128,-6.8294,-6.8174,-6.8019,-6.7476,-6.6799,-6.6454,-6.6806,-6.5857,-6.5161,-6.5502,-6.5652,-6.5735,-6.5722,-6.6283,-6.6618,-6.6635,-6.6679,-6.6689,-6.662,-6.6927,-6.7578,-6.8632,-6.9796,-7.058,-7.0813,-7.1395,-7.1609,-7.1415,-7.1454,-7.1407,-7.1446,-7.2916,-7.3728,-7.4038,-7.5469,-7.6243,-7.6436,-7.6436,-7.6436,-7.6397,-7.6397,-7.6397,-7.6436,-7.6436,-7.6475,-7.6514,-7.6514,-7.6514,-7.6514,-7.7187,-7.7187,-7.7187,-7.7187,-7.7187,-7.7187,-7.7187,-7.7187,-7.7187,-7.7187,-7.7187,-7.7187,-7.7187,-7.7187,-7.7187,-7.7187,-7.7187,-7.7187,-7.7187,-7.7187,-7.7187,-7.7187,-7.7187,-7.7187,-7.7187,-7.7187,-7.7187,-7.7187,-7.7187,-7.7187,-7.7187,-7.7187,-7.7187,-7.7187,-7.7187,-7.7187,-7.7187,-7.7187,-7.7187,-7.7187,-7.7187,-7.7187,-7.7187,-7.7187,-7.7187,-7.7187,-7.7187,-7.7109,-7.699,-7.6995,-7.6921,-7.6649,-7.5791,-7.4934,-7.4205,-7.4205,-7.362,-7.2997,-7.2997,-7.2362,-7.1719,-7.1688,-7.17,-7.1468,-7.0634,-7.0419,-7.0176,-6.9278,-6.9099,-6.9099,-6.9099,-6.9099,-6.8825,-6.7949,-6.7812,-6.754,-6.6719,-6.6634,-6.6659,-6.6709,-6.6709,-6.6718,-6.6716,-6.684,-6.6863,-6.6709,-6.7641,-6.8906,-7.0508,-7.0625,-7.096,-7.1672,-7.17,-7.17,-7.17,-7.1705,-7.17,-7.17,-7.259,-7.3441,-7.4231,-7.5105,-7.5918,-7.6614,-7.6591,-7.6514,-7.6397,-7.6397,-7.6475,-7.6591,-7.6614,-7.6692,-7.6808,-7.6808,-7.6808,-7.6808,-7.7187,-7.7187,-7.7187,-7.7187,-7.7187,-7.7187,-7.7187,-7.7187,-7.7187,-7.7187,-7.7187,-7.7187,-7.7187,-7.7187,-7.7187,-7.7187,-7.7187,-7.7187,-7.7187,-7.7187,-7.7187,-7.7187,-7.7187,-7.7187,-7.7187,-7.7187,-7.7187,-7.7187,-7.7187,-7.7187,-7.7187,-7.7187,-7.7187,-7.7187,-7.7187,-7.7187,-7.7187,-7.7187,-7.7187,-7.7187,-7.7187,-7.7187,-7.7187,-7.7187,-7.7187,-7.7187,-7.7187,-7.7187,-7.7148,-7.7139,-7.7091,-7.7052,-7.6778,-7.6079,-7.5376,-7.5376,-7.4779,-7.3971,-7.3386,-7.3036,-7.2624,-7.1874,-7.1704,-7.1626,-7.1379,-7.1356,-7.1141,-7.0331,-7.0201,-7.0064,-6.9479,-6.9283,-6.916,-6.8898,-6.8836,-6.8743,-6.8506,-6.8583,-6.8648,-6.8658,-6.8613,-6.8366,-6.7812,-6.834,-6.8457,-6.7793,-6.9132,-7.0156,-7.0625,-7.125,-7.1662,-7.1905,-7.1895,-7.1895,-7.1895,-7.1784,-7.1704,-7.1743,-7.3144,-7.3975,-7.4233,-7.575,-7.6529,-7.6747,-7.6746,-7.6707,-7.6668,-7.6668,-7.6707,-7.6753,-7.6743,-7.6747,-7.6786,-7.6786,-7.6786,-7.6786,-7.7187,-7.7187,-7.7187,-7.7187,-7.7187,-7.7187,-7.7187,-7.7187,-7.7187,-7.7187,-7.7187,-7.7187,-7.7187,-7.7187,-7.7187,-7.7187,-7.7187,-7.7187,-7.7187,-7.7187,-7.7187,-7.7187,-7.7187,-7.7187,-7.7187,-7.7187,-7.7187,-7.7187,-7.7187,-7.7187,-7.7187,-7.7187,-7.7187,-7.7187,-7.7187,-7.7187,-7.7187,-7.7187,-7.7187,-7.7187,-7.7187,-7.7187,-7.7187,-7.7187,-7.7187,-7.7187,-7.7187,-7.7187,-7.7187,-7.7187,-7.7187,-7.7187,-7.7187,-7.6836,-7.6406,-7.6406,-7.5806,-7.502,-7.4467,-7.3843,-7.314,-7.2477,-7.2086,-7.1813,-7.1813,-7.1848,-7.1732,-7.1265,-7.1195,-7.1055,-7.0586,-7.043,-7.0273,-6.9922,-6.9848,-6.9733,-6.9421,-6.9411,-6.9453,-6.9492,-6.9453,-6.9258,-6.8711,-6.918,-6.9414,-6.9219,-7.0117,-7.0859,-7.1211,-7.1719,-7.1986,-7.2008,-7.2008,-7.2008,-7.2008,-7.1891,-7.1813,-7.1852,-7.353,-7.435,-7.4428,-7.6145,-7.6926,-7.688,-7.687,-7.6848,-7.6788,-7.6788,-7.6845,-7.6869,-7.6884,-7.6897,-7.6965,-7.6965,-7.6944,-7.6932,-7.7187,-7.7187,-7.7187,-7.7187,-7.7187,-7.7187,-7.7187,-7.7187,-7.7187,-7.7187,-7.7187,-7.7187,-7.7187,-7.7187,-7.7187,-7.7187,-7.7187,-7.7187,-7.7187,-7.7187,-7.7187,-7.7187,-7.7187,-7.7187,-7.7187,-7.7187,-7.7187,-7.7187,-7.7187,-7.7187,-7.7187,-7.7187,-7.7187,-7.7187,-7.7187,-7.7187,-7.7187,-7.7187,-7.7187,-7.7187,-7.7187,-7.7187,-7.7187,-7.7187,-7.7187,-7.7187,-7.7187,-7.7187,-7.7187,-7.7187,-7.7187,-7.7187,-7.7187,-7.7187,-7.7187,-7.7187,-7.664,-7.6015,-7.5937,-7.4726,-7.3476,-7.3359,-7.2695,-7.2109,-7.2031,-7.1992,-7.1992,-7.1992,-7.1992,-7.1992,-7.1992,-7.1992,-7.1758,-7.0937,-7.082,-7.0547,-6.9844,-6.9687,-6.9648,-6.9726,-6.9726,-6.9687,-6.9531,-6.957,-6.9922,-7.0742,-7.082,-7.1172,-7.1953,-7.1992,-7.1992,-7.1992,-7.1992,-7.1992,-7.1992,-7.1992,-7.2031,-7.2148,-7.3789,-7.4648,-7.4765,-7.6445,-7.7148,-7.7031,-7.7031,-7.697,-7.6838,-7.6838,-7.6918,-7.6996,-7.6996,-7.7092,-7.7187,-7.7187,-7.719,-7.719,-7.7187,-7.7187,-7.7187,-7.7187,-7.7187,-7.7187,-7.7187,-7.7187,-7.7187,-7.7187,-7.7187,-7.7187,-7.7187,-7.7187,-7.7187,-7.7187,-7.7187,-7.7187,-7.7187,-7.7187,-7.7187,-7.7187,-7.7187,-7.7187,-7.7187,-7.7187,-7.7187,-7.7187,-7.7187,-7.7187,-7.7187,-7.7187,-7.7187,-7.7187,-7.7187,-7.7187,-7.7187,-7.7187,-7.7187,-7.7187,-7.7187,-7.7187,-7.7187,-7.7187,-7.7187,-7.7187,-7.7187,-7.7187,-7.7187,-7.7187,-7.7187,-7.7187,-7.7187,-7.7187,-7.7187,-7.7187,-7.707,-7.6758,-7.6094,-7.5625,-7.5,-7.3633,-7.3164,-7.2851,-7.2148,-7.1992,-7.1992,-7.1992,-7.1992,-7.1992,-7.1992,-7.1992,-7.1953,-7.1758,-7.1719,-7.164,-7.1484,-7.1445,-7.1445,-7.1445,-7.1445,-7.1172,-7.0508,-7.043,-7.0781,-7.164,-7.1719,-7.1797,-7.1992,-7.1992,-7.1992,-7.1992,-7.1992,-7.1992,-7.1992,-7.1992,-7.2344,-7.3047,-7.4101,-7.4961,-7.5664,-7.6719,-7.7187,-7.7148,-7.7148,-7.7147,-7.71,-7.71,-7.713,-7.7151,-7.7151,-7.7176,-7.7187,-7.7187,-7.7181,-7.7199,-7.7187,-7.7187,-7.7187,-7.7187,-7.7187,-7.7187,-7.7187,-7.7187,-7.7187,-7.7187,-7.7187,-7.7187,-7.7187,-7.7187,-7.7187,-7.7187,-7.7187,-7.7187,-7.7187,-7.7187,-7.7187,-7.7187,-7.7187,-7.7187,-7.7187,-7.7187,-7.7187,-7.7187,-7.7187,-7.7187,-7.7187,-7.7187,-7.7187,-7.7187,-7.7187,-7.7187,-7.7187,-7.7187,-7.7187,-7.7187,-7.7187,-7.7187,-7.7187,-7.7187,-7.7187,-7.7187,-7.7187,-7.7187,-7.7187,-7.7187,-7.7187,-7.7187,-7.7187,-7.7187,-7.7187,-7.7187,-7.7187,-7.7109,-7.664,-7.6211,-7.5664,-7.4765,-7.4219,-7.3594,-7.2305,-7.1992,-7.1992,-7.1992,-7.1992,-7.1992,-7.1992,-7.1992,-7.1992,-7.1992,-7.1992,-7.1992,-7.1992,-7.1992,-7.1992,-7.1992,-7.1992,-7.1836,-7.1367,-7.1328,-7.1523,-7.1953,-7.1992,-7.1992,-7.1992,-7.1992,-7.1992,-7.1992,-7.1992,-7.2187,-7.2617,-7.2617,-7.3281,-7.4531,-7.457,-7.5078,-7.5937,-7.6797,-7.7187,-7.7187,-7.7187,-7.7187,-7.7187,-7.7187,-7.7187,-7.7187,-7.7187,-7.7187,-7.7187,-7.7187,-7.7148,-7.7108,-7.7187,-7.7187,-7.7187,-7.7187,-7.7187,-7.7187,-7.7187,-7.7187,-7.7187,-7.7187,-7.7187,-7.7187,-7.7187,-7.7187,-7.7187,-7.7187,-7.7187,-7.7187,-7.7187,-7.7187,-7.7187,-7.7187,-7.7187,-7.7187,-7.7187,-7.7187,-7.7187,-7.7187,-7.7187,-7.7187,-7.7187,-7.7187,-7.7187,-7.7187,-7.7187,-7.7187,-7.7187,-7.7187,-7.7187,-7.7187,-7.7187,-7.7187,-7.7187,-7.7187,-7.7187,-7.7187,-7.7187,-7.7187,-7.7187,-7.7187,-7.7187,-7.7187,-7.7187,-7.7187,-7.7187,-7.7187,-7.7187,-7.7187,-7.7187,-7.668,-7.6094,-7.5937,-7.5351,-7.4414,-7.2812,-7.2344,-7.2187,-7.2031,-7.1992,-7.1992,-7.1992,-7.1992,-7.1992,-7.1992,-7.1992,-7.1992,-7.1992,-7.1992,-7.1992,-7.1992,-7.1992,-7.1992,-7.1992,-7.1992,-7.1992,-7.1992,-7.1992,-7.1992,-7.1992,-7.1992,-7.1992,-7.1992,-7.1992,-7.2344,-7.3086,-7.3242,-7.4101,-7.5664,-7.5117,-7.5273,-7.6133,-7.6875,-7.7187,-7.7187,-7.7187,-7.7187,-7.7187,-7.7187,-7.7187,-7.7187,-7.7187,-7.7187,-7.7187,-7.7187,-7.7148,-7.7031,-7.7031,-7.7187,-7.7187,-7.7187,-7.7187,-7.7187,-7.7187,-7.7187,-7.7187,-7.7187,-7.7187,-7.7187,-7.7187,-7.7187,-7.7187,-7.7187,-7.7187,-7.7187,-7.7187,-7.7187,-7.7187,-7.7187,-7.7187,-7.7187,-7.7187,-7.7187,-7.7187,-7.7187,-7.7187,-7.7187,-7.7187,-7.7187,-7.7187,-7.7187,-7.7187,-7.7187,-7.7187,-7.7187,-7.7187,-7.7187,-7.7187,-7.7187,-7.7187,-7.7187,-7.7187,-7.7187,-7.7187,-7.7187,-7.7187,-7.7187,-7.7187,-7.7187,-7.7187,-7.7187,-7.7187,-7.7187,-7.7187,-7.7187,-7.7187,-7.7109,-7.6836,-7.6094,-7.582,-7.5469,-7.4453,-7.3672,-7.289,-7.2148,-7.1992,-7.1992,-7.1992,-7.1992,-7.1992,-7.1992,-7.1992,-7.1992,-7.1992,-7.1992,-7.1992,-7.1992,-7.1992,-7.1992,-7.1992,-7.1992,-7.1992,-7.1992,-7.1992,-7.1992,-7.1992,-7.1992,-7.1992,-7.1992,-7.1992,-7.207,-7.2187,-7.293,-7.3789,-7.4765,-7.543,-7.6172,-7.7031,-7.7148,-7.7187,-7.7187,-7.7187,-7.7187,-7.7187,-7.7187,-7.7187,-7.7187,-7.7187,-7.7187,-7.7187,-7.7187,-7.7187,-7.7187,-7.5664,-7.6133,-7.6484,-7.6484,-7.6875,-7.7187,-7.7187,-7.7187,-7.7187,-7.7187,-7.7187,-7.7187,-7.7187,-7.7187,-7.7187,-7.7187,-7.7187,-7.7187,-7.7187,-7.7187,-7.7187,-7.7187,-7.7187,-7.7187,-7.7187,-7.7187,-7.7187,-7.7187,-7.7187,-7.7187,-7.7187,-7.7187,-7.7187,-7.7187,-7.7187,-7.7187,-7.7187,-7.7187,-7.7187,-7.7187,-7.7187,-7.7187,-7.7187,-7.7187,-7.7187,-7.7187,-7.7187,-7.7187,-7.7187,-7.7187,-7.7187,-7.7187,-7.7187,-7.7187,-7.7187,-7.7187,-7.7187,-7.7187,-7.7187,-7.7187,-7.7109,-7.6719,-7.664,-7.6406,-7.5508,-7.5039,-7.4375,-7.3008,-7.2734,-7.2578,-7.2109,-7.1992,-7.1992,-7.1992,-7.1992,-7.1992,-7.1992,-7.1992,-7.1992,-7.1992,-7.1992,-7.1992,-7.1992,-7.1992,-7.1992,-7.1992,-7.1992,-7.1992,-7.1992,-7.1992,-7.1992,-7.1992,-7.1992,-7.2461,-7.3437,-7.3828,-7.4726,-7.6055,-7.6445,-7.6836,-7.7187,-7.7187,-7.7187,-7.7187,-7.7187,-7.7187,-7.7187,-7.7187,-7.7187,-7.7187,-7.7187,-7.7187,-7.7187,-7.7187,-7.7187,-7.7187]}]]